GFSSGP_sfc_thetae_000.txt.gz
Theta_e
338 330 321 315 305 303 298 303 305 306 305 305 306 304 303 304 310 301 319 329 323 325 335 351 355 354 352 352 351 351 349 347 345 343 341 339 339 338 338 339 339 339 339 339 338 338 337 336 336
333 327 319 315 302 296 299 306 306 307 309 304 304 304 304 304 316 319 323 330 324 330 337 348 356 355 354 353 352 351 351 348 346 344 342 341 342 340 340 340 341 341 342 342 341 340 339 338 337
324 319 314 310 303 298 299 307 307 310 311 307 303 307 307 308 317 319 326 331 330 331 340 346 356 355 354 354 353 352 351 349 348 344 343 343 344 345 345 342 342 341 342 344 343 342 341 340 339
319 320 315 304 302 305 305 310 311 307 307 305 305 305 310 315 318 321 330 331 331 334 341 348 356 355 354 354 353 352 351 350 348 345 344 346 345 345 344 343 343 342 343 341 341 342 343 343 341
320 314 305 299 303 307 309 311 308 304 301 302 305 305 307 314 322 328 330 331 330 334 338 345 355 355 354 354 354 353 352 351 350 347 346 346 345 344 343 343 343 342 342 341 340 341 344 343 342
311 308 297 296 301 305 306 309 306 304 304 304 305 306 307 315 322 330 329 328 329 332 335 343 354 354 354 354 353 352 352 351 350 349 348 346 344 344 343 342 342 342 341 339 339 342 343 344 342
308 302 297 298 301 303 306 307 304 303 304 305 306 304 307 311 319 331 329 327 328 331 336 342 348 352 354 353 352 352 350 350 351 349 345 343 341 338 337 337 338 339 339 338 339 339 341 342 341
310 303 298 300 298 300 306 304 304 304 307 310 312 304 304 311 318 323 327 326 328 331 334 340 345 346 345 348 353 352 352 349 347 344 341 336 335 335 334 335 335 335 336 337 337 338 338 340 341
310 300 296 298 299 301 304 303 307 310 306 306 310 309 312 316 315 319 322 324 326 332 333 336 339 339 340 342 347 351 347 345 343 338 336 337 330 328 330 331 332 333 335 335 336 336 338 339 338
306 299 300 305 305 304 304 305 308 306 308 305 306 310 313 314 313 316 317 321 321 326 329 333 334 335 335 339 337 337 335 333 329 330 329 328 327 326 329 331 332 334 335 336 337 337 337 336 333
306 303 307 308 309 307 307 307 309 307 306 310 306 309 310 311 311 313 315 320 322 325 328 329 330 330 331 332 329 329 327 327 326 328 328 325 325 324 326 327 327 326 330 330 331 331 332 333 331
301 307 309 309 310 308 306 308 309 310 309 313 312 311 311 310 309 311 313 317 315 314 322 324 327 327 327 326 326 326 324 324 323 324 326 323 322 323 323 323 324 325 326 327 328 328 329 330 330
303 306 309 309 308 309 309 307 308 309 314 314 312 308 308 310 311 313 314 315 312 310 313 320 323 324 324 323 323 323 323 323 323 322 323 323 322 322 323 323 324 325 327 326 327 326 327 328 328
306 307 308 308 309 310 308 308 310 312 315 312 310 308 308 310 311 310 309 310 309 310 312 317 321 321 321 321 321 322 322 323 323 322 323 324 323 323 323 323 325 325 324 324 325 325 326 326 327
301 298 300 302 304 304 308 303 305 312 311 307 307 308 307 310 311 310 312 312 312 309 313 318 319 320 321 321 322 322 322 323 322 323 324 325 325 324 324 324 325 323 323 323 323 323 324 325 325
295 295 291 299 303 304 304 297 306 310 307 307 307 308 307 307 311 312 313 312 309 311 314 317 322 321 321 321 321 321 322 322 322 323 325 326 326 325 323 324 323 323 323 322 321 322 322 323 323
291 289 290 294 301 300 302 298 305 306 305 305 306 306 307 306 307 311 311 309 311 313 315 318 321 321 321 319 319 320 322 323 323 324 324 325 326 326 323 323 322 322 321 321 320 320 321 320 321
287 288 291 292 297 299 297 297 303 306 305 304 305 305 305 305 307 309 309 310 312 315 317 320 320 320 320 319 319 320 320 322 323 324 325 326 326 327 324 322 321 321 320 319 318 319 320 321 321
293 291 290 293 298 298 296 297 300 304 302 302 304 306 306 306 307 307 309 310 313 316 317 318 318 319 318 318 317 318 319 320 322 324 326 327 327 325 322 321 321 321 320 319 318 319 319 319 321
293 290 290 295 300 298 297 296 300 302 303 303 305 306 306 304 307 308 308 310 313 316 317 317 318 317 318 317 318 319 319 320 322 324 326 328 327 325 322 321 321 320 319 318 317 318 317 318 320
292 291 291 291 298 299 296 294 297 302 303 303 304 305 304 304 306 308 307 309 313 315 317 317 317 318 318 318 319 319 319 319 320 321 322 323 324 325 324 322 321 320 318 317 317 318 319 317 318
291 297 296 295 294 287 296 285 294 297 300 301 302 302 303 304 307 307 307 310 313 315 317 317 317 318 319 320 318 317 317 316 317 319 320 321 324 324 324 323 321 320 319 317 318 319 321 321 318
294 300 297 297 293 288 291 287 292 295 296 300 301 303 302 302 307 307 308 312 315 316 317 317 317 318 319 320 319 319 317 317 318 318 319 320 322 325 323 322 320 319 319 319 319 319 320 321 320
299 295 294 292 289 284 290 289 288 293 297 299 301 302 304 304 307 307 309 314 313 315 316 317 317 317 318 319 320 319 317 317 316 316 316 317 318 321 321 321 320 320 320 319 320 320 320 320 322
295 289 281 279 279 282 292 288 292 297 299 301 302 302 304 306 307 308 310 311 311 313 315 316 316 316 318 319 320 318 319 317 316 316 316 315 316 318 319 319 319 320 321 322 321 322 321 321 323
293 291 282 278 280 285 291 287 293 300 303 303 303 302 304 306 307 308 310 311 312 313 315 315 314 316 317 319 319 319 319 317 316 316 316 315 315 316 318 320 321 322 323 323 323 323 322 323 324
292 287 293 287 289 284 287 292 298 300 301 301 301 303 303 305 307 308 310 310 312 313 314 314 313 315 316 318 319 319 320 317 317 317 317 316 316 318 319 320 321 322 323 323 323 324 325 325 325
292 295 286 287 279 279 286 288 291 295 297 300 301 301 303 306 307 309 309 310 311 313 314 314 314 314 314 317 318 320 321 319 318 318 317 317 317 319 320 320 321 322 323 324 324 325 327 327 324
288 288 287 289 285 282 281 286 295 298 299 300 301 301 303 307 308 310 309 310 311 312 312 313 314 314 314 317 316 322 321 320 317 319 318 318 317 318 320 321 322 322 323 323 325 326 326 326 326
295 291 290 286 283 287 286 287 298 299 298 299 301 303 304 307 309 310 310 309 310 311 311 311 313 313 314 317 317 321 322 320 318 319 318 318 318 319 320 322 322 322 322 323 324 325 326 326 325

GFSSGP_sfc_thetae_003.txt.gz
Theta_e
338 334 325 321 309 311 305 309 313 314 314 314 313 312 312 315 316 309 332 338 336 329 338 352 357 355 354 353 352 351 349 348 345 343 341 340 339 339 339 339 339 340 340 340 340 340 339 338 337
334 326 326 321 308 304 310 314 314 316 319 319 313 312 311 312 319 325 332 339 336 332 344 346 357 356 355 353 353 352 351 349 348 345 343 342 342 341 341 342 342 342 341 341 344 343 342 341 339
328 324 323 318 313 308 310 314 316 319 318 314 313 313 313 315 323 327 336 338 333 334 344 350 357 356 356 355 354 353 353 351 349 346 345 345 345 345 345 345 343 343 343 342 345 345 344 343 342
322 326 324 312 310 314 314 317 320 318 314 313 312 311 317 321 324 329 338 336 334 335 343 348 356 356 356 355 355 354 354 352 351 348 347 347 348 347 346 345 344 344 344 343 344 343 345 344 344
329 326 310 309 310 314 318 321 320 315 314 311 312 311 315 321 327 332 338 336 333 334 344 346 356 356 356 356 355 354 353 352 351 350 348 348 349 347 345 345 344 344 344 344 343 345 345 345 344
318 320 308 302 306 311 315 318 316 314 313 313 311 312 316 322 326 334 338 338 336 336 342 347 355 356 356 355 355 353 353 353 352 351 350 349 348 346 345 344 344 344 343 343 343 343 344 343 344
314 313 304 305 304 307 311 317 314 313 313 314 315 311 318 320 326 333 337 339 337 339 341 347 350 355 356 354 354 353 353 352 352 351 350 348 345 343 339 338 339 340 341 341 341 340 342 343 341
317 314 305 306 304 305 311 312 313 313 313 317 316 312 314 322 325 335 336 336 335 339 341 344 348 350 350 350 354 354 353 352 351 351 347 344 337 336 336 337 336 336 337 338 339 339 339 341 341
317 308 303 304 305 308 312 311 314 316 315 315 315 318 321 322 327 332 334 333 334 335 340 342 345 349 349 347 349 353 351 350 349 345 343 338 337 336 334 333 334 333 335 336 337 337 338 338 338
313 307 306 311 311 310 312 312 314 314 314 314 317 320 319 320 323 326 329 329 331 333 335 339 345 346 347 345 349 348 346 343 343 342 339 340 340 338 334 333 333 334 336 338 338 338 337 339 335
312 307 311 312 313 313 312 313 316 313 311 315 315 318 321 321 321 323 327 329 329 333 335 336 342 347 347 345 346 346 343 343 342 340 340 339 337 336 335 334 335 336 334 333 334 334 333 336 337
307 312 312 313 314 313 311 314 312 315 315 319 319 320 320 319 319 321 325 328 330 331 334 338 341 344 347 344 343 342 339 339 337 337 340 339 336 336 335 333 335 335 334 335 335 334 335 336 337
309 311 313 314 315 314 314 312 313 313 317 319 320 320 319 319 320 322 325 328 331 330 333 337 341 342 344 344 340 339 338 336 336 337 338 338 337 336 336 335 335 335 333 335 336 334 334 335 336
310 311 311 313 313 314 311 311 313 314 318 318 319 319 319 319 319 320 322 324 328 330 331 333 338 343 342 340 339 337 338 337 337 336 337 338 336 336 335 335 335 338 337 336 336 332 332 332 334
311 307 310 311 311 311 310 305 306 313 315 315 316 318 318 319 319 319 324 325 327 328 328 330 337 341 340 339 338 336 336 337 336 337 338 337 337 337 337 338 336 338 333 336 335 334 334 333 332
301 302 297 304 306 307 306 300 308 313 313 313 315 315 315 318 320 321 323 327 328 328 323 329 331 337 339 338 337 336 336 337 336 336 337 337 338 339 338 337 336 335 335 337 334 334 330 329 330
299 295 296 299 306 305 306 302 308 312 311 311 313 314 315 316 319 324 323 325 326 325 326 328 332 335 337 337 336 337 338 336 336 337 337 338 338 338 337 336 333 335 335 332 333 332 330 328 329
294 294 297 297 302 303 302 302 307 309 309 310 312 314 314 315 317 322 323 323 324 325 329 332 333 336 336 335 334 334 334 335 336 336 337 338 338 337 336 334 331 333 330 329 329 331 330 329 329
299 298 297 301 303 300 300 301 304 308 309 309 310 312 314 317 320 320 321 322 322 325 328 332 334 335 333 330 329 331 331 333 334 336 338 338 339 337 336 333 329 328 329 331 330 329 327 328 331
297 296 296 299 300 300 300 299 304 307 308 309 311 312 314 316 318 319 319 320 323 324 329 333 334 333 333 331 332 334 335 335 335 337 337 338 337 336 335 331 329 328 328 329 329 328 325 327 330
296 295 295 295 299 301 299 297 301 306 309 310 311 313 315 315 318 319 317 318 323 324 328 331 332 333 333 334 333 334 335 334 333 334 335 336 334 334 334 332 330 330 329 328 328 327 325 322 325
292 299 298 296 295 291 301 290 299 303 304 307 309 312 314 316 317 318 317 318 322 324 328 331 332 333 333 334 333 334 331 330 332 333 334 334 333 333 333 332 331 331 330 328 327 326 325 326 324
295 300 298 298 296 296 296 293 297 303 301 305 309 310 315 316 315 318 317 319 322 325 328 330 332 333 334 334 334 333 333 331 332 332 331 332 333 332 330 331 331 330 329 329 328 327 327 331 329
301 299 299 299 296 289 294 294 293 298 301 304 309 312 313 315 316 317 319 321 323 326 328 329 331 332 334 334 334 335 332 330 328 329 329 330 330 330 330 330 330 330 330 329 328 329 329 330 332
300 297 288 286 287 286 296 293 295 302 304 306 308 313 313 316 316 316 318 320 323 325 327 328 330 330 333 333 333 333 332 330 327 327 328 326 326 327 329 330 329 330 331 331 331 331 330 330 330
297 296 290 284 286 289 296 290 294 306 308 308 311 313 313 316 316 317 319 321 323 325 327 327 330 329 331 332 333 333 333 329 328 328 327 326 327 327 330 329 330 331 331 331 332 332 330 331 333
296 293 299 292 294 290 294 298 303 307 307 310 310 310 313 316 316 317 319 322 323 326 327 329 329 330 330 332 333 333 333 329 329 329 328 326 328 327 328 329 330 330 331 332 332 333 332 331 331
297 300 291 292 284 283 289 292 296 304 306 308 310 311 313 316 316 317 319 321 324 326 328 330 329 329 330 330 333 332 333 330 330 329 327 327 327 328 328 328 330 331 331 333 333 332 331 331 332
294 294 295 296 293 287 285 290 305 307 310 310 311 313 314 315 316 317 318 322 323 326 327 328 327 327 327 329 331 332 332 330 329 329 328 327 328 328 327 328 328 329 331 333 332 331 329 329 331
298 296 296 290 289 292 292 293 307 309 310 310 310 312 314 317 317 318 319 321 322 323 326 326 327 327 326 329 329 331 333 330 328 329 329 328 327 327 327 329 328 329 330 332 331 328 327 326 327

GFSSGP_sfc_thetae_006.txt.gz
Theta_e
337 330 327 327 314 310 308 311 318 317 318 320 320 318 317 318 315 312 337 343 342 336 346 354 356 355 354 353 352 351 350 348 345 343 342 340 339 338 338 338 339 339 339 340 341 340 340 338 337
326 323 325 324 309 306 311 318 317 319 321 322 322 320 318 316 322 324 331 343 341 336 347 347 356 355 355 354 353 352 351 349 347 344 343 342 342 341 340 340 341 342 342 342 342 344 343 342 341
324 326 323 316 313 310 312 318 318 321 320 316 318 320 319 318 324 328 340 345 341 338 345 348 356 355 355 355 353 352 352 351 349 345 344 343 344 345 345 342 342 344 344 343 343 345 346 344 343
324 326 324 313 313 318 319 319 321 321 319 318 318 315 321 325 326 332 341 343 341 338 341 349 356 356 355 355 354 354 353 352 351 347 347 345 346 347 347 344 344 345 345 344 344 344 345 343 344
329 325 312 311 312 317 322 325 325 320 318 318 318 316 318 325 329 333 340 341 339 339 342 344 356 356 355 356 355 355 354 353 353 350 348 348 348 349 348 346 346 346 345 345 345 345 346 346 342
321 321 309 305 309 314 318 320 320 319 319 318 317 317 321 329 328 332 338 341 339 338 344 347 356 356 356 356 355 355 354 354 353 352 350 350 350 349 347 346 345 345 345 345 345 344 343 344 342
317 315 308 308 309 311 314 319 318 318 317 317 321 316 321 324 330 332 337 341 341 338 341 347 352 357 356 355 354 354 353 353 352 352 352 351 350 346 344 341 340 340 341 342 342 342 342 342 341
318 316 310 310 309 309 315 316 318 317 317 322 322 316 317 326 330 331 335 337 339 339 339 342 349 351 350 350 355 354 353 353 352 352 351 350 346 341 337 337 338 337 337 338 339 340 340 341 341
322 311 308 310 310 312 318 315 319 321 319 321 322 321 324 326 329 331 333 334 335 337 340 341 344 348 347 344 350 354 353 353 352 349 349 345 339 339 340 338 333 333 334 335 337 337 338 338 339
317 311 310 315 317 315 317 317 318 317 318 318 320 324 326 326 326 327 328 329 333 335 337 340 346 347 347 341 347 352 347 346 344 343 343 343 341 342 338 336 332 334 334 336 338 338 338 337 336
316 311 316 316 318 319 317 317 319 316 314 317 318 321 324 325 326 327 328 329 329 335 337 339 346 350 348 344 345 346 343 344 344 345 343 343 341 341 339 338 337 338 337 335 336 337 337 337 335
312 316 317 318 318 318 316 318 316 317 318 321 322 323 323 323 325 326 328 329 329 332 336 339 342 349 351 344 344 343 341 342 341 341 343 342 339 340 339 337 336 338 335 335 336 335 336 337 337
312 314 317 317 318 317 318 315 316 317 320 322 322 323 323 324 325 327 329 330 331 331 335 339 343 347 349 350 345 343 341 339 339 337 341 342 339 340 339 338 337 337 337 333 335 335 335 335 335
312 313 314 316 316 317 315 315 316 317 319 320 321 321 321 322 323 326 327 328 331 333 336 340 342 349 350 350 348 344 343 340 338 337 340 342 341 340 339 339 340 341 341 337 334 335 333 333 333
312 308 311 312 314 313 315 311 311 317 318 318 318 319 320 322 324 324 327 329 332 334 337 341 344 348 351 350 347 343 340 338 336 338 343 342 343 342 342 344 344 342 346 342 337 335 335 332 332
308 309 304 311 313 314 313 305 313 317 316 315 317 317 318 320 322 325 327 330 334 336 336 340 339 345 350 350 346 340 337 336 336 339 340 342 343 342 344 343 341 343 342 339 334 335 331 330 330
305 300 303 307 313 311 309 306 313 316 316 315 316 316 317 319 321 325 327 329 333 337 338 338 339 342 348 350 344 342 341 337 337 338 339 341 342 342 344 342 342 341 335 335 337 334 333 331 329
299 300 302 303 309 309 306 307 311 315 315 313 314 315 316 318 319 323 327 330 333 336 339 337 338 345 348 345 342 337 337 337 338 338 339 341 342 341 342 341 339 334 333 336 335 334 334 331 330
303 303 303 306 309 307 306 306 309 313 313 312 313 314 316 318 322 325 328 330 331 334 335 336 338 348 345 339 334 333 332 335 335 337 341 342 341 341 341 339 337 337 333 330 333 334 332 331 332
302 301 302 306 308 307 305 304 309 310 311 313 314 314 316 319 320 324 329 330 331 333 335 337 340 343 342 337 337 334 334 333 336 339 341 342 341 340 339 338 337 334 329 332 333 331 331 331 332
300 300 300 300 305 307 304 301 304 309 311 312 314 316 318 318 318 323 327 328 331 332 335 337 341 341 340 340 337 338 338 338 334 335 336 339 339 338 338 337 335 334 335 334 333 332 329 326 330
297 302 301 300 299 295 304 294 303 306 308 310 312 315 316 318 320 324 326 327 330 331 335 339 339 338 338 339 337 336 329 328 333 334 337 336 336 335 335 336 334 335 334 333 332 331 331 330 328
299 302 301 301 299 299 299 295 300 306 305 308 312 315 318 318 322 323 327 328 330 333 335 337 338 338 338 338 338 333 333 332 334 334 334 336 337 335 333 334 334 333 332 333 332 330 331 331 330
304 301 301 301 299 292 297 297 298 302 306 309 312 313 316 319 322 325 327 329 330 333 334 336 336 337 338 337 337 337 336 333 332 332 331 331 334 333 333 332 333 334 334 332 331 332 331 333 333
302 299 293 291 291 291 300 297 299 307 309 310 311 314 319 322 324 324 325 327 329 330 332 333 334 334 336 336 336 337 338 335 333 331 332 330 331 329 331 333 333 335 335 334 333 333 333 333 332
299 299 293 287 289 293 300 295 300 308 311 313 314 314 317 322 324 325 326 327 327 329 331 331 333 333 334 334 336 337 337 332 332 332 332 331 331 329 334 334 333 334 334 334 336 335 333 334 333
299 297 303 296 297 294 298 301 307 311 312 312 313 316 318 323 324 325 326 327 328 330 330 332 332 331 332 334 336 337 336 333 332 334 334 331 332 330 332 332 333 334 334 334 334 334 334 334 332
303 304 295 297 289 288 293 295 297 305 308 311 312 315 320 323 323 325 326 327 329 330 331 333 332 330 332 335 335 335 336 335 334 333 331 331 332 330 331 331 334 334 334 333 334 336 334 334 332
299 299 300 300 297 291 290 293 306 306 310 312 315 319 321 322 323 324 325 328 329 331 331 332 329 330 331 333 335 335 335 334 334 333 331 331 332 331 329 329 331 332 332 334 335 333 331 331 332
302 300 301 294 293 295 294 295 310 312 314 315 315 319 322 323 323 324 325 327 328 329 329 328 329 329 330 332 333 334 334 335 334 333 332 331 330 331 329 329 329 330 332 334 333 330 328 329 330

GFSSGP_sfc_thetae_009.txt.gz
Theta_e
336 328 329 325 314 312 310 312 319 317 319 322 322 319 319 320 315 312 337 341 340 341 348 351 355 355 354 353 352 351 349 347 345 343 341 340 338 337 336 336 337 338 338 339 340 341 340 339 338
324 323 325 322 310 307 310 317 317 321 322 324 322 321 320 317 324 325 331 342 342 342 350 347 355 355 355 354 353 352 351 348 346 344 343 341 341 340 339 339 339 341 341 341 341 343 344 343 342
332 324 320 316 313 308 312 318 320 322 323 319 319 322 320 319 325 328 341 342 341 342 350 349 355 354 355 355 353 352 351 350 348 345 344 344 343 343 343 341 341 341 343 344 343 343 345 346 344
321 322 323 314 311 316 317 321 322 321 323 320 320 317 323 327 326 332 338 341 340 340 349 354 355 355 355 355 354 353 352 351 350 347 346 345 345 347 347 343 343 343 344 346 345 345 345 345 344
323 322 312 311 311 316 321 323 325 322 321 320 320 317 320 329 332 333 338 340 339 339 344 353 355 355 355 356 355 354 353 353 352 349 347 346 348 349 348 346 346 346 347 347 346 347 345 344 343
318 320 311 308 310 315 319 321 321 321 322 320 319 319 321 330 330 331 335 338 339 339 342 347 356 355 355 355 355 354 354 353 353 352 351 349 350 350 349 347 347 346 346 345 345 344 344 343 342
315 315 310 311 310 311 315 320 318 319 319 319 323 316 322 327 331 331 333 336 339 338 339 341 355 357 356 355 354 354 354 354 353 353 352 351 350 350 348 346 344 342 341 341 342 342 343 342 342
317 316 310 312 310 310 317 318 321 318 318 324 323 316 319 327 330 331 332 333 335 338 338 341 346 355 353 351 355 355 355 354 353 352 352 351 349 348 346 341 339 338 337 338 338 339 341 341 342
320 311 308 310 311 313 318 317 321 323 320 322 323 323 326 328 330 329 329 331 333 334 339 339 341 347 350 346 349 355 354 354 353 351 351 349 343 341 343 343 337 336 335 335 336 337 338 339 340
314 311 311 316 317 316 318 319 319 319 319 319 321 325 327 328 328 326 325 326 329 332 335 338 348 345 348 343 348 353 349 349 348 345 343 347 343 342 340 342 335 335 335 335 337 339 340 339 337
315 310 316 318 319 319 319 318 320 318 316 320 319 322 325 326 326 326 325 327 329 331 335 338 350 354 350 345 344 350 347 346 345 345 347 348 342 344 342 340 340 340 337 338 337 338 338 336 338
312 316 317 318 319 318 317 319 318 319 319 323 323 324 325 324 325 326 325 327 330 332 333 340 343 353 357 346 341 344 345 345 343 344 349 345 340 343 343 338 339 343 338 338 336 335 341 336 337
312 314 317 318 319 319 320 317 317 318 322 324 324 324 324 324 325 326 326 328 330 332 334 337 346 354 356 358 344 346 346 342 345 342 344 343 340 344 341 343 339 339 337 337 340 339 339 340 337
315 315 315 316 316 318 316 316 318 319 322 322 322 322 323 324 324 325 326 328 330 333 335 337 345 355 356 353 357 353 354 346 342 340 340 343 343 343 339 340 341 344 343 338 337 337 337 335 333
315 311 314 314 315 314 316 312 313 319 321 320 320 321 322 323 324 324 326 330 331 334 337 347 351 354 358 358 356 350 345 343 340 339 345 342 345 345 343 339 344 344 343 342 339 339 338 333 334
310 311 305 312 314 314 314 306 314 319 318 317 319 320 321 322 323 325 326 332 337 338 341 347 341 352 358 357 354 348 343 342 338 338 340 344 344 343 341 341 344 346 344 343 340 335 334 334 330
308 302 305 308 314 313 311 308 315 319 318 317 319 320 319 321 323 327 327 330 336 341 346 345 350 348 356 358 351 351 353 341 338 338 339 341 342 342 343 342 343 345 343 339 337 336 339 334 332
300 302 304 304 310 312 310 309 314 317 316 316 317 318 319 320 321 326 329 331 336 344 349 350 349 354 358 352 354 345 340 339 338 338 338 340 341 341 343 342 341 342 338 336 337 337 336 336 336
305 304 304 307 312 309 308 309 312 315 315 315 316 318 319 319 322 326 327 332 333 339 343 348 348 353 351 347 343 339 336 338 337 338 340 341 341 343 342 340 339 339 339 338 336 335 329 333 336
303 302 303 307 310 308 308 308 312 314 314 315 316 316 317 319 320 323 327 329 336 337 341 342 344 353 352 348 346 341 340 336 336 337 341 341 340 341 341 339 337 338 339 335 333 333 331 331 336
302 301 302 303 308 309 307 305 308 312 313 314 315 316 317 318 320 322 324 329 335 337 339 340 342 348 351 350 345 343 340 338 335 334 336 339 339 339 339 338 337 337 336 334 335 334 331 329 331
298 305 305 304 303 298 307 297 305 309 310 312 314 316 317 319 321 323 323 333 334 336 339 341 344 347 347 348 343 347 335 330 332 336 335 336 336 336 336 337 336 337 336 335 334 334 332 331 328
301 306 305 304 302 301 301 298 302 308 306 309 313 315 317 319 321 321 323 333 334 337 339 343 344 343 344 346 346 336 338 333 333 333 335 338 339 336 333 335 335 335 338 335 334 332 331 335 333
305 303 304 304 302 295 300 299 299 304 307 310 314 316 317 319 321 323 332 333 334 337 340 340 339 340 340 339 339 341 336 334 331 332 332 335 335 334 334 333 334 335 335 334 335 333 333 335 335
304 301 294 292 293 293 302 299 301 308 310 311 312 314 318 321 325 327 329 330 333 335 336 337 337 336 338 337 337 338 338 337 335 333 333 332 332 335 334 333 334 335 336 335 335 334 334 335 333
301 301 295 289 291 295 302 296 302 311 313 314 315 316 322 324 326 327 329 331 332 334 335 335 335 335 335 336 337 337 338 333 332 333 332 332 331 332 334 333 335 335 334 335 336 339 337 335 336
300 298 304 299 301 297 300 303 309 311 312 313 314 316 317 324 327 328 330 331 332 332 333 335 335 334 335 335 336 337 337 334 335 336 336 333 336 331 332 333 333 334 334 333 335 336 334 335 334
302 305 297 300 292 291 297 298 299 306 309 311 313 316 321 325 327 328 329 330 332 332 334 335 335 334 333 335 335 335 335 335 336 335 333 333 333 331 331 331 333 333 333 333 335 335 335 334 333
300 299 301 302 300 294 292 296 307 308 310 312 314 318 323 325 326 327 328 330 331 332 333 334 332 332 333 334 335 335 335 333 335 334 333 332 333 331 330 330 330 330 331 335 336 335 333 331 334
303 302 302 297 296 299 298 298 312 312 313 316 317 321 324 325 326 327 328 329 330 331 332 330 331 330 332 332 334 335 335 335 335 334 333 332 331 330 329 329 329 329 332 333 333 331 330 331 331

GFSSGP_sfc_thetae_012.txt.gz
Theta_e
337 329 325 324 308 308 306 309 317 317 317 322 321 319 317 318 315 311 336 339 349 346 349 350 354 353 352 352 351 350 349 347 347 345 343 341 340 337 336 336 336 336 337 338 339 339 340 340 338
328 319 322 317 307 304 306 314 313 318 321 322 320 320 318 316 323 330 334 341 348 348 349 347 354 354 353 353 352 351 350 349 348 347 345 342 341 340 338 338 338 338 340 340 340 341 344 344 343
331 321 315 312 309 305 307 316 317 321 324 319 317 322 319 318 325 330 339 342 348 348 349 347 354 354 354 354 352 351 350 350 349 348 346 344 343 343 343 341 340 340 341 343 343 343 343 346 346
325 318 316 310 309 313 313 319 322 321 323 322 319 315 323 327 327 331 337 339 342 349 348 353 354 354 354 354 353 352 351 351 350 349 348 347 346 347 347 344 343 342 343 344 346 346 347 347 346
323 315 308 306 308 313 317 320 321 321 322 321 320 316 319 328 332 333 339 339 338 342 350 353 354 354 355 355 354 353 352 351 351 350 349 348 348 348 348 347 345 346 346 347 346 347 347 346 345
311 313 305 304 309 314 317 319 320 318 319 320 319 318 321 329 330 332 333 336 337 338 347 354 354 354 354 354 354 353 352 352 352 351 351 350 350 350 349 349 348 347 346 346 345 345 344 343 344
309 309 306 308 309 311 315 319 317 317 317 317 322 316 321 326 330 331 333 332 335 337 341 354 353 353 355 354 354 353 353 352 352 352 352 352 351 350 350 349 346 345 344 343 342 342 343 343 343
312 310 306 309 309 309 316 317 319 317 317 323 323 315 320 327 330 329 329 329 330 333 338 352 353 353 351 350 355 354 354 354 353 353 353 352 350 349 350 349 345 343 340 339 339 339 340 342 344
316 305 304 308 309 311 317 315 319 323 320 321 322 322 324 328 328 328 328 327 327 330 338 343 352 353 351 347 350 355 355 354 354 352 352 350 344 341 344 346 343 342 340 339 337 336 337 339 340
313 306 306 313 315 313 316 317 318 318 318 319 321 325 326 327 327 325 325 324 325 329 332 338 348 352 350 345 346 351 351 351 350 348 346 346 343 345 342 342 342 341 339 336 336 337 339 339 335
313 307 311 314 317 318 317 317 320 317 316 319 319 322 325 325 327 326 325 325 326 329 334 336 346 349 349 345 346 350 347 347 347 347 346 346 347 345 342 340 340 338 338 334 335 335 336 336 335
309 313 314 315 317 316 316 319 317 317 318 322 323 325 325 324 325 325 325 325 326 330 333 345 343 348 348 346 346 350 348 346 345 345 347 346 346 344 343 340 341 338 339 336 336 334 337 336 335
310 312 314 316 317 317 318 316 316 316 321 323 323 324 324 324 326 327 327 328 332 333 336 344 345 347 349 353 343 347 348 346 345 345 347 345 342 342 345 343 343 343 341 338 339 337 335 336 333
314 313 313 315 315 316 313 314 315 317 321 321 322 323 323 324 325 326 327 329 335 341 339 346 346 347 350 345 352 347 351 346 345 344 346 345 343 344 344 344 342 343 344 339 337 334 335 332 335
311 309 312 313 314 314 316 311 312 317 319 319 320 321 323 324 325 324 327 333 339 339 341 348 351 350 350 348 349 355 349 350 345 346 349 344 345 346 345 342 342 344 342 339 337 335 333 331 334
306 307 303 310 312 314 313 304 314 319 317 317 319 320 322 323 325 326 330 340 347 344 342 351 337 351 351 351 349 351 347 347 344 345 345 345 347 346 345 341 341 343 342 340 337 335 333 331 332
304 300 302 306 312 312 311 307 314 318 317 317 319 320 320 321 325 329 334 333 339 344 348 349 348 350 352 354 353 351 355 347 347 343 342 344 344 344 342 341 342 343 340 337 335 334 333 331 330
297 299 302 303 309 311 308 308 313 317 317 317 317 319 319 320 322 328 333 334 334 345 348 351 351 354 353 353 354 350 350 348 346 344 344 346 344 344 343 342 342 341 338 336 334 332 333 332 330
302 301 300 305 309 308 308 309 311 315 315 315 317 317 318 320 325 326 331 333 336 343 351 355 353 356 351 348 346 345 341 342 344 345 346 343 344 344 343 341 340 339 336 334 334 331 329 329 330
300 299 300 305 307 307 307 307 312 314 315 316 316 318 319 319 321 323 328 334 334 344 351 352 354 354 350 349 348 347 343 340 340 343 344 344 343 344 339 340 338 338 335 333 331 330 327 328 327
299 298 299 299 304 307 306 304 308 312 315 316 317 318 318 318 318 320 323 327 342 343 346 347 349 350 351 352 349 351 347 343 341 342 342 342 342 341 339 339 337 335 334 331 331 331 328 325 327
296 302 301 301 300 296 306 296 307 309 311 313 315 316 317 320 322 322 324 328 338 340 343 344 346 351 350 352 347 342 336 336 338 339 339 340 340 337 337 338 336 336 334 333 331 333 330 327 322
298 303 302 302 300 300 300 297 302 308 306 309 313 316 317 319 320 320 323 335 337 339 341 343 347 348 349 348 344 341 340 341 341 339 340 340 340 338 336 336 336 334 334 334 332 331 329 329 326
304 301 301 301 300 294 300 298 299 303 306 310 314 315 318 319 321 324 333 335 336 339 341 345 345 345 343 343 343 342 343 340 336 336 336 337 337 337 336 334 333 334 334 334 333 332 330 328 327
300 299 292 290 291 291 301 298 301 308 310 311 312 313 317 323 327 330 330 332 334 337 340 340 340 337 341 341 340 343 342 341 338 337 337 334 334 335 334 334 330 332 335 335 334 333 331 329 328
298 299 293 286 288 292 300 295 300 311 313 315 314 316 320 324 328 329 331 331 334 337 337 336 337 336 338 338 340 342 342 337 339 338 335 335 334 333 335 331 332 335 335 334 334 333 333 332 330
297 294 301 296 298 294 299 303 308 311 311 313 313 315 323 325 327 329 331 332 334 335 336 336 336 336 337 338 340 340 341 337 338 338 339 336 335 333 334 333 334 335 334 334 332 330 332 332 333
299 302 294 297 289 290 295 299 299 306 308 311 312 316 323 326 327 329 330 332 334 335 336 337 336 335 336 338 338 336 338 338 338 338 337 335 335 335 334 331 334 334 332 331 332 333 333 332 332
297 296 298 301 298 292 292 296 308 307 309 311 313 320 324 325 326 328 330 332 334 334 336 336 335 334 335 336 338 337 336 333 334 335 334 334 335 333 332 331 330 330 329 332 333 332 332 331 331
301 298 299 295 294 298 298 298 314 313 312 315 318 322 324 326 326 327 329 330 330 332 333 333 333 331 334 334 335 336 336 333 335 335 331 335 334 333 332 331 328 330 331 333 330 331 330 330 330

GFSSGP_sfc_thetae_015.txt.gz
Theta_e
335 333 323 319 302 301 298 303 310 314 315 318 316 315 311 314 313 309 327 341 341 343 348 351 354 353 352 352 351 349 348 347 346 345 342 341 340 338 337 337 336 336 336 337 337 338 339 339 338
328 322 315 312 299 297 298 308 311 315 319 320 318 314 312 316 328 327 331 342 342 343 346 347 354 353 352 352 350 349 349 348 347 346 343 341 341 340 338 338 337 337 338 339 339 340 341 343 343
332 326 305 303 302 299 300 309 313 319 322 320 318 317 316 316 327 329 332 344 343 343 344 346 354 353 353 352 351 350 349 349 349 346 345 343 343 344 343 341 340 340 340 342 342 342 342 343 346
323 315 307 301 303 308 308 313 319 319 321 323 322 313 320 327 325 329 341 344 343 343 342 351 353 353 352 352 351 351 350 350 349 349 346 345 345 347 346 343 342 342 342 342 344 346 347 345 346
319 310 297 298 302 309 312 314 318 317 320 321 321 315 317 325 330 332 338 345 343 341 340 348 353 354 353 353 353 351 351 350 350 350 349 348 349 348 348 345 344 344 345 346 346 346 346 345 345
305 305 296 296 303 310 313 315 317 318 320 320 316 317 316 325 326 329 332 340 343 341 341 346 352 354 353 353 353 352 351 351 351 350 350 350 350 350 348 347 346 347 347 347 346 345 345 346 344
304 299 297 300 303 307 312 316 312 311 312 314 315 313 317 321 323 325 325 326 341 342 344 346 346 351 355 353 352 352 351 351 351 350 350 350 350 350 350 350 350 348 347 345 344 343 343 344 344
308 300 297 299 303 304 313 315 314 312 313 321 321 312 310 319 324 323 322 320 319 342 345 345 345 345 346 348 354 353 352 351 351 350 350 351 351 350 350 348 349 346 345 343 343 340 340 340 344
314 296 294 299 302 306 314 312 317 319 317 319 320 319 321 324 322 318 316 318 316 338 345 345 345 344 343 344 350 353 354 352 352 351 351 349 343 342 343 346 348 346 344 343 342 340 338 338 340
314 300 299 305 306 307 311 312 314 315 314 315 319 323 325 325 321 318 316 313 314 317 342 345 345 344 343 343 344 347 348 348 348 347 346 343 339 333 338 342 349 346 346 344 341 339 338 337 332
311 307 309 309 309 311 311 312 316 314 311 315 314 319 322 322 322 318 316 315 315 317 330 344 345 345 344 342 343 345 345 346 346 344 342 341 338 335 337 333 338 335 342 332 334 332 332 332 332
305 309 311 311 312 311 309 313 313 314 313 317 318 318 319 318 317 317 316 317 317 317 318 342 345 345 343 341 341 343 342 343 343 342 339 339 337 335 333 332 333 331 330 329 329 329 330 331 333
307 309 310 312 312 312 313 311 312 313 317 318 318 318 317 317 318 318 319 319 319 317 321 335 343 345 343 337 341 342 341 341 341 341 339 337 336 332 331 331 331 331 331 330 331 329 331 332 330
303 308 310 311 310 311 310 311 312 313 316 316 316 315 316 317 318 317 318 318 318 318 320 331 339 343 342 338 341 342 342 341 340 340 340 338 335 331 333 334 333 331 332 330 329 329 329 327 328
303 300 303 307 309 309 312 307 308 314 315 314 314 315 316 316 318 318 317 318 319 322 322 333 335 338 340 339 337 341 342 341 339 337 339 339 336 333 334 332 331 332 332 331 329 329 329 327 327
300 300 295 302 305 308 309 301 309 313 313 312 314 316 316 316 318 318 319 319 323 322 323 329 339 339 340 338 340 339 341 340 338 337 340 339 336 335 334 331 330 333 333 331 329 327 327 326 325
296 292 294 298 305 305 305 302 308 312 312 311 313 314 315 316 316 317 320 321 322 324 322 331 337 340 340 339 338 340 339 336 335 334 334 339 338 338 333 332 330 333 331 330 329 328 327 324 324
291 293 296 296 302 304 303 302 307 310 311 311 312 313 314 315 316 317 318 321 320 321 328 329 332 341 342 344 339 340 340 335 334 332 333 336 337 337 334 332 331 332 330 329 328 326 326 325 324
296 296 295 299 304 302 301 302 305 309 309 309 309 309 312 312 315 316 319 321 320 321 326 330 335 342 345 342 340 337 335 332 332 333 336 336 336 335 333 331 331 330 327 326 326 325 323 321 322
296 293 293 298 303 301 300 300 305 307 307 308 309 310 311 312 313 315 316 318 320 321 331 336 341 343 343 343 340 337 334 331 331 333 332 334 333 332 333 331 331 327 326 325 324 323 320 320 320
294 293 293 294 299 300 298 296 300 305 307 310 311 310 311 312 310 312 313 313 318 333 336 340 343 342 340 342 341 336 331 331 329 329 331 332 333 332 331 329 328 327 326 323 322 322 320 315 318
290 298 298 297 295 289 298 288 297 301 304 307 309 310 310 312 313 314 313 312 329 333 336 336 340 341 341 341 337 333 328 325 327 326 329 332 331 331 330 329 328 326 324 323 322 324 320 318 315
293 300 297 297 294 292 294 290 293 301 300 303 306 308 309 310 311 312 313 318 331 333 333 335 339 338 340 337 333 328 327 328 328 328 327 327 327 329 329 328 327 325 325 323 323 322 321 320 317
298 296 296 295 292 286 292 292 293 296 300 304 306 309 310 313 313 316 328 330 331 334 335 337 336 335 335 334 330 328 328 326 326 325 325 326 326 326 326 327 325 325 324 324 324 322 322 323 321
293 290 283 283 284 284 293 291 294 300 304 306 306 307 313 320 322 324 326 328 331 334 336 335 331 331 332 330 330 328 327 326 325 323 324 324 324 323 323 324 323 324 326 327 326 323 321 321 321
288 290 284 278 281 285 294 288 293 304 307 308 309 307 319 321 323 324 325 328 332 333 332 330 328 329 328 330 329 329 327 326 325 325 325 324 323 323 323 323 324 326 327 327 326 325 323 323 322
288 285 294 287 290 287 290 294 299 303 304 307 308 310 317 320 322 324 326 330 330 329 329 328 328 328 328 329 329 327 328 327 326 325 324 324 323 324 323 324 325 326 327 327 324 323 322 324 322
292 293 286 288 281 280 288 291 293 300 302 305 306 313 316 320 322 323 326 328 329 328 329 328 328 327 328 329 328 327 328 327 326 325 324 322 323 325 324 323 325 325 328 327 325 323 325 324 323
290 287 289 289 288 284 283 289 302 304 303 303 305 316 316 319 321 324 326 328 327 329 328 327 327 327 327 327 326 325 327 327 325 325 323 322 323 322 322 324 326 327 326 326 325 324 325 324 324
294 291 290 285 286 289 288 290 304 304 303 309 313 317 318 321 322 324 325 326 326 327 327 326 326 326 327 328 327 326 325 327 325 324 326 323 321 322 322 324 326 329 328 325 325 324 324 324 324

GFSSGP_sfc_thetae_018.txt.gz
Theta_e
336 329 322 318 301 299 296 300 306 309 312 316 315 313 312 312 313 308 328 337 340 343 349 352 354 354 353 351 350 349 348 347 346 343 340 339 338 337 336 336 335 335 335 336 336 336 337 338 337
326 322 313 311 299 295 298 303 305 313 317 321 320 316 315 317 326 329 332 340 340 345 347 348 354 354 353 351 350 349 348 347 346 344 341 339 339 338 338 337 337 337 337 337 338 338 339 341 342
328 326 304 301 299 297 299 307 312 317 321 320 317 321 317 320 328 329 335 341 342 344 346 347 354 353 353 351 350 348 348 348 347 344 343 342 341 342 341 339 339 339 340 341 341 341 341 341 344
321 314 305 298 299 304 306 311 314 317 320 321 320 317 319 323 327 331 342 342 341 343 344 351 353 352 352 352 350 349 348 349 348 346 345 344 343 344 343 341 341 341 341 342 343 345 345 344 344
317 307 296 296 299 306 311 313 312 315 317 318 320 316 315 324 330 341 341 341 339 339 342 349 353 352 352 352 351 350 349 349 349 349 347 346 347 346 344 343 343 343 343 344 345 346 347 345 345
305 303 294 294 299 306 310 312 311 316 319 319 318 318 316 324 330 339 341 340 340 338 339 346 353 352 351 352 351 350 349 349 349 350 349 349 349 348 346 345 344 345 346 347 347 347 346 345 345
303 298 294 297 300 304 309 314 312 311 314 316 318 315 317 320 324 335 340 340 340 338 339 343 346 349 352 351 350 350 349 349 349 349 349 349 349 349 349 348 347 347 348 348 346 345 344 344 344
306 299 294 297 299 301 310 311 312 312 313 320 319 311 311 319 323 321 326 336 337 337 339 339 340 343 345 346 352 350 349 349 348 349 349 349 350 349 349 347 349 348 348 347 346 344 341 341 342
312 295 292 297 300 302 309 308 316 319 315 318 319 317 319 323 324 317 316 316 333 337 339 340 339 339 342 342 347 350 351 350 349 349 349 347 344 344 344 347 347 349 349 347 345 343 341 339 339
311 296 296 302 305 302 306 307 309 311 312 314 316 321 322 322 318 317 315 314 326 333 339 341 341 338 339 340 341 345 344 344 344 343 343 342 340 338 342 343 349 349 349 346 344 343 340 336 330
311 307 309 308 309 308 306 308 311 309 308 312 313 315 320 320 319 318 317 316 315 328 339 341 341 340 337 335 338 343 342 342 342 341 341 341 339 335 335 333 340 342 345 337 340 336 332 330 330
305 311 314 315 315 311 308 311 309 310 310 315 316 317 317 317 317 316 316 316 315 316 336 341 341 340 339 336 336 340 340 341 341 341 340 339 333 330 330 330 331 331 332 330 327 326 328 329 331
300 307 311 310 310 312 312 309 309 310 314 317 317 316 314 313 314 315 316 316 316 315 317 339 341 340 340 338 338 338 338 340 341 340 339 338 334 332 331 330 329 329 328 328 326 327 328 328 328
299 300 302 306 308 309 307 308 310 312 316 315 314 313 313 312 314 314 315 315 315 316 316 334 340 341 341 339 337 338 338 337 338 339 338 337 335 333 331 329 328 329 328 328 328 327 327 327 327
301 297 299 301 301 303 310 305 306 312 314 312 313 312 313 313 314 314 315 315 316 317 318 328 338 341 340 338 336 338 338 339 338 337 337 337 335 332 331 330 331 329 329 328 327 327 326 326 327
296 295 291 299 301 303 303 296 307 311 310 310 312 313 314 314 316 316 316 315 315 315 317 324 337 340 339 338 336 339 339 339 338 336 337 337 336 333 331 331 328 330 330 328 327 325 324 324 324
293 290 291 295 301 301 301 298 306 310 309 307 309 310 312 314 314 314 317 317 318 319 319 322 331 335 337 337 335 338 338 339 337 336 337 337 336 335 333 331 329 330 329 328 327 326 324 322 322
288 290 293 293 298 300 299 299 304 307 307 307 309 310 311 312 313 316 316 318 317 318 317 320 332 333 335 333 335 334 334 333 334 335 337 336 336 336 332 330 329 329 328 327 326 325 324 323 321
294 293 293 295 300 299 299 299 302 305 306 306 307 309 310 309 313 314 315 316 318 316 318 321 330 332 336 335 336 335 333 331 330 332 335 335 335 335 330 330 329 329 327 325 325 323 322 320 320
292 290 290 295 298 297 297 297 301 304 305 306 306 308 308 309 311 314 314 315 316 316 316 323 329 337 338 338 337 335 332 329 330 330 333 333 334 333 331 329 328 327 324 324 321 322 318 318 319
291 289 290 291 296 298 295 293 296 301 302 304 306 308 309 309 309 310 311 312 311 315 320 327 333 338 339 336 335 331 329 327 326 327 329 330 332 332 331 328 327 325 324 321 320 320 318 315 316
287 294 295 294 292 286 295 285 294 297 299 302 304 305 305 307 311 310 312 309 311 322 331 335 336 337 337 338 336 333 327 324 325 326 326 328 330 330 330 328 326 324 322 320 321 322 319 316 313
289 296 294 294 290 288 290 286 289 297 297 300 303 306 305 307 308 309 311 310 323 331 334 337 337 338 337 335 333 330 326 324 325 326 326 324 325 327 328 327 325 323 322 321 321 321 319 317 315
294 292 292 292 288 282 289 288 287 292 296 300 302 305 307 306 308 311 320 327 328 332 336 336 337 333 334 332 328 328 325 325 324 323 324 323 324 326 325 326 323 322 322 321 323 322 320 318 317
289 283 278 278 279 281 291 288 291 295 299 301 302 304 305 315 318 321 323 326 329 331 332 333 333 329 328 327 326 326 324 325 323 323 323 322 324 320 321 321 322 322 322 324 323 321 320 319 318
285 283 279 275 277 282 291 285 290 299 302 304 305 305 316 318 320 322 325 329 330 331 329 329 329 325 327 326 325 325 324 324 323 323 322 321 321 321 320 321 321 323 325 326 325 322 321 320 321
286 283 286 282 286 282 286 291 295 299 300 301 302 313 315 317 320 324 328 329 328 327 326 327 325 326 326 326 324 324 324 324 322 322 322 322 321 322 322 322 323 325 325 326 324 322 321 321 321
289 291 282 281 277 276 284 287 289 295 298 301 300 311 314 318 320 325 327 326 326 326 325 325 326 326 326 324 326 325 324 323 323 322 321 320 320 321 322 321 323 323 324 325 324 322 321 320 321
286 285 285 285 283 279 279 284 295 296 299 300 301 314 317 318 321 324 325 326 326 326 325 324 325 326 325 323 324 324 323 323 323 322 321 320 321 321 322 322 322 323 324 324 323 322 321 323 322
290 287 287 279 280 285 284 286 299 298 301 301 313 316 317 319 323 324 325 326 325 324 324 323 324 325 324 323 323 323 323 322 322 321 320 320 319 319 320 321 323 326 326 324 322 322 323 322 322

GFSSGP_sfc_thetae_021.txt.gz
Theta_e
338 331 319 317 300 297 294 298 304 306 309 314 314 311 310 312 312 305 326 336 340 341 349 353 356 354 353 352 350 349 348 347 345 342 340 338 338 336 336 335 334 334 334 335 336 337 337 337 336
325 321 312 309 296 291 293 302 304 308 315 317 315 314 316 316 323 327 327 339 342 344 348 349 355 354 353 352 350 349 348 347 345 343 340 339 338 338 337 336 336 336 337 338 337 337 337 339 340
326 323 304 301 297 294 296 304 310 314 318 317 315 317 317 319 327 329 332 339 343 344 347 347 354 354 353 352 351 349 348 348 346 343 342 341 340 340 339 338 338 338 338 339 340 340 340 340 341
319 313 305 297 296 301 303 307 312 311 317 317 317 315 317 324 329 329 339 340 341 343 345 349 353 354 353 352 351 349 348 348 347 346 344 343 342 343 342 339 340 340 341 342 342 343 343 343 343
315 304 294 294 297 303 308 309 309 308 315 315 316 314 314 324 328 338 339 339 338 341 343 346 353 353 353 352 351 349 348 348 347 347 346 344 345 344 342 341 342 341 342 342 343 344 345 346 345
305 302 293 292 296 303 308 309 310 311 316 316 314 316 314 322 329 337 339 337 337 339 340 345 352 353 352 352 351 349 348 348 348 348 347 347 346 346 343 343 343 343 343 344 345 346 347 347 346
301 297 293 295 298 302 308 309 309 308 310 311 316 314 315 319 324 333 336 335 335 337 338 343 345 349 353 351 350 349 348 348 348 348 347 348 348 347 346 346 344 344 345 346 346 347 346 345 345
305 299 294 296 297 299 309 309 311 311 311 317 319 311 310 318 324 325 335 334 334 332 335 339 342 343 343 345 351 350 349 348 348 348 348 348 349 349 348 347 347 345 347 348 348 346 344 343 342
306 294 292 296 298 301 307 310 315 316 313 313 316 316 319 322 321 318 322 328 332 334 331 336 338 340 339 341 345 350 350 350 349 348 348 346 342 343 342 346 345 346 348 347 347 345 344 341 340
309 295 295 300 302 301 305 306 313 314 313 311 312 318 320 320 318 314 313 317 330 332 333 336 336 336 337 338 338 343 342 342 343 341 340 341 337 337 341 343 346 346 348 347 346 345 342 340 329
308 304 306 304 304 307 307 307 307 308 306 310 309 313 316 316 316 314 314 313 317 332 334 337 337 334 335 334 335 341 341 340 341 339 336 337 337 336 339 333 336 339 346 339 340 338 336 329 328
304 310 312 312 315 314 312 311 310 308 308 312 314 315 315 315 315 314 314 314 313 319 332 337 338 336 333 333 333 335 338 338 339 339 337 338 335 331 330 330 329 335 335 335 331 330 328 328 329
299 305 309 311 309 309 313 311 310 310 313 314 314 315 314 314 314 313 315 315 314 311 321 334 338 337 336 331 330 333 336 335 337 338 339 338 334 332 328 327 328 329 330 330 327 325 325 325 326
297 298 301 302 303 306 306 307 309 310 314 313 314 313 313 312 312 311 311 312 313 315 313 328 337 338 338 334 330 331 335 334 336 338 338 337 334 330 328 327 328 327 327 327 327 325 325 325 326
298 294 297 298 298 299 303 300 302 309 313 311 312 313 313 311 312 312 313 312 314 316 316 320 335 338 337 336 334 332 333 334 335 337 338 337 333 330 329 329 329 327 328 327 325 325 325 324 324
294 294 291 298 300 301 301 295 306 309 310 310 310 310 311 312 313 314 313 312 314 314 314 315 331 336 337 337 336 335 335 334 334 336 336 335 334 333 331 331 330 330 327 326 325 324 324 327 322
290 287 288 292 299 299 300 297 304 307 307 306 308 309 310 310 310 311 314 315 315 315 315 314 324 334 336 337 336 335 335 336 335 334 335 335 334 333 332 329 329 328 327 326 325 323 322 320 320
287 288 291 291 296 298 296 297 302 304 304 303 305 306 308 309 310 313 314 315 314 313 314 315 325 333 335 335 330 331 332 335 334 334 335 336 334 334 331 330 328 327 326 326 324 324 322 322 320
290 289 289 293 297 296 295 296 299 301 303 303 305 306 307 306 310 312 313 314 313 313 314 315 324 327 332 331 330 329 332 331 332 334 336 335 334 334 333 329 327 327 326 326 324 322 321 321 323
289 287 287 292 296 294 293 293 297 300 301 303 304 305 305 306 308 310 312 313 313 314 314 314 321 327 332 333 334 330 333 329 329 332 334 335 335 334 331 328 327 326 325 323 322 320 317 318 319
287 287 288 288 293 295 293 291 293 298 300 302 303 303 304 305 306 309 310 310 312 311 313 315 321 329 331 331 330 327 327 327 325 328 330 331 332 332 330 328 327 325 324 322 320 319 318 316 314
284 290 292 292 289 284 292 283 291 295 296 299 300 300 302 305 306 307 309 308 308 311 311 316 323 330 332 332 330 329 326 326 323 329 326 327 330 330 329 328 326 324 322 320 319 320 318 316 313
286 292 291 290 287 286 288 283 289 293 292 296 299 301 303 304 306 305 307 307 307 311 324 328 331 333 333 331 330 327 324 323 324 326 324 328 325 328 328 328 326 322 320 320 320 319 317 317 315
291 289 289 288 286 279 286 286 287 290 293 295 299 300 303 303 304 307 319 322 323 331 331 332 333 331 331 331 328 327 324 324 324 324 323 322 322 325 328 325 323 321 320 320 320 320 319 318 316
288 281 276 276 277 279 288 286 288 293 296 297 297 299 301 302 309 317 315 322 327 330 330 332 331 327 326 326 325 325 324 324 324 323 323 321 322 320 320 321 320 319 321 321 321 320 319 317 317
283 283 277 274 276 279 288 283 288 296 299 301 301 301 301 309 317 319 321 324 327 327 328 329 326 324 324 325 323 322 323 323 324 323 322 321 321 320 320 320 320 321 322 323 322 321 320 318 318
285 280 285 279 282 278 283 288 294 297 298 299 299 300 306 315 317 322 324 325 325 324 324 325 324 322 322 322 322 321 322 322 322 321 320 320 320 320 320 320 320 321 322 323 322 321 320 320 319
287 289 280 278 275 275 281 284 286 291 295 297 298 298 307 315 320 323 323 323 322 323 323 324 324 322 322 323 324 323 321 321 321 321 320 320 319 319 320 319 319 321 323 324 321 320 319 319 319
285 283 284 282 280 277 277 281 292 293 295 296 300 299 312 317 322 322 322 323 323 322 323 323 323 323 322 323 322 322 321 321 321 320 319 318 318 319 320 321 320 321 321 323 320 321 320 321 319
290 285 285 278 278 281 281 283 295 294 296 301 302 307 315 320 322 322 323 323 323 321 323 323 323 322 322 322 321 320 320 320 319 319 318 319 319 319 320 320 320 323 323 322 321 322 323 321 321

GFSSGP_sfc_thetae_024.txt.gz
Theta_e
337 332 316 314 298 297 292 296 301 303 308 312 311 311 314 314 311 305 324 336 337 340 350 354 356 355 354 352 352 351 350 348 346 345 344 342 342 339 337 337 335 335 334 335 336 336 337 336 336
326 320 311 307 294 290 292 300 301 305 312 316 314 314 314 312 320 323 324 337 338 343 349 350 356 355 354 353 351 350 349 348 346 345 344 343 342 341 337 336 336 335 335 336 337 337 338 338 339
323 319 304 301 296 293 293 303 306 311 314 315 312 316 317 316 325 327 330 339 341 343 347 347 356 355 354 353 351 350 349 348 347 345 345 344 343 342 341 338 337 337 338 338 338 338 338 338 340
318 311 304 295 295 300 300 306 309 308 313 317 315 312 316 324 327 329 337 342 341 342 345 349 355 354 354 354 352 350 349 348 347 346 346 345 343 343 342 339 339 339 339 340 340 341 341 341 341
313 304 294 292 296 301 305 307 305 306 310 315 315 312 313 321 328 336 337 341 339 341 343 346 355 354 354 354 352 351 350 348 348 347 346 345 345 344 342 340 340 341 342 342 343 343 344 345 345
303 301 291 291 296 301 304 306 306 307 313 311 313 313 313 319 326 334 338 335 337 340 341 343 353 353 353 353 352 350 349 349 348 347 347 346 346 345 343 342 342 342 343 343 343 344 345 348 346
302 296 293 294 297 300 304 307 306 306 308 309 315 312 313 316 325 335 336 335 336 338 339 340 346 350 354 352 351 349 349 348 347 347 346 347 346 346 345 345 344 343 345 345 345 347 347 346 345
304 299 293 295 296 298 305 306 310 309 309 315 316 308 309 316 323 334 334 333 331 333 337 337 342 345 345 346 352 350 349 348 348 348 347 347 348 347 347 345 346 345 346 346 346 346 346 344 343
303 294 291 295 297 299 305 304 311 315 312 312 314 313 316 319 319 324 328 330 332 332 331 334 338 340 342 342 345 350 350 350 349 348 348 346 342 343 343 345 346 346 348 347 348 347 346 342 341
301 293 294 299 302 301 303 303 306 307 308 310 312 314 317 319 316 315 316 324 328 331 332 332 336 338 338 339 339 343 342 343 343 343 343 342 340 340 342 344 346 346 347 348 347 347 344 341 336
307 301 299 301 303 304 304 305 308 307 304 308 310 311 314 314 314 314 313 316 323 332 333 333 334 336 336 336 335 339 341 340 341 341 340 341 339 340 342 338 341 341 345 343 345 343 340 336 332
302 309 309 307 310 312 310 313 311 310 309 312 312 313 312 312 312 312 312 313 313 316 331 334 334 334 334 334 333 334 338 338 338 339 338 338 337 336 337 335 333 335 339 340 338 336 335 334 332
303 305 310 312 311 311 312 310 311 311 315 315 314 314 312 312 312 313 313 313 313 313 318 329 335 334 333 332 331 332 334 335 335 337 338 337 336 334 334 333 330 331 334 336 334 332 331 330 329
296 298 300 303 305 305 306 307 307 310 313 312 313 312 313 312 312 311 310 311 312 313 313 318 333 336 335 331 331 330 331 334 333 335 338 337 335 333 331 330 329 329 330 333 333 330 329 328 329
296 293 294 296 297 299 302 300 302 308 310 309 310 312 312 312 312 311 313 311 312 314 314 313 325 335 335 334 331 329 330 332 332 333 337 337 335 331 331 329 328 329 330 330 329 329 329 328 328
293 293 289 297 297 300 302 296 304 308 308 308 310 310 310 310 311 311 312 311 312 312 312 313 321 332 335 335 334 331 330 331 332 333 336 337 334 332 330 328 328 329 330 329 329 328 327 328 328
288 287 286 291 297 297 298 296 302 306 306 304 304 306 307 309 310 310 312 312 312 312 313 313 317 327 333 335 336 334 332 331 332 334 336 337 334 333 331 330 331 332 331 329 328 327 328 327 326
285 285 289 289 294 296 294 295 299 303 303 302 303 304 305 306 307 309 310 312 313 312 312 312 313 321 330 333 333 331 331 333 333 333 335 335 335 334 332 331 331 331 329 328 328 328 327 327 325
288 287 287 291 295 293 293 294 297 299 299 300 302 303 305 306 308 309 311 312 312 312 312 313 313 320 331 331 329 328 330 331 332 334 334 334 334 334 332 331 330 329 329 329 329 327 326 325 326
287 285 285 290 294 292 291 291 294 296 297 298 300 302 302 303 305 307 309 309 310 312 313 313 314 324 331 332 330 330 330 330 332 333 335 335 335 334 333 331 330 329 328 328 327 325 322 323 324
285 285 286 287 291 293 291 290 292 297 298 299 300 301 302 303 304 306 306 307 309 309 311 313 314 323 329 330 329 327 327 327 327 330 332 334 335 334 333 331 330 328 329 327 325 324 323 321 319
282 289 289 290 287 282 290 282 290 294 295 297 298 299 301 300 304 305 307 307 309 309 309 311 314 322 328 330 329 328 324 323 325 329 330 332 334 333 332 330 329 328 327 325 324 324 322 321 318
285 290 288 288 284 282 285 282 288 291 290 293 297 298 299 301 301 303 305 306 306 309 308 311 317 327 329 330 329 327 325 323 326 327 328 329 329 331 330 329 329 328 326 325 323 323 321 321 320
290 287 287 286 283 277 283 283 284 287 291 295 296 297 299 299 300 302 304 320 322 329 328 329 328 328 329 329 327 325 324 325 325 325 325 325 326 327 328 329 328 326 324 323 323 324 322 321 320
286 280 275 274 275 276 285 283 286 290 294 295 296 298 299 300 300 301 315 321 328 328 330 330 329 326 326 327 326 325 326 326 325 325 323 323 323 324 326 325 324 324 323 324 324 323 323 322 320
283 281 275 274 274 277 286 281 285 294 296 297 298 297 298 298 300 313 318 326 328 329 328 326 326 324 325 325 323 324 326 326 326 326 325 324 322 323 324 325 323 323 324 324 324 324 323 323 321
283 280 284 278 279 276 281 285 291 295 295 296 296 297 297 298 310 320 324 327 325 324 323 324 323 323 323 323 323 323 324 325 323 322 323 323 322 323 323 323 322 323 324 325 325 324 324 324 322
286 287 278 276 274 274 279 281 283 289 291 295 296 297 298 306 319 321 323 322 321 322 322 322 322 322 322 322 323 323 323 324 323 323 322 322 322 322 322 322 323 324 325 326 326 325 324 323 322
286 281 282 279 278 276 276 279 290 291 293 294 301 310 300 312 320 322 321 321 320 322 322 321 322 322 322 322 322 322 322 323 323 322 322 322 321 321 322 323 323 324 325 325 324 324 324 323 323
287 284 283 278 277 278 278 279 292 292 294 296 298 311 311 319 321 321 321 320 320 320 321 320 321 321 322 322 322 321 321 321 321 320 320 320 320 321 323 323 323 324 324 325 324 324 325 323 323

GFSSGP_sfc_thetae_027.txt.gz
Theta_e
337 334 322 321 306 306 299 302 306 307 312 318 317 319 321 323 319 316 336 342 343 345 352 356 357 357 356 355 354 354 354 353 353 352 351 349 348 345 342 342 340 338 337 336 336 336 336 336 336
335 321 319 314 301 297 299 304 306 311 317 319 320 319 320 318 325 328 332 343 344 349 353 350 357 356 356 354 353 352 351 351 350 349 348 346 345 344 341 340 338 338 337 338 339 339 339 338 339
324 320 312 309 300 297 300 306 308 315 317 316 319 321 322 321 328 332 338 344 345 349 352 353 357 356 356 354 353 352 350 349 348 347 346 346 345 344 343 341 340 338 338 339 339 339 339 340 341
322 318 311 302 300 304 304 312 314 313 317 319 321 317 322 328 331 336 342 344 346 348 349 352 356 355 355 355 353 351 350 349 348 347 347 346 346 344 343 342 342 339 340 340 340 341 341 341 341
319 311 302 299 300 305 309 312 313 312 314 318 320 317 320 328 337 342 344 345 345 347 350 349 356 355 355 355 353 351 350 349 348 347 347 347 346 345 344 343 341 340 341 342 342 343 344 344 344
309 309 298 295 299 304 308 312 311 313 316 317 318 319 321 327 335 342 344 345 346 347 350 348 355 354 354 354 353 351 350 349 349 348 348 347 347 346 345 345 343 342 343 344 345 345 345 345 345
306 304 297 298 298 302 305 312 310 313 314 316 321 317 323 325 332 342 344 345 346 347 348 347 349 353 354 353 352 351 350 349 348 347 347 347 347 346 346 346 345 346 346 347 347 346 346 347 346
310 307 299 299 297 299 308 312 315 315 315 320 321 314 316 323 338 342 342 342 342 345 345 345 347 349 348 348 353 351 350 350 349 348 348 347 347 347 346 345 345 346 347 347 347 346 347 345 344
310 301 298 299 299 301 309 308 315 317 316 317 319 320 322 326 337 339 339 339 340 340 344 345 344 348 347 345 347 352 352 350 349 348 348 346 341 343 343 343 346 347 348 347 347 347 348 345 342
308 302 301 304 304 304 307 308 310 310 312 312 316 318 321 324 324 324 327 330 337 340 341 342 345 345 347 342 347 348 346 346 347 345 346 345 344 344 341 344 346 348 348 347 348 348 346 343 340
310 302 306 306 305 307 306 306 309 309 309 313 313 316 319 320 322 322 322 324 325 331 340 342 344 346 346 344 344 346 348 347 349 347 348 348 345 344 343 341 343 343 346 345 347 346 344 342 341
305 309 309 308 307 305 304 308 308 311 312 317 319 321 320 319 320 321 321 322 324 327 331 344 344 345 348 345 343 342 342 344 343 344 349 347 344 343 344 340 341 343 340 344 346 345 345 344 342
305 307 311 312 313 311 314 312 312 314 318 320 320 319 319 319 320 322 323 325 326 326 330 332 344 345 346 347 344 342 343 343 343 342 345 346 342 343 342 342 340 341 340 341 344 344 344 342 341
304 305 307 311 313 314 311 311 313 314 317 316 317 317 318 319 320 321 323 324 328 328 330 332 337 348 347 345 346 344 343 343 343 342 344 346 343 342 339 340 338 338 338 338 342 343 343 341 340
301 298 301 302 307 309 311 306 308 313 314 313 313 315 317 319 320 320 324 327 328 329 331 335 336 342 348 347 346 344 342 341 342 340 346 344 345 344 343 338 338 339 339 341 342 341 341 340 339
296 297 293 301 301 303 304 298 307 311 311 310 312 314 316 318 320 322 323 327 329 329 331 334 327 333 347 348 346 343 342 340 340 340 340 343 344 343 341 337 337 340 340 338 338 339 337 338 338
295 291 293 296 303 302 301 300 307 311 311 311 313 314 314 315 318 323 322 324 329 332 333 333 333 330 344 347 345 345 345 340 339 340 339 342 342 341 338 337 338 341 335 336 339 338 338 341 340
289 290 293 294 299 300 299 300 305 308 308 308 310 311 311 313 315 320 322 324 326 331 334 335 332 333 338 340 344 342 341 338 339 339 340 342 342 340 341 339 340 338 336 336 339 339 340 341 339
293 292 292 296 300 299 298 299 302 305 306 306 307 308 310 311 315 318 320 324 326 332 333 335 332 335 331 336 337 338 337 339 338 340 342 342 342 341 341 338 339 338 337 338 340 339 339 336 335
292 290 290 294 297 296 298 297 301 303 303 305 306 307 308 310 312 316 319 323 326 328 330 333 332 334 334 337 341 340 340 340 341 340 341 343 342 343 341 340 338 339 336 341 338 336 333 333 330
291 290 291 290 294 297 296 294 298 302 304 305 306 308 309 310 311 314 316 320 324 326 329 330 332 333 337 340 341 341 341 337 336 339 340 342 342 342 342 340 337 337 340 337 336 341 337 331 327
287 292 292 292 291 288 296 286 295 299 300 302 304 306 308 309 311 313 315 319 322 323 325 325 327 330 336 342 340 340 337 334 336 335 340 339 343 341 341 339 338 340 339 335 340 339 337 334 328
288 293 291 291 289 289 290 287 292 298 297 300 303 305 307 309 310 310 312 315 318 320 325 337 333 328 335 341 342 340 339 339 340 340 337 336 341 343 340 340 341 342 337 337 340 337 334 332 330
293 291 291 291 289 282 288 288 290 294 296 299 302 304 307 309 310 311 312 315 318 331 335 336 335 333 337 340 341 342 341 339 337 338 334 337 340 340 341 341 342 342 340 339 336 336 335 333 331
290 287 281 280 281 280 290 287 290 297 299 300 302 304 307 309 311 313 312 318 330 333 334 333 336 336 338 339 340 341 341 340 340 339 338 338 337 338 339 341 340 338 338 336 335 335 334 333 331
289 287 282 276 278 282 288 284 290 299 302 303 304 307 308 310 312 311 318 329 331 334 333 337 337 337 339 338 338 340 340 339 339 340 338 336 337 337 339 339 338 336 335 335 335 333 333 334 332
289 285 290 284 286 283 286 289 295 298 300 302 305 308 310 318 314 314 327 331 331 332 337 338 338 337 337 337 337 337 338 339 339 339 340 337 338 336 337 336 335 334 334 335 335 333 334 334 333
291 293 284 285 278 277 284 286 289 295 298 301 303 307 312 318 316 324 327 329 332 337 337 338 338 336 336 336 337 336 337 338 337 338 337 337 336 336 335 334 334 333 334 334 336 337 336 334 332
286 288 288 288 286 281 282 287 297 298 299 299 302 305 317 315 321 324 327 330 334 335 336 335 335 335 335 335 335 336 335 335 337 336 336 335 335 334 333 332 332 332 333 335 336 336 334 330 333
290 288 290 284 283 285 284 285 299 299 300 301 301 304 319 322 322 324 327 331 333 333 333 333 334 334 334 335 335 334 335 335 334 334 334 333 332 332 332 331 331 331 331 333 333 331 331 328 331

GFSSGP_sfc_thetae_030.txt.gz
Theta_e
331 334 322 323 310 307 306 308 314 315 316 321 321 322 323 324 321 319 339 345 345 347 351 357 358 358 359 358 356 355 355 355 355 355 355 353 352 350 347 345 343 341 339 337 337 336 335 336 337
335 325 322 317 305 302 305 312 311 317 321 322 323 322 322 322 329 332 336 346 345 350 352 348 357 357 358 357 356 355 355 354 354 354 353 352 351 349 345 342 340 339 339 338 338 338 338 339 339
330 321 314 309 306 303 307 311 316 319 321 320 321 324 325 323 331 332 340 347 348 352 353 348 357 357 357 356 356 355 354 354 354 353 352 351 349 347 345 343 342 339 339 339 340 340 339 340 340
322 319 315 306 304 307 308 315 318 317 321 323 324 320 326 333 334 334 345 346 349 351 351 353 356 356 356 356 355 354 353 353 352 352 350 349 348 346 345 344 344 341 339 340 340 340 340 341 342
322 314 305 303 304 309 312 315 318 316 318 322 324 321 323 333 340 343 345 345 346 349 351 352 356 356 356 356 355 353 352 351 350 349 349 348 347 346 346 345 344 343 341 342 342 342 343 343 343
313 312 302 301 303 308 312 315 316 316 321 323 321 322 326 337 340 343 344 345 346 347 351 351 357 356 355 355 354 352 351 350 349 349 348 348 347 347 346 346 344 345 346 344 344 344 345 346 346
312 307 302 303 302 305 309 315 313 316 320 321 325 321 326 331 339 344 345 346 347 349 352 352 353 354 356 355 353 352 350 349 349 348 348 348 348 347 347 346 346 347 347 348 348 346 346 345 347
315 311 304 304 302 302 310 314 314 316 319 325 325 321 322 329 338 344 345 346 347 349 350 350 352 349 348 349 354 352 351 350 349 348 348 348 348 347 347 346 346 347 348 348 348 346 346 347 346
318 308 305 305 304 305 310 309 316 320 319 321 323 324 327 334 340 339 341 341 341 343 349 351 349 351 348 343 345 353 352 351 350 349 349 347 341 343 342 342 346 348 348 347 347 347 347 347 345
312 308 308 311 311 306 308 310 313 315 318 319 320 323 324 328 331 332 333 333 337 340 344 348 353 351 350 342 346 349 345 346 345 343 343 343 342 343 340 343 347 348 348 347 347 348 348 345 342
313 307 313 313 313 310 309 311 313 312 313 319 319 322 323 324 326 326 327 328 330 331 334 344 351 354 351 347 344 345 346 347 346 344 348 347 342 344 341 340 342 344 346 345 347 348 346 345 342
307 313 313 314 314 310 308 313 312 313 313 319 321 323 324 325 325 325 326 328 329 330 333 336 349 354 355 349 347 346 345 347 344 344 351 347 345 347 344 339 342 343 338 343 346 344 347 346 344
307 310 313 314 313 312 311 310 312 313 317 320 321 322 323 324 325 327 327 329 330 330 334 336 343 352 355 355 351 350 347 346 347 345 348 348 342 347 344 344 340 342 341 341 345 344 345 346 345
307 307 309 312 312 314 311 313 314 317 320 321 322 322 323 323 324 326 327 327 330 331 333 336 338 349 354 354 355 353 354 350 348 346 346 350 345 348 341 343 340 340 341 340 343 343 344 343 343
305 302 305 307 310 310 314 309 311 317 319 319 320 321 322 323 324 324 327 329 331 332 335 339 341 345 354 355 354 352 349 349 346 347 353 348 351 349 347 340 340 338 342 346 343 344 344 342 342
299 300 297 305 307 308 309 304 313 318 317 317 318 318 319 321 323 325 327 330 332 334 335 338 335 337 349 356 352 348 347 347 346 346 347 349 350 350 348 339 339 339 341 340 338 342 339 340 340
299 293 296 299 307 305 305 303 310 315 315 314 316 317 318 320 323 327 327 329 331 333 335 337 339 338 346 350 346 350 355 348 346 346 346 348 347 347 345 341 339 348 338 337 338 337 339 338 341
292 294 296 297 303 305 303 303 308 312 313 313 315 317 318 319 320 323 325 326 328 331 339 343 341 347 345 342 347 344 345 346 346 345 346 348 347 347 346 342 343 343 337 336 336 339 340 344 344
296 296 296 299 303 302 302 303 305 309 310 311 313 314 315 316 320 321 322 325 326 331 339 341 343 352 342 336 338 341 341 345 345 345 348 348 347 346 346 343 342 342 339 339 341 339 342 344 344
295 293 295 298 302 302 301 301 305 308 309 311 312 313 314 316 317 319 321 323 326 333 338 342 343 346 343 338 344 344 345 344 345 345 348 348 345 347 346 345 343 342 337 340 342 343 338 342 343
293 292 293 294 299 301 300 298 302 306 309 310 311 313 314 314 315 318 319 323 325 329 336 337 341 344 344 345 344 347 347 348 345 345 343 343 347 346 346 346 345 343 339 337 341 347 341 340 336
288 295 295 294 294 290 300 290 299 303 304 307 309 311 312 314 316 317 318 320 324 325 328 332 337 338 338 345 348 351 343 340 342 344 342 346 346 345 345 344 345 344 338 343 345 346 340 340 334
291 295 295 294 293 293 294 292 297 302 301 305 308 310 312 314 315 316 317 319 321 323 326 332 335 342 342 345 350 346 346 344 345 344 346 343 345 344 344 346 344 342 340 347 344 343 342 340 333
296 292 292 294 292 286 292 293 293 298 301 304 308 309 310 312 314 316 319 320 321 323 325 333 342 345 342 344 347 349 348 348 344 345 336 339 340 343 345 344 345 346 346 346 344 342 341 338 334
293 289 283 282 284 283 294 291 294 302 304 303 305 309 310 313 314 316 317 319 322 329 335 340 343 342 342 343 345 347 350 349 349 339 340 343 341 341 344 347 348 347 347 344 343 341 338 336 333
290 289 283 278 281 285 292 288 294 303 305 306 308 310 313 316 319 321 320 319 325 333 339 342 342 341 343 344 346 349 350 347 347 347 345 344 343 344 348 347 346 345 345 342 340 336 334 337 335
290 286 293 285 287 286 290 293 299 302 303 305 307 311 314 321 325 324 321 330 336 340 343 343 343 344 345 346 347 348 348 349 347 348 348 344 346 345 346 346 345 342 340 339 339 333 335 336 338
294 293 285 286 278 280 288 290 292 298 300 303 306 308 315 326 321 322 330 337 341 343 345 346 346 345 346 346 347 347 348 348 348 346 344 344 344 344 343 342 340 338 337 337 338 335 337 337 341
290 289 291 289 287 283 284 289 300 302 303 303 306 309 320 325 324 327 332 338 342 343 344 345 344 344 344 345 345 345 344 345 345 343 343 343 343 342 339 337 336 335 335 337 339 338 336 334 335
292 291 289 285 284 288 288 292 304 304 304 305 306 309 320 323 324 328 332 339 340 341 342 342 343 342 343 343 343 343 342 342 342 341 341 341 339 337 335 334 333 333 334 337 336 334 334 332 331

GFSSGP_sfc_thetae_033.txt.gz
Theta_e
332 330 329 320 310 308 306 308 315 314 316 322 323 321 322 326 320 319 336 339 340 347 353 357 360 360 358 357 359 360 360 361 361 360 359 357 355 353 350 349 345 344 342 339 336 335 335 335 335
325 328 321 316 306 304 305 313 312 318 322 325 325 324 324 323 331 334 335 340 343 351 353 347 359 360 359 357 356 357 358 358 359 358 357 355 353 352 348 346 344 342 339 338 336 336 337 337 337
337 326 313 309 307 303 307 313 317 321 325 323 322 325 325 325 332 333 341 342 345 352 353 350 359 359 359 358 356 355 355 356 356 356 355 354 353 352 349 346 343 341 340 339 339 339 339 339 339
326 318 314 307 304 308 310 316 319 321 324 326 325 320 328 334 333 336 342 342 348 351 351 356 357 357 358 358 357 356 355 354 354 354 354 353 352 350 348 346 345 342 340 340 341 341 340 341 342
324 316 306 305 306 310 314 316 320 320 322 324 325 321 324 332 336 340 342 343 346 349 351 357 357 357 357 358 357 356 355 354 354 354 353 352 350 348 347 346 344 343 342 342 342 342 342 341 342
316 315 303 301 305 310 314 316 318 321 322 324 323 324 326 337 338 337 339 341 343 346 350 355 357 357 356 356 355 354 354 353 353 353 352 350 349 348 347 346 345 345 346 345 344 344 344 344 344
313 311 305 305 306 308 311 316 315 318 320 322 327 322 327 335 339 336 337 339 341 344 348 353 357 355 356 355 354 353 352 351 350 349 349 349 348 348 347 347 346 347 347 348 348 346 346 346 346
317 313 307 307 305 307 313 314 316 318 319 327 327 321 324 333 337 336 337 338 340 343 346 348 356 350 349 349 355 353 352 351 349 349 349 349 349 348 348 346 346 348 348 348 349 347 347 346 348
321 309 306 307 306 308 314 312 316 321 320 324 327 326 330 335 338 336 335 337 338 340 344 348 351 352 348 344 348 353 353 351 350 349 349 347 340 341 340 341 345 348 349 349 349 347 347 348 348
314 310 309 313 313 311 313 312 313 315 317 319 324 327 329 334 335 333 332 333 335 338 341 346 353 352 351 344 348 350 345 345 345 343 344 343 342 341 337 341 345 348 349 349 349 349 348 347 342
314 310 314 314 315 315 313 312 314 313 314 320 321 324 326 327 332 333 332 334 333 337 339 342 357 360 356 349 345 351 350 348 347 348 347 348 341 343 341 341 340 343 346 343 346 346 345 344 343
307 313 315 316 316 316 313 315 313 314 314 321 325 327 327 327 328 328 329 330 331 332 334 337 343 359 361 351 347 345 347 350 347 347 351 347 344 345 347 341 341 346 342 344 344 343 346 345 346
309 311 313 315 315 316 316 313 313 314 318 319 321 324 324 325 327 330 330 332 333 332 335 337 341 358 361 363 351 351 350 349 350 348 351 350 344 346 343 346 342 344 341 341 345 346 347 348 345
307 308 309 312 312 314 313 313 314 315 319 319 319 320 322 323 326 327 328 330 333 334 335 336 338 360 360 360 363 361 360 353 352 350 353 353 348 348 345 347 344 343 343 342 343 345 345 344 345
306 302 305 308 310 310 315 309 310 317 320 319 319 321 323 325 327 327 329 333 332 334 337 345 346 352 363 365 363 358 350 353 349 350 359 358 354 352 351 347 344 343 346 350 348 350 346 343 343
302 302 297 305 308 309 308 303 312 317 317 317 319 321 322 325 326 328 329 331 336 339 339 346 337 345 360 362 359 354 349 347 347 348 351 358 358 356 354 345 345 346 345 344 340 341 338 342 341
298 295 298 300 306 306 306 304 311 315 316 317 318 320 321 323 326 330 329 331 333 337 340 342 347 340 354 359 350 352 357 349 346 347 347 357 356 354 353 348 346 352 344 342 340 340 342 339 339
292 294 297 297 303 304 303 304 308 311 312 315 317 319 320 321 323 326 329 330 332 340 345 346 343 349 356 348 354 343 342 346 348 347 347 357 354 352 354 349 349 349 343 341 340 343 340 340 338
296 294 295 300 304 302 302 304 306 310 311 311 314 317 319 322 324 326 328 329 329 338 342 346 346 352 347 337 336 336 335 342 346 348 357 355 353 353 354 348 349 348 343 344 346 343 344 339 343
295 293 294 298 302 303 302 302 306 309 310 312 313 314 316 319 321 323 325 329 333 336 339 343 346 351 352 341 344 339 345 342 346 348 355 353 351 352 351 350 348 349 342 348 347 345 336 337 343
294 292 293 294 299 302 301 299 303 307 309 311 313 314 316 317 318 322 322 328 332 334 338 339 344 349 352 350 347 351 350 351 345 347 347 350 349 350 351 349 350 351 346 339 346 343 342 336 341
290 296 295 294 294 290 301 291 300 305 306 308 311 313 314 316 318 319 322 325 329 331 334 339 342 348 351 357 345 352 343 341 343 347 348 348 350 347 348 348 347 348 344 345 342 343 344 344 337
293 296 295 294 292 294 294 292 297 304 302 306 309 311 313 315 317 317 319 321 324 329 333 338 344 348 350 352 349 342 349 344 346 347 350 350 350 349 346 347 347 346 344 347 347 349 348 342 336
297 294 294 294 292 286 292 292 294 298 302 306 310 311 313 314 316 317 319 323 322 325 325 334 342 345 349 350 353 356 355 353 347 347 344 345 344 345 345 345 346 348 346 352 347 349 345 342 340
295 291 283 282 283 283 294 291 295 302 305 307 308 311 312 315 315 317 317 318 321 323 325 326 331 340 347 346 348 349 355 360 357 348 342 341 340 341 344 348 348 345 351 348 348 345 344 341 337
292 291 284 277 279 284 292 287 293 304 307 309 309 310 312 314 316 319 319 320 321 324 332 336 339 342 345 344 347 350 353 349 349 347 343 343 343 345 350 349 350 348 346 344 345 341 338 340 335
293 288 295 287 288 283 287 292 298 303 305 306 308 310 313 316 319 321 324 324 322 328 339 342 343 344 344 346 347 350 350 354 347 353 354 347 352 348 348 348 346 345 343 343 344 337 337 339 339
295 297 286 288 280 278 286 288 292 297 301 305 307 309 312 321 324 324 324 326 335 342 344 346 346 345 347 348 348 349 351 352 350 352 345 347 351 350 347 345 344 343 342 340 340 338 337 337 342
290 288 291 291 287 282 282 287 300 301 303 304 307 310 319 325 324 325 332 337 342 344 345 346 346 346 346 347 347 347 345 346 347 346 346 346 348 344 342 341 340 338 337 337 338 338 336 335 337
296 292 291 283 285 289 287 287 301 306 307 308 307 310 319 325 327 329 334 338 340 342 343 344 345 345 345 344 344 344 345 346 346 344 343 343 342 341 339 337 335 334 333 336 336 335 334 334 333

GFSSGP_sfc_thetae_036.txt.gz
Theta_e
329 324 326 320 306 306 302 304 312 311 313 319 322 321 320 324 321 317 335 341 351 347 353 357 359 358 360 362 363 363 362 362 362 362 361 359 358 356 354 351 349 347 343 340 337 335 335 336 336
324 322 323 313 303 300 302 308 308 313 318 322 322 322 321 323 331 330 333 340 353 347 351 351 359 358 359 360 361 361 361 362 361 360 359 357 356 354 351 349 347 345 341 337 336 335 335 336 337
330 330 313 306 303 300 302 310 312 317 323 322 321 325 325 326 332 334 340 348 353 349 348 352 360 358 358 358 359 359 359 360 360 360 358 357 355 353 351 349 347 343 340 338 337 337 338 338 338
326 323 313 303 301 305 308 311 313 317 324 325 324 319 326 334 334 338 341 350 351 350 347 357 359 358 358 357 357 357 358 358 358 358 357 356 354 353 350 349 347 345 341 340 340 341 341 340 340
326 316 303 301 302 307 310 313 315 317 320 322 323 320 323 333 339 339 339 345 346 348 348 355 358 358 358 358 357 355 355 356 356 356 356 354 353 352 350 348 346 346 345 343 344 344 344 343 342
315 314 302 299 303 308 311 314 315 318 321 322 322 322 324 334 337 339 340 342 344 346 350 355 357 358 358 357 356 355 354 354 354 354 354 353 352 350 348 347 347 346 346 347 346 346 346 345 345
314 310 304 303 303 305 309 314 312 314 318 320 326 320 326 330 337 337 339 340 341 346 351 354 353 355 357 357 356 355 354 353 353 353 352 352 351 349 348 347 346 346 347 347 347 347 348 348 348
315 312 306 306 305 305 312 314 315 314 314 323 325 319 323 332 338 336 335 336 338 342 349 354 353 350 350 351 356 354 354 353 352 352 351 350 349 349 348 346 347 347 347 348 348 348 348 349 348
316 308 305 306 306 308 313 311 316 317 315 320 324 326 330 335 334 332 332 333 336 339 342 354 355 351 346 345 350 354 354 353 351 350 350 347 343 342 342 343 344 347 348 348 349 349 349 349 349
310 307 308 312 312 311 313 313 314 313 313 315 321 327 331 333 333 331 330 330 333 337 341 348 355 349 346 342 345 350 349 349 348 346 345 344 340 339 338 341 344 346 348 349 349 349 349 348 343
308 306 312 314 315 315 313 313 316 312 309 314 317 324 327 331 333 330 330 332 333 337 337 345 355 353 349 345 347 349 345 344 345 343 342 342 340 338 338 336 338 343 347 343 346 346 345 342 341
303 308 311 313 316 315 313 316 313 314 313 317 320 324 327 326 330 330 331 332 339 333 332 345 355 358 357 351 350 350 347 345 342 342 342 340 339 338 337 336 338 338 340 338 339 340 341 341 342
302 305 310 312 313 314 315 314 314 314 318 319 319 321 326 325 328 331 334 338 344 345 345 345 357 359 361 363 358 351 349 348 345 344 343 341 341 337 337 340 339 338 339 338 337 340 341 342 343
305 305 306 308 312 313 311 312 314 316 319 318 319 319 322 325 326 330 333 335 339 344 355 347 349 362 361 359 360 362 355 352 351 347 346 344 341 341 340 338 340 342 340 340 338 340 340 343 344
305 301 304 305 307 307 310 306 309 317 318 317 318 319 320 323 327 325 330 333 340 341 348 348 350 365 361 358 359 357 359 352 353 350 352 347 346 343 340 341 339 338 343 342 339 339 344 345 343
298 300 296 302 304 306 306 299 308 315 316 316 317 319 320 322 322 327 332 335 341 339 339 343 335 346 360 359 359 358 354 354 352 351 353 355 348 345 346 342 342 343 340 341 342 339 339 339 339
295 290 294 298 305 304 303 301 308 312 313 314 316 319 320 322 325 328 331 333 339 342 345 349 351 349 360 362 359 358 356 355 351 351 351 355 353 348 345 345 345 345 342 341 338 339 340 337 340
291 292 294 294 299 302 301 301 307 310 311 311 314 315 318 321 322 328 332 333 337 344 347 350 351 354 356 357 356 350 349 347 349 348 348 355 353 352 348 347 345 350 341 339 341 337 338 338 338
296 294 293 296 300 299 300 302 305 307 309 310 312 315 316 318 323 326 330 330 339 343 345 349 349 349 350 348 344 342 339 340 344 349 354 357 355 352 351 346 349 344 343 339 341 339 337 337 339
295 293 292 296 299 298 298 298 304 307 308 310 312 313 315 318 321 324 325 328 339 340 343 346 349 351 349 344 343 343 343 340 341 348 354 356 356 352 350 349 345 346 343 341 342 338 335 338 339
294 292 293 292 296 297 296 295 299 305 308 310 311 314 315 316 317 322 325 332 337 337 341 342 343 344 345 344 345 348 348 349 349 352 352 353 354 353 351 349 347 347 343 340 340 340 336 332 336
290 296 295 293 291 287 296 288 298 302 304 307 310 311 313 316 318 319 322 325 332 335 337 344 345 342 343 348 344 344 338 337 344 352 351 351 352 351 350 349 347 349 343 342 341 340 338 336 335
293 298 295 294 291 290 291 288 293 301 301 305 308 312 313 313 317 318 320 322 326 327 328 332 335 340 343 344 344 341 346 345 351 350 354 350 352 350 347 348 346 348 342 342 339 340 338 338 338
298 295 294 293 290 284 289 289 290 295 300 304 309 311 313 314 314 316 319 322 322 326 329 333 338 339 345 345 349 347 345 343 346 351 346 346 346 345 344 346 344 345 342 343 342 340 341 341 338
296 291 283 281 282 282 291 289 292 298 302 304 306 309 312 315 317 317 316 317 321 324 326 333 340 343 344 344 344 347 343 353 353 351 345 343 342 342 341 342 344 341 344 346 346 343 340 339 335
291 290 283 276 279 282 290 285 291 300 304 306 308 310 312 314 316 318 321 324 321 323 329 332 333 337 340 343 347 349 348 352 354 348 344 342 340 341 343 344 343 344 345 346 344 341 339 338 336
292 288 294 286 288 283 287 290 296 300 300 303 306 309 311 313 315 318 319 324 322 324 332 334 336 337 345 348 348 351 351 354 349 348 344 343 343 342 342 346 345 346 344 343 341 339 338 338 336
294 296 287 288 279 277 283 285 287 295 297 301 304 308 311 314 315 318 323 326 330 334 342 347 349 347 347 348 350 350 351 353 349 347 344 346 347 346 345 345 344 343 342 340 341 339 338 337 336
292 290 289 289 287 280 279 284 295 299 300 301 304 309 311 315 321 329 325 328 337 342 345 347 346 346 345 346 347 350 350 349 350 348 346 347 347 345 344 343 341 340 340 340 338 338 335 334 334
294 292 291 285 283 286 285 285 299 299 298 297 306 309 314 321 326 330 331 333 335 340 342 344 345 344 344 344 343 343 343 343 343 343 342 344 344 343 341 341 338 337 337 338 337 335 334 332 333

GFSSGP_sfc_thetae_039.txt.gz
Theta_e
329 320 316 315 297 295 292 297 303 304 306 311 316 315 313 319 318 313 334 344 344 349 353 355 359 362 363 363 363 363 362 361 361 361 360 359 358 355 353 352 350 349 343 341 339 337 337 337 336
324 319 313 308 293 288 293 301 301 306 309 315 317 316 318 319 326 334 338 344 345 350 352 350 358 361 362 362 362 362 361 361 361 360 360 359 357 355 351 349 348 346 342 339 337 336 337 338 338
325 326 310 298 293 292 293 303 304 308 313 316 314 319 320 322 328 330 344 344 343 347 349 351 357 359 362 362 361 361 361 361 361 360 359 358 356 354 352 350 348 344 341 339 337 337 339 340 339
319 318 309 294 294 298 301 304 307 309 312 319 319 316 324 331 331 338 347 344 343 343 347 356 356 357 359 361 361 360 360 361 360 360 359 357 355 353 351 350 349 346 341 341 340 342 342 341 341
321 313 297 292 295 301 306 308 309 307 310 317 319 317 320 333 337 347 347 346 341 339 348 353 356 356 357 360 360 359 359 359 359 359 358 356 355 353 351 350 347 346 346 343 343 346 346 346 345
313 308 296 292 298 304 307 308 307 307 312 318 317 318 320 333 335 342 345 343 343 339 350 351 357 356 355 355 357 357 357 357 357 357 357 356 354 353 351 349 348 347 347 347 347 347 346 346 346
305 307 299 299 299 302 306 309 307 306 308 317 321 319 322 327 332 340 341 344 343 344 348 348 352 355 357 355 354 354 354 354 354 354 354 354 353 352 350 348 347 347 347 347 348 347 347 347 347
306 305 302 303 302 302 310 311 308 307 308 316 319 315 319 328 332 332 338 340 341 348 347 347 347 351 351 352 355 354 353 352 352 352 352 352 352 351 349 346 347 347 347 347 348 348 348 348 349
310 299 297 301 303 305 311 309 315 314 310 312 317 324 327 333 333 330 329 334 340 347 346 346 345 346 346 348 352 354 354 353 352 351 351 349 343 344 343 345 346 347 347 348 348 348 349 349 349
301 298 300 306 309 308 311 311 312 311 311 309 315 326 329 331 332 331 329 327 335 343 345 345 345 343 340 344 345 346 347 347 346 344 343 342 337 335 340 343 346 347 347 348 349 349 349 349 341
301 298 305 308 311 313 312 312 314 311 307 308 309 322 326 328 330 328 327 331 330 333 348 348 346 343 339 338 341 345 344 343 343 340 338 339 337 335 338 334 338 337 344 341 344 344 344 341 339
296 301 305 306 309 309 308 313 311 312 312 315 314 316 321 325 326 326 326 328 333 334 344 349 346 342 339 338 340 342 340 340 339 340 337 337 335 333 329 331 331 332 337 336 334 337 339 337 338
296 299 302 305 307 308 309 307 309 311 315 318 317 315 314 321 324 326 329 329 331 332 335 338 345 343 341 338 342 342 340 339 338 338 338 337 335 331 330 329 330 331 335 336 332 333 336 336 337
297 299 301 303 302 306 306 307 309 311 315 316 317 314 314 320 320 320 325 327 327 327 329 341 346 346 344 343 344 343 343 341 340 339 338 337 336 334 331 330 331 331 334 335 332 333 335 336 337
298 294 297 299 301 301 304 301 306 312 313 312 314 315 314 315 320 320 321 323 326 327 327 337 347 351 351 347 347 348 343 344 343 341 340 338 336 335 333 331 331 332 333 334 333 332 335 335 339
293 293 286 293 300 301 300 293 302 308 310 310 313 315 316 315 316 320 322 321 324 326 325 330 349 353 350 349 349 347 348 347 345 345 343 341 339 336 335 334 332 334 334 334 333 332 333 336 335
289 285 286 290 296 298 297 295 302 306 307 307 309 311 315 316 317 317 321 323 324 325 324 324 329 350 350 350 350 349 347 345 345 343 344 345 341 340 338 335 336 334 334 334 334 332 331 330 330
284 286 289 288 292 295 293 295 301 304 304 304 307 310 314 315 316 318 319 324 325 328 326 332 332 340 348 351 348 347 347 346 344 343 341 343 345 343 338 339 336 336 335 332 333 330 332 330 333
292 290 289 293 296 293 292 293 296 299 302 303 305 306 311 314 317 317 318 320 324 330 330 332 332 334 339 338 343 340 338 336 336 338 340 340 348 345 341 338 339 340 335 335 332 330 328 330 332
293 290 289 293 295 294 292 292 296 298 299 300 304 306 307 311 313 315 317 318 322 328 328 330 330 330 330 330 332 331 330 330 331 333 339 341 346 347 343 341 340 338 336 333 331 331 327 330 330
290 289 289 289 294 295 291 289 292 296 299 302 303 306 307 309 311 314 315 319 320 326 328 332 331 331 329 330 332 331 331 330 331 334 336 342 347 347 345 343 340 338 336 334 332 331 328 326 328
287 293 292 291 288 283 291 281 289 293 295 299 301 302 303 306 311 312 313 314 317 324 325 328 330 331 333 333 330 330 331 329 328 326 340 342 345 345 344 344 341 339 337 333 333 334 329 327 324
291 296 293 292 289 285 286 282 287 292 292 294 299 302 303 305 308 309 311 312 315 321 322 327 330 330 329 331 332 331 330 330 330 333 339 340 340 343 343 342 340 338 338 336 335 333 330 329 329
297 293 291 290 287 280 284 283 284 288 292 295 298 301 304 307 307 308 309 313 313 315 316 317 322 329 329 329 334 331 329 331 332 337 337 337 338 338 340 342 342 340 339 338 336 336 332 331 331
292 286 278 276 278 278 286 284 285 291 295 297 297 299 302 304 307 309 308 309 311 312 313 316 319 319 327 332 334 333 331 332 330 338 338 336 335 334 335 338 339 339 339 339 336 333 333 331 329
288 288 280 275 275 278 287 281 285 294 297 299 301 300 301 303 305 306 310 311 311 312 312 314 319 327 332 332 336 336 333 332 337 341 338 336 336 336 337 337 340 340 340 340 336 334 333 332 328
290 284 291 284 285 279 282 287 292 295 296 298 298 299 300 302 305 306 308 311 311 311 314 317 319 325 331 333 334 335 337 335 340 338 337 337 336 338 337 340 340 340 339 337 335 334 330 331 328
290 293 282 284 275 275 281 283 283 292 292 295 296 297 300 302 306 307 310 311 313 313 315 317 320 324 329 334 337 340 341 343 340 338 336 336 335 337 337 339 338 338 337 337 334 330 329 328 326
287 286 286 285 283 275 274 279 294 291 293 294 295 298 300 302 308 309 321 321 317 324 330 332 336 336 337 339 339 341 341 343 340 337 337 337 337 337 338 338 337 337 335 333 329 328 327 327 326
291 289 287 282 279 282 280 281 294 294 295 296 296 299 302 304 307 317 324 325 326 334 335 336 337 337 338 340 341 340 342 342 341 339 340 340 338 339 339 338 337 335 334 332 327 326 328 327 325

GFSSGP_sfc_thetae_042.txt.gz
Theta_e
324 321 314 312 296 293 289 294 300 301 302 305 308 308 314 317 316 310 330 337 341 343 350 358 362 363 363 363 362 361 360 360 360 359 358 358 356 353 352 351 350 348 343 342 340 338 337 337 336
323 321 311 305 292 286 290 297 300 301 305 308 309 313 317 317 328 333 335 340 339 346 349 352 361 362 363 362 361 360 360 360 360 359 358 358 357 354 350 349 347 344 343 341 338 338 338 338 338
325 324 308 299 290 288 291 298 300 305 308 309 308 316 321 320 334 334 339 338 342 345 347 349 361 361 362 362 360 360 360 359 359 359 359 357 356 355 352 350 348 344 342 339 338 338 339 340 339
318 315 309 293 291 294 298 301 304 305 308 310 309 317 324 329 331 340 341 340 339 344 345 353 359 360 361 361 360 360 360 360 359 359 359 357 356 354 351 350 349 347 342 340 339 342 341 341 341
320 309 296 290 292 296 302 303 304 304 305 307 311 314 320 330 342 341 339 338 337 341 343 352 359 359 360 361 360 360 360 359 359 359 358 357 355 353 351 350 348 347 345 343 342 345 345 345 344
312 307 294 294 297 302 304 306 304 304 306 307 313 318 320 335 340 340 337 335 337 339 344 348 356 358 359 360 359 359 359 358 358 358 357 357 355 353 351 350 348 348 348 347 346 347 346 346 347
303 303 296 296 300 303 306 308 303 303 303 305 316 316 321 326 338 342 338 336 335 341 345 346 349 354 358 358 357 358 357 357 357 356 356 355 354 353 351 350 349 348 348 347 347 347 347 346 346
304 304 299 302 302 303 310 310 309 308 310 313 315 315 317 326 335 337 339 336 335 343 342 345 346 348 348 351 356 356 356 356 355 355 355 354 354 352 351 348 347 347 348 348 348 348 347 347 347
304 294 293 301 303 305 310 307 312 315 310 312 315 322 326 331 336 333 335 336 341 343 343 343 346 346 347 346 350 353 355 355 354 354 354 350 347 346 345 345 345 347 347 347 348 348 348 348 348
296 294 297 303 306 306 308 309 311 311 311 311 312 325 330 330 330 327 332 334 339 339 341 341 342 344 345 347 345 345 346 346 345 345 344 344 338 338 341 343 346 346 347 347 347 348 348 347 340
295 294 303 305 307 308 308 308 311 308 307 310 309 313 326 329 327 328 326 332 335 341 343 341 339 339 341 340 343 344 344 343 343 341 340 338 336 336 339 334 339 336 344 339 343 342 343 340 338
292 297 299 302 306 306 305 308 306 308 308 313 315 315 320 326 326 327 326 331 333 341 345 346 344 339 335 335 339 340 340 341 340 340 337 336 333 331 330 331 332 332 334 334 334 336 339 337 338
292 296 298 300 301 305 307 305 305 306 311 314 316 316 313 324 325 326 329 332 333 340 347 348 347 342 340 334 337 338 337 337 337 337 337 336 334 331 330 331 328 330 331 335 333 332 336 337 337
293 295 295 297 298 299 300 303 305 307 311 312 313 314 313 315 323 324 328 330 331 331 336 342 341 341 342 338 336 337 338 337 334 335 335 336 334 331 330 328 328 328 331 334 333 330 332 334 334
295 291 293 295 296 297 301 298 300 305 308 310 312 313 313 313 315 324 326 327 329 330 331 337 334 335 336 339 339 338 339 338 337 336 335 336 334 332 329 328 327 328 330 331 332 328 330 331 333
290 289 284 290 294 298 298 292 300 304 303 304 307 310 312 314 315 315 321 324 326 329 327 332 340 342 342 341 342 342 341 341 339 338 337 336 335 333 331 329 327 329 330 331 331 329 328 330 331
285 281 284 287 293 294 294 292 300 302 302 302 305 306 308 311 314 315 317 320 321 324 327 332 340 342 344 344 345 344 344 342 342 341 339 338 337 335 333 331 331 329 331 331 331 330 328 328 330
282 283 286 285 290 291 290 290 294 298 298 299 302 304 306 308 310 315 317 318 319 322 323 325 339 343 344 345 343 344 342 345 343 342 342 340 339 338 334 334 332 330 330 331 330 330 329 326 330
290 288 287 290 294 290 290 291 293 295 296 296 297 300 303 306 311 315 317 317 317 319 322 322 324 340 343 343 342 342 342 342 339 340 341 341 343 340 336 335 333 333 330 331 331 329 328 327 329
289 287 286 290 294 292 290 291 294 294 294 295 297 298 300 303 306 311 315 313 313 316 322 325 327 332 343 344 344 340 341 334 341 342 339 340 342 344 340 336 335 334 333 329 330 330 324 328 328
289 286 288 288 292 292 290 288 291 295 295 297 298 299 300 301 303 307 311 314 312 314 322 325 328 332 340 339 332 329 328 327 328 329 329 333 337 344 342 339 336 337 336 332 330 331 327 324 326
286 293 292 291 288 281 289 280 288 291 292 293 295 296 297 300 304 306 310 312 312 316 322 326 328 328 329 327 328 327 327 324 324 323 328 331 337 342 343 340 338 338 336 333 331 331 330 329 327
289 295 292 291 287 284 286 280 286 289 289 292 294 296 297 299 300 303 307 309 310 313 320 324 326 326 326 327 326 325 321 323 324 325 327 330 336 341 343 341 338 336 335 333 332 331 331 330 329
295 291 289 287 284 279 284 282 284 286 288 292 294 296 299 299 300 302 306 308 309 310 316 320 323 326 327 325 325 324 323 325 326 326 329 331 334 336 341 341 339 337 337 334 333 334 334 330 331
289 283 276 275 274 276 285 282 285 289 292 294 296 298 299 302 301 302 302 304 307 307 311 316 321 324 325 324 324 327 326 326 327 328 331 332 332 332 336 338 338 337 339 337 334 335 332 331 329
284 287 278 273 274 277 286 279 284 292 296 298 299 299 300 301 302 303 305 305 306 308 308 312 314 317 321 325 324 327 327 328 328 331 334 335 337 335 336 336 336 336 336 336 336 334 333 331 328
287 283 290 283 284 280 281 285 289 296 296 297 297 298 298 299 302 303 307 311 310 309 308 308 309 314 317 321 326 328 329 328 332 334 334 335 334 335 334 335 335 336 339 338 336 332 331 331 326
288 290 280 281 275 275 279 281 282 289 292 294 294 295 297 299 301 304 306 310 314 315 309 307 309 312 320 326 329 332 331 331 334 336 335 335 335 336 334 334 334 338 338 336 334 330 332 330 324
284 283 285 285 283 276 274 278 290 291 292 292 293 295 296 298 300 303 305 306 308 320 316 309 311 318 325 329 331 333 335 335 335 336 335 335 334 334 334 334 336 336 334 331 330 331 329 326 324
290 286 285 276 277 281 278 280 293 292 293 293 294 296 298 300 301 303 303 304 306 315 325 324 326 327 330 332 335 336 339 336 334 334 336 336 333 334 336 336 336 336 334 332 330 326 326 324 323

GFSSGP_sfc_thetae_045.txt.gz
Theta_e
327 319 312 310 296 291 288 292 297 298 301 303 304 303 303 309 314 309 328 335 340 341 355 360 362 363 362 362 361 360 359 359 358 358 357 357 356 354 353 353 351 349 344 342 341 339 337 335 335
329 318 310 302 291 285 288 295 295 299 303 305 306 306 309 313 325 329 329 336 338 344 353 357 362 363 362 361 360 359 359 359 358 357 357 357 355 354 351 350 348 346 343 342 340 338 337 336 337
329 321 306 298 290 288 289 295 298 302 305 304 304 308 311 318 332 331 332 337 335 343 351 354 362 362 362 361 360 359 359 359 358 358 357 357 355 354 352 350 349 345 344 341 339 339 339 339 338
316 315 306 294 291 294 296 298 301 302 305 306 305 305 318 327 333 334 337 334 337 342 346 357 360 361 361 361 360 359 359 359 358 358 358 357 356 354 352 350 349 348 343 341 340 342 341 340 340
318 307 298 291 293 296 300 301 301 301 302 304 305 305 317 327 340 337 334 335 333 339 342 354 359 360 361 361 360 359 358 358 358 358 358 357 356 354 351 350 349 348 345 342 342 343 345 344 341
310 306 293 293 297 301 302 304 302 302 303 305 304 309 319 336 337 335 334 332 336 337 342 351 358 359 359 360 359 358 357 357 357 358 357 357 356 353 351 350 349 349 347 346 345 346 346 346 345
304 301 295 294 299 301 305 308 306 302 304 307 311 312 319 325 338 335 332 331 333 337 343 347 352 357 359 358 358 358 357 357 357 356 356 356 355 353 351 350 349 349 348 347 347 347 347 346 345
304 304 298 300 300 301 309 309 309 307 308 314 313 308 316 326 338 335 331 330 336 336 339 342 347 352 353 354 358 357 357 356 355 356 356 355 355 353 352 348 348 349 348 348 348 348 348 347 346
304 295 294 301 303 304 309 306 311 314 310 312 313 315 321 337 337 333 331 336 337 338 337 340 342 343 344 345 353 357 358 357 356 355 355 353 349 347 346 347 347 348 348 348 348 348 348 347 346
296 292 295 303 307 305 306 306 307 307 306 309 311 316 318 333 335 332 329 329 333 334 337 340 341 341 341 344 342 344 349 351 350 350 350 348 342 340 343 345 346 348 347 348 347 348 348 346 338
294 293 301 304 305 306 305 306 308 306 304 307 308 311 315 324 325 329 329 329 329 334 337 339 339 340 339 339 339 339 340 340 343 341 342 341 338 338 341 335 338 336 344 336 342 340 341 337 336
290 295 297 299 302 302 301 304 303 304 305 310 311 313 314 312 325 324 324 329 335 336 337 339 337 337 337 335 338 339 338 337 337 338 336 336 334 333 334 333 332 332 332 332 332 334 336 336 336
289 293 296 297 297 298 301 301 302 303 307 310 311 313 312 312 316 324 328 331 333 338 339 340 338 336 335 333 333 335 337 336 335 335 335 335 333 331 330 330 328 329 328 330 330 330 332 334 334
292 292 294 294 296 296 297 299 301 303 307 307 308 309 312 311 315 323 327 329 333 339 342 343 341 338 336 334 332 334 336 335 333 334 336 335 333 330 329 328 327 325 328 330 331 330 330 332 332
294 289 291 293 295 296 299 295 297 303 306 304 305 307 310 311 313 322 326 328 333 338 344 344 342 342 340 338 334 334 335 335 333 332 333 335 333 329 328 326 326 326 327 327 329 327 326 327 328
288 287 282 289 292 296 296 290 298 302 302 303 304 306 308 310 311 318 324 325 328 327 329 342 345 339 337 337 336 336 336 336 335 334 333 334 333 330 327 327 325 326 326 328 329 326 325 326 326
285 279 282 286 291 291 292 289 296 298 298 298 300 302 305 306 310 312 317 323 324 325 326 325 332 332 330 332 336 337 337 337 337 336 335 334 334 332 330 328 327 325 327 327 328 326 326 324 325
282 281 284 285 290 289 289 290 293 296 296 296 297 298 300 303 304 309 313 316 319 322 324 323 326 333 333 334 334 337 338 339 339 338 337 336 336 335 331 331 328 326 327 327 327 327 326 324 326
288 286 285 289 293 289 289 290 292 294 294 294 295 296 298 300 304 307 311 315 317 319 319 320 320 328 335 336 335 337 337 340 340 340 339 338 337 336 332 332 330 328 327 328 328 327 324 323 325
287 285 285 289 294 291 289 289 292 293 293 294 295 295 297 298 302 305 307 311 314 316 318 320 321 323 334 340 340 340 339 340 342 342 339 340 339 338 336 333 332 330 328 326 328 327 323 324 326
287 286 287 287 291 291 288 287 289 292 293 295 295 296 296 297 299 301 304 307 311 312 313 317 320 321 324 339 340 328 329 328 333 332 334 338 340 341 339 336 334 331 331 328 328 329 326 322 324
283 291 291 290 286 280 289 279 287 290 290 292 293 293 294 295 297 299 301 302 305 308 310 313 319 323 325 334 337 336 335 334 327 334 336 332 336 338 340 338 335 333 333 331 329 330 328 326 326
287 293 290 289 285 282 284 279 285 288 289 290 292 293 294 296 297 298 299 301 304 306 308 313 317 321 326 332 337 336 330 327 323 321 323 326 327 333 339 339 336 334 335 332 330 328 328 331 329
294 289 287 285 282 275 282 282 282 286 288 289 293 297 300 300 301 302 303 304 305 305 305 309 316 320 323 326 331 331 332 322 321 321 322 323 327 332 336 337 336 335 335 332 332 333 332 331 331
287 281 275 274 274 275 284 281 283 288 290 293 295 297 298 299 299 300 301 303 306 307 305 305 312 318 321 323 326 325 323 322 323 322 323 324 327 330 333 335 334 335 335 334 333 334 333 331 330
283 282 276 271 274 276 284 278 283 291 295 297 298 298 298 298 297 299 301 303 305 307 313 312 305 314 319 322 323 324 323 322 322 322 325 327 330 330 335 337 336 335 336 335 334 334 333 332 331
285 281 286 279 280 275 279 284 288 293 294 295 295 297 295 296 296 298 301 303 304 306 307 310 314 307 316 321 322 319 322 322 322 324 328 330 330 332 334 335 335 335 335 334 332 332 332 331 328
287 289 281 281 275 273 278 280 281 286 289 293 293 293 294 296 297 299 301 303 304 305 305 310 314 307 310 316 321 322 323 324 325 327 330 331 331 333 334 334 334 334 334 334 334 332 331 327 326
284 281 283 282 281 275 274 278 286 288 292 291 293 294 294 295 297 300 301 304 303 303 305 312 317 309 307 313 317 321 325 326 329 331 331 332 333 333 334 334 333 334 333 335 333 331 329 328 325
290 286 285 278 276 278 279 279 293 292 292 292 293 295 296 297 299 300 301 303 302 302 310 313 320 312 313 320 324 327 329 331 331 331 331 332 331 333 335 336 336 335 335 332 330 327 328 325 322

GFSSGP_sfc_thetae_048.txt.gz
Theta_e
333 319 311 307 295 291 286 291 295 296 298 301 302 302 304 305 312 307 327 337 336 342 354 357 362 363 362 361 361 359 359 358 358 357 357 357 357 357 357 355 354 352 349 345 342 340 338 336 335
331 318 310 300 290 285 286 293 294 297 300 303 304 303 302 303 309 321 328 334 336 343 354 357 362 362 362 360 360 359 359 358 358 357 357 357 356 355 354 353 351 348 345 343 341 339 338 337 337
324 320 305 298 288 286 288 294 295 300 303 302 302 306 305 311 328 328 331 334 336 345 353 355 362 361 361 360 359 359 359 358 358 358 357 356 355 354 353 352 350 346 344 343 340 339 339 338 338
317 315 305 295 292 294 293 296 297 299 302 303 304 303 308 327 332 333 333 335 337 345 352 357 361 361 360 360 359 358 358 358 358 357 357 356 355 353 352 351 350 349 345 342 341 343 342 340 340
316 308 298 292 294 296 299 300 298 299 300 303 303 303 306 331 338 334 332 333 335 344 348 356 360 360 360 360 359 358 358 357 357 357 357 357 355 353 352 351 350 350 348 345 344 344 345 344 342
309 304 294 293 295 300 302 303 301 301 301 305 307 307 311 334 334 331 331 329 338 341 344 354 359 359 359 359 358 358 357 357 357 357 357 356 355 353 351 350 350 350 348 346 345 346 346 346 345
304 300 296 297 298 301 304 308 305 303 304 306 309 306 314 325 332 330 328 332 334 337 345 349 354 357 360 358 358 357 356 356 356 355 355 356 355 353 351 349 349 350 348 347 347 347 347 346 344
303 303 298 300 299 300 308 308 309 307 306 312 313 306 307 326 332 330 334 334 331 335 341 343 347 351 354 355 358 357 357 356 355 355 355 355 355 353 352 348 348 350 349 348 348 347 348 347 346
305 294 293 299 301 303 309 306 309 312 309 308 312 312 314 336 333 329 332 333 333 335 335 339 344 346 348 349 354 357 358 357 355 356 356 353 352 350 349 347 348 349 349 348 348 348 348 347 345
297 290 294 301 305 304 306 306 307 306 305 305 309 312 314 334 333 329 326 327 330 331 335 338 341 344 345 349 349 351 351 353 352 352 352 351 349 345 345 347 348 349 349 348 348 348 348 345 341
294 290 298 303 303 304 303 303 305 302 301 305 304 307 311 312 322 327 331 326 328 331 334 338 340 341 342 342 341 344 343 348 348 346 347 348 343 344 345 340 344 341 347 339 344 344 344 341 339
288 294 295 297 299 299 299 301 300 302 302 306 307 308 309 311 312 321 327 330 327 329 332 336 338 338 338 336 337 339 341 339 339 340 340 341 337 336 337 336 336 336 336 336 335 337 339 339 338
288 292 295 296 296 296 298 297 298 299 304 307 307 308 309 309 311 319 325 330 334 332 334 335 337 337 338 335 337 338 339 338 338 337 336 337 335 333 333 334 332 333 332 333 333 333 334 336 337
291 292 294 295 295 295 296 297 298 301 305 305 306 306 307 308 310 316 324 327 331 336 335 338 336 336 337 335 333 336 338 338 336 336 337 337 335 333 331 331 331 329 330 331 332 331 331 333 335
292 288 290 292 293 294 296 293 295 301 305 303 304 304 305 307 309 310 319 325 330 336 338 338 337 335 333 334 333 333 334 336 335 335 336 336 335 332 331 329 329 329 328 329 331 330 330 330 332
286 285 280 287 292 294 294 288 297 298 299 300 301 302 303 304 306 308 312 322 329 332 339 341 340 338 334 331 330 330 331 334 333 333 333 335 335 333 331 328 327 328 327 328 329 329 328 328 328
284 279 281 286 290 291 291 288 295 297 297 297 298 302 301 300 303 305 307 314 324 327 329 336 342 340 338 338 336 336 335 333 333 334 333 333 334 334 330 328 328 326 327 327 328 328 329 326 327
280 281 283 283 289 290 288 288 292 295 295 295 297 298 299 300 301 304 306 308 311 320 327 329 332 336 333 332 334 335 335 336 336 336 335 334 334 333 331 329 328 326 326 327 327 328 328 327 328
286 285 284 287 291 289 288 289 291 293 294 294 295 297 298 299 301 304 306 307 311 313 318 323 323 329 334 332 332 333 334 336 337 338 339 336 336 335 332 331 329 327 327 328 328 328 327 326 329
286 283 284 288 292 290 288 288 292 292 293 294 294 295 296 298 300 302 304 306 306 310 313 316 320 324 329 334 336 335 336 336 339 340 339 338 337 336 335 333 331 329 328 328 328 328 326 328 329
285 284 284 286 290 290 287 285 287 291 292 294 294 295 295 296 297 299 302 303 304 305 310 313 315 319 321 331 334 332 332 331 335 336 339 339 339 339 337 334 334 331 331 328 329 329 328 325 327
282 289 289 288 284 277 287 276 283 288 290 291 292 292 294 294 298 300 302 302 303 303 306 308 311 314 318 321 332 332 334 332 335 337 339 338 341 341 339 337 336 334 332 331 329 331 330 329 326
285 291 288 287 283 280 282 278 280 286 286 289 293 295 293 298 299 300 301 302 304 306 304 305 308 311 316 319 325 332 332 333 334 329 334 334 334 339 340 340 337 335 333 334 331 331 329 330 329
292 287 284 282 280 274 280 279 279 282 285 288 291 294 298 299 300 300 301 303 303 305 306 304 305 310 317 321 324 327 330 332 326 325 326 328 328 330 334 338 338 337 335 334 332 332 331 331 333
286 280 274 273 273 274 282 280 282 287 291 291 292 294 297 298 298 298 298 299 301 303 306 308 310 308 312 320 325 331 332 333 329 329 328 323 324 328 331 335 335 335 336 335 334 333 333 333 332
283 281 275 271 272 275 282 277 281 290 293 295 297 297 297 297 296 296 297 299 301 303 305 308 307 309 311 315 321 326 331 332 331 329 325 324 325 329 333 336 337 337 337 336 336 335 335 334 333
283 280 283 278 277 272 278 282 288 291 291 294 295 296 295 295 295 295 297 299 300 302 304 305 305 306 312 310 317 321 324 325 323 323 324 324 328 331 334 337 336 337 337 337 336 335 334 334 332
286 288 278 277 273 272 276 278 280 285 288 290 292 292 293 294 296 298 297 300 302 303 305 305 304 306 314 312 314 319 321 323 324 323 324 328 330 334 334 335 337 337 338 337 335 334 334 332 331
283 280 281 281 280 274 274 277 286 286 288 288 292 294 293 294 297 297 299 301 302 303 304 304 304 309 314 315 311 317 320 322 323 325 326 330 331 334 335 336 337 337 336 336 335 334 332 330 330
287 284 283 280 277 278 279 279 290 289 291 291 292 294 295 296 297 298 299 301 301 302 303 302 308 312 316 318 311 314 320 323 325 327 329 332 333 335 336 336 336 337 336 335 334 332 331 330 327

GFSSGP_sfc_thetae_051.txt.gz
Theta_e
333 325 318 316 304 303 298 299 303 304 305 309 310 309 310 312 314 310 339 345 341 345 355 361 362 362 362 361 361 361 361 361 362 362 361 362 361 361 360 359 358 355 352 349 345 341 339 338 336
328 321 317 310 300 295 297 301 301 305 308 310 311 310 309 309 315 319 329 343 343 350 359 358 362 362 361 360 360 359 359 360 360 360 361 360 360 359 358 357 354 352 349 344 342 340 339 338 337
326 324 313 308 300 293 297 300 304 306 309 308 309 312 312 312 322 326 340 341 343 349 357 360 362 361 361 360 359 358 358 358 358 358 358 358 357 357 356 354 354 350 345 344 342 341 341 340 340
321 322 312 302 297 297 299 304 305 306 308 309 310 310 315 337 337 342 343 339 343 348 350 359 361 361 360 360 359 358 358 358 358 358 357 357 356 355 354 353 352 350 347 344 344 345 344 342 341
322 317 303 300 297 300 302 305 307 305 307 310 312 311 315 332 334 341 341 338 341 346 350 358 360 360 360 360 359 358 358 357 357 358 357 356 355 354 353 352 351 350 349 347 346 346 346 346 343
315 313 302 298 298 302 305 308 308 308 309 313 314 314 318 327 337 337 339 338 342 344 349 355 361 360 359 359 358 358 357 357 357 357 357 356 355 353 352 351 351 351 350 348 347 347 347 347 346
311 308 301 301 300 303 307 313 310 310 312 312 316 312 318 323 337 336 336 339 343 345 347 354 357 360 360 358 358 357 357 356 356 355 355 355 354 353 352 351 351 351 350 348 347 348 347 347 345
313 311 302 303 300 301 310 311 313 311 310 317 316 311 312 322 337 337 337 339 341 343 344 350 353 356 357 357 358 357 357 356 355 356 356 355 355 353 351 349 350 351 350 349 348 348 348 347 346
312 303 299 302 303 305 311 308 312 314 311 313 315 315 316 326 336 336 335 335 337 340 345 348 352 355 355 353 355 357 358 357 356 356 356 353 352 352 350 347 348 350 350 349 349 349 348 348 345
304 299 300 306 308 308 310 309 308 308 308 308 312 315 316 316 331 333 333 331 333 335 342 346 351 352 354 352 355 356 355 355 356 356 357 355 355 354 350 349 348 350 350 349 349 349 349 346 340
300 298 303 305 307 308 308 306 308 305 304 309 307 310 313 314 319 321 334 334 333 334 338 343 350 353 352 350 353 354 354 354 354 354 355 355 352 352 352 349 347 346 347 341 343 342 341 341 341
296 298 299 303 302 301 303 302 302 304 305 308 309 310 312 314 316 320 320 333 334 334 335 341 346 350 352 349 350 351 350 353 350 350 351 351 348 349 350 348 347 348 344 343 342 339 341 342 341
296 297 299 300 300 301 301 300 301 301 305 307 309 311 312 314 317 320 327 335 338 333 335 338 343 346 347 348 346 348 348 349 349 349 352 351 347 347 348 348 346 345 343 341 341 339 340 339 339
298 298 298 299 300 300 299 300 300 303 306 305 307 308 310 312 313 316 324 332 337 339 337 339 341 345 346 345 347 347 348 348 348 347 349 350 348 348 345 346 344 343 343 341 339 339 337 337 337
297 294 296 297 298 297 300 296 297 302 304 304 306 308 309 310 312 314 317 324 333 339 343 343 343 345 346 342 344 344 343 343 343 344 347 346 347 346 346 342 341 341 342 342 340 340 339 336 336
294 292 290 296 296 297 298 291 298 300 301 301 303 305 306 308 310 313 314 318 327 337 342 345 339 341 342 343 342 340 339 341 341 341 341 344 343 342 342 339 338 339 339 337 336 336 335 334 334
292 289 289 292 297 297 296 293 299 301 300 300 302 303 305 307 310 315 314 317 320 330 341 346 347 341 341 341 342 341 339 337 339 339 339 341 340 341 340 338 339 340 336 335 335 335 335 334 335
286 288 289 289 294 296 294 294 298 299 299 299 300 302 303 305 308 312 313 316 318 323 332 342 349 349 345 343 341 338 339 338 338 338 339 340 340 339 338 338 338 338 334 335 336 337 338 337 336
291 290 288 292 295 294 293 293 296 299 299 299 300 302 303 304 308 310 312 315 316 320 322 329 339 348 348 345 341 340 336 341 343 343 344 343 339 338 339 340 338 338 337 338 339 339 338 337 338
291 289 289 292 295 294 292 291 295 297 298 300 301 302 302 303 305 308 310 314 317 317 320 322 327 336 343 344 346 345 343 345 345 345 345 345 341 343 344 345 343 342 339 340 340 340 338 338 339
291 289 289 288 292 294 292 290 292 296 299 300 302 303 303 303 304 306 309 313 316 317 319 320 322 326 334 341 346 347 346 346 344 346 347 348 346 347 348 347 346 344 342 341 342 341 341 338 337
287 293 292 290 288 284 292 283 290 293 295 297 300 302 303 304 306 306 310 312 313 315 317 320 322 323 324 334 338 345 342 340 344 346 348 349 348 348 349 350 347 346 344 345 343 342 341 341 337
289 294 292 291 289 288 288 285 289 293 292 295 298 300 302 304 305 307 309 310 311 314 315 319 321 323 326 327 333 335 341 341 345 345 352 354 351 351 350 351 348 347 346 345 345 341 342 341 339
295 292 291 289 288 282 286 285 287 290 292 295 298 300 302 304 307 309 309 310 311 312 314 316 319 323 325 325 328 332 338 342 340 342 341 343 346 349 351 350 350 349 347 346 345 344 343 342 341
292 289 282 281 281 280 288 285 288 293 296 297 298 301 303 305 307 307 307 308 310 311 314 315 317 320 322 323 325 329 334 338 340 341 339 341 340 342 347 349 348 347 349 349 347 344 344 343 341
290 289 283 275 278 281 288 282 289 295 298 300 302 304 305 306 306 306 307 308 308 310 313 315 316 317 319 320 323 329 333 333 336 340 338 339 339 341 348 346 348 348 347 347 346 343 343 345 343
289 286 290 285 286 282 285 289 293 296 297 298 299 301 303 305 305 306 307 308 308 310 312 314 315 317 318 318 323 327 330 335 338 345 347 341 345 341 344 345 346 347 347 347 347 344 345 345 345
292 294 285 287 278 277 283 285 286 291 294 296 297 300 302 304 305 306 307 307 309 311 312 315 316 316 317 318 322 326 329 333 337 341 341 343 341 341 342 345 347 347 347 349 348 347 347 346 344
289 288 288 287 286 279 279 284 294 294 295 296 298 300 302 303 304 304 305 307 309 310 311 314 314 316 316 318 322 326 328 332 333 335 337 339 341 341 341 343 345 346 348 348 348 347 346 344 341
293 290 290 283 282 285 284 283 296 296 297 298 298 300 302 303 304 304 305 307 309 309 311 312 314 314 315 319 322 326 329 331 331 332 335 338 339 341 341 343 344 347 347 348 346 345 343 340 338

GFSSGP_sfc_thetae_054.txt.gz
Theta_e
334 325 326 321 308 307 305 305 309 308 309 314 315 314 315 318 317 316 341 345 341 344 357 361 362 363 365 365 364 364 363 363 363 362 362 362 363 363 362 361 360 357 354 351 347 343 341 339 337
329 324 322 316 302 300 304 307 306 309 311 314 315 315 314 315 320 322 329 344 342 347 358 356 361 362 364 364 363 363 363 363 363 362 362 362 362 362 361 360 358 355 352 348 344 342 340 338 337
328 327 314 308 303 298 300 306 308 310 312 313 313 317 316 317 328 334 345 345 345 350 356 356 361 361 363 363 362 361 362 362 362 362 362 362 361 360 359 358 357 353 349 345 343 342 342 340 339
326 321 315 304 300 302 302 307 309 309 311 314 315 314 319 329 330 336 342 347 345 349 353 361 360 360 361 362 361 361 361 361 361 362 361 361 359 358 357 356 355 353 348 345 344 345 344 344 341
325 319 306 304 302 303 306 308 310 309 310 311 316 315 319 329 333 344 346 347 344 347 349 363 360 360 361 361 360 360 360 359 359 360 360 359 357 356 355 355 354 352 351 349 347 346 347 346 343
316 315 305 302 304 305 309 312 312 312 313 312 315 317 321 329 331 342 344 346 345 344 347 358 360 360 360 360 359 358 358 358 358 358 357 357 356 355 354 353 352 352 352 350 348 348 348 347 346
314 311 305 305 305 306 309 314 312 313 313 313 319 314 321 324 332 342 344 345 344 343 345 356 359 362 360 359 358 358 357 357 357 356 356 356 355 354 353 352 352 352 352 350 349 349 348 347 345
315 313 307 307 305 305 312 314 316 315 313 319 319 315 316 322 330 340 343 342 343 342 343 351 355 358 358 357 359 358 357 357 356 357 356 356 355 353 353 350 351 352 352 350 349 349 348 347 347
315 308 305 306 306 308 313 311 316 318 315 317 318 318 321 322 323 333 342 339 342 341 342 348 349 354 353 350 356 358 358 357 357 357 357 354 349 351 350 346 350 352 352 351 350 349 349 347 344
309 306 306 311 312 311 313 313 312 311 313 314 316 321 321 322 321 322 326 338 338 339 340 344 350 350 351 345 353 356 355 356 356 354 356 353 350 351 346 348 350 351 352 351 350 350 349 345 337
307 304 309 310 312 313 312 312 314 309 308 313 314 315 317 318 320 321 325 331 336 339 341 344 351 358 351 346 348 351 350 351 353 354 356 355 352 354 351 348 348 346 347 341 344 343 341 340 339
301 306 308 308 311 308 308 312 309 309 308 312 313 314 314 316 318 320 323 325 337 337 339 344 349 353 357 349 349 349 347 350 350 352 357 354 352 353 351 346 346 347 343 343 341 340 342 342 341
301 303 304 306 306 307 308 306 306 308 310 309 311 312 313 315 317 320 323 330 332 339 339 341 346 352 354 355 349 349 348 348 350 350 355 353 350 350 350 348 347 345 345 343 343 341 341 341 342
302 302 303 304 304 305 303 304 305 307 309 308 309 310 312 314 316 317 320 324 333 333 341 341 343 347 353 354 355 351 354 352 351 349 351 354 351 350 347 349 347 346 345 343 342 341 340 339 339
302 298 301 302 303 302 304 300 301 307 308 307 307 311 312 313 315 316 319 322 328 331 337 346 347 349 353 354 352 350 348 348 347 348 352 353 355 353 352 346 344 344 348 349 346 344 342 339 337
299 298 295 300 300 301 300 295 301 305 305 305 306 306 310 312 313 315 317 319 324 330 339 347 344 346 353 354 351 347 343 344 343 344 345 351 352 352 351 344 345 344 345 343 340 340 338 337 339
297 293 294 296 301 300 300 297 303 305 305 304 305 306 307 310 313 314 316 318 322 326 333 342 350 345 350 353 349 349 352 344 340 342 341 347 348 348 348 343 342 351 342 340 340 339 340 340 341
293 293 294 294 299 299 298 298 302 304 304 304 304 306 306 307 309 313 315 318 320 325 330 337 349 352 348 349 348 343 341 342 342 341 341 344 346 344 344 341 344 346 342 339 341 345 344 343 343
295 293 293 296 299 297 297 298 300 303 304 304 305 306 306 307 310 312 315 318 318 322 326 329 339 350 353 349 342 340 336 339 339 340 347 345 344 343 346 341 342 343 343 344 346 346 346 344 347
294 293 293 296 298 297 296 296 300 302 302 304 305 305 306 307 308 311 313 316 319 322 326 327 327 336 346 352 352 350 348 344 341 341 348 347 344 346 344 346 346 348 345 347 349 349 345 346 348
294 293 293 292 295 297 296 295 297 300 301 303 305 307 307 307 307 309 311 314 319 319 322 324 329 332 333 340 347 350 351 351 348 347 347 348 348 347 349 350 350 357 352 347 351 351 349 343 347
291 295 293 293 292 289 296 287 295 299 299 301 302 304 306 307 308 309 311 312 316 317 319 322 327 329 331 335 339 348 341 341 344 348 351 353 353 350 350 353 354 361 354 356 353 351 350 350 344
293 295 294 294 293 293 293 289 295 297 296 298 301 302 304 307 307 308 309 312 315 316 319 322 325 328 332 335 337 333 345 341 345 346 356 364 362 355 352 355 359 359 354 357 358 353 352 348 345
297 295 295 296 293 286 292 290 292 295 297 298 301 303 304 306 308 310 311 312 314 316 316 320 323 326 330 333 333 336 337 344 339 343 343 346 349 353 356 355 357 360 357 357 354 355 352 350 350
296 293 287 285 286 286 292 289 293 297 299 300 301 303 305 307 308 310 310 311 312 313 316 318 319 322 325 328 328 331 336 339 345 349 343 344 340 343 357 357 360 357 358 357 355 354 352 352 349
294 293 287 280 283 287 292 287 294 299 301 303 304 305 306 308 309 310 311 312 312 313 314 316 318 320 323 325 328 329 333 332 335 341 338 338 339 342 359 355 356 356 356 355 356 351 349 351 350
293 290 295 288 290 286 290 294 299 301 300 301 301 303 305 307 309 310 311 312 313 314 315 316 317 319 322 323 326 329 330 335 337 345 345 341 346 344 351 352 354 355 356 355 354 347 350 350 350
296 297 288 290 282 281 288 290 291 296 297 299 300 302 304 306 308 309 310 311 313 314 315 317 320 320 322 324 325 325 327 332 337 342 346 350 353 351 349 351 352 354 352 351 353 350 353 350 350
293 291 292 292 290 283 283 289 298 297 299 299 301 303 304 306 307 308 310 312 312 314 314 316 317 319 320 321 323 325 327 331 334 337 341 345 349 348 346 348 349 349 349 351 353 354 352 351 351
296 294 293 287 286 289 287 287 300 301 301 301 302 304 306 307 308 309 310 311 311 312 314 315 317 318 319 320 321 323 326 330 334 336 341 342 344 347 347 347 347 346 347 352 352 352 350 350 348

GFSSGP_sfc_thetae_057.txt.gz
Theta_e
334 329 323 321 309 308 307 310 313 309 311 317 320 318 319 322 319 315 340 343 341 352 354 361 364 365 367 366 365 364 363 362 362 363 362 362 363 363 362 361 360 358 355 352 348 345 342 339 338
330 326 322 315 304 303 305 313 309 312 314 316 317 318 317 317 326 327 338 345 341 354 357 356 363 365 366 365 365 363 363 362 362 362 362 363 363 363 362 360 359 356 353 349 345 342 340 338 336
329 325 317 309 305 301 304 310 311 313 313 313 314 318 319 320 329 331 340 346 343 355 356 357 362 364 365 365 364 363 363 363 362 362 362 363 362 362 361 360 358 355 351 347 343 341 341 339 337
326 323 317 306 303 307 306 310 312 312 313 315 316 314 319 329 329 334 344 345 346 351 354 359 361 362 364 365 364 363 363 363 363 363 363 362 362 361 359 359 358 355 349 346 345 345 344 341 340
324 319 310 307 306 308 309 311 312 310 312 312 314 314 317 330 332 338 346 345 346 348 353 360 359 361 363 364 363 362 362 362 362 362 362 362 361 359 358 357 356 354 352 349 347 346 347 346 342
317 318 307 304 307 311 311 311 311 312 314 314 312 316 320 332 329 337 347 346 346 346 351 360 359 360 360 362 362 361 360 360 361 361 361 361 359 358 357 356 355 353 352 351 349 348 348 348 346
313 312 307 308 308 310 312 314 312 313 314 314 318 314 322 326 327 338 347 346 347 346 347 359 355 360 360 360 359 359 358 358 358 358 358 358 357 356 355 354 353 354 353 351 350 350 349 348 346
314 313 308 310 308 308 315 315 316 314 314 321 320 314 318 324 327 330 345 344 346 345 345 354 352 355 356 357 359 359 358 358 357 357 357 357 356 355 354 352 352 353 353 352 351 350 349 348 347
316 307 304 307 309 311 316 314 317 319 317 318 320 319 322 324 326 326 330 341 343 343 344 351 348 352 352 350 356 358 358 358 357 357 357 354 349 351 350 347 351 352 353 352 351 350 349 348 345
310 305 306 311 313 313 316 315 316 314 315 316 317 321 323 324 323 322 325 333 340 342 341 346 353 351 350 344 354 353 353 354 354 353 354 352 351 350 344 347 352 352 352 352 351 350 349 345 335
310 305 310 311 313 315 314 315 317 315 311 314 315 318 321 321 321 322 323 328 336 343 342 342 354 360 352 345 349 349 348 350 352 352 357 356 349 350 346 345 344 346 348 341 344 342 340 338 337
305 309 311 311 313 313 311 315 314 315 316 317 317 318 318 318 320 321 323 326 333 339 342 343 350 355 360 348 345 349 344 349 348 350 359 358 351 357 356 346 347 353 343 344 342 341 346 343 341
305 308 310 311 311 311 313 310 311 312 316 317 314 314 315 317 319 321 323 325 331 335 341 344 347 354 359 363 349 349 347 347 348 349 355 353 350 358 354 355 347 349 346 344 346 344 345 343 342
307 306 307 309 308 310 307 308 309 311 315 313 313 312 315 317 318 319 321 322 331 334 340 342 345 358 358 358 365 357 355 351 350 350 354 359 354 359 350 352 347 346 345 344 345 346 344 342 341
305 301 304 305 306 306 308 303 304 310 312 311 312 313 314 316 318 318 320 321 325 332 336 347 348 354 361 363 360 358 351 350 349 351 361 359 361 360 357 347 347 348 351 361 353 349 346 341 340
301 301 297 303 304 305 304 297 305 310 310 309 310 311 312 315 318 318 319 322 326 327 335 345 343 349 356 358 357 354 351 352 348 351 352 357 360 359 358 348 349 351 351 346 348 345 340 339 340
300 295 297 299 303 302 302 299 305 309 308 307 309 310 311 313 317 319 319 320 323 326 329 344 352 347 355 355 354 355 356 349 349 351 350 355 355 355 356 351 350 355 346 345 348 346 345 343 342
296 297 298 297 302 302 300 301 304 307 307 307 308 309 310 311 313 317 319 319 320 324 330 334 344 351 354 353 353 349 349 348 346 344 345 349 353 353 355 350 351 349 346 343 345 346 347 344 344
299 298 297 300 303 299 300 301 303 306 307 306 307 308 309 311 314 315 317 317 319 324 328 329 332 349 349 350 345 346 343 344 345 346 351 351 352 352 352 348 347 348 346 348 352 348 349 345 349
297 296 296 299 301 300 299 299 303 305 305 307 307 308 309 311 312 314 315 317 320 321 326 327 331 333 346 346 346 347 345 342 342 344 343 348 350 351 350 347 344 348 344 353 353 352 345 347 350
296 295 296 296 299 300 298 296 299 303 306 307 308 309 310 310 310 313 314 316 318 321 321 323 329 333 337 345 351 353 357 358 349 345 344 346 347 349 348 350 342 344 350 348 353 354 354 344 348
293 299 297 295 294 291 299 290 298 301 301 303 305 307 308 310 311 311 313 314 317 319 319 322 325 331 334 342 339 344 346 343 346 350 349 346 352 351 351 347 349 352 352 353 356 356 355 354 345
295 299 297 296 294 294 295 292 296 302 300 302 304 305 307 309 310 310 311 313 315 318 320 322 327 327 335 337 339 338 340 343 341 337 345 354 355 348 349 349 354 359 356 359 359 364 361 352 347
300 297 297 297 295 288 294 293 294 298 300 302 304 305 306 308 309 311 314 314 315 317 318 320 323 330 330 332 338 342 342 341 339 343 343 343 348 350 356 352 359 361 361 362 362 365 363 357 355
298 295 288 287 288 287 296 293 296 300 302 302 302 304 307 309 310 311 313 312 312 314 315 317 319 321 327 331 330 336 339 343 345 341 343 344 342 346 359 356 361 359 366 364 363 364 362 359 353
295 295 289 282 285 288 295 290 296 303 305 304 305 307 308 309 311 311 312 313 313 314 315 316 318 319 322 324 328 333 337 329 331 339 338 341 344 349 360 364 360 364 363 363 364 358 356 358 354
294 291 297 290 292 288 291 295 300 303 303 303 305 305 306 308 310 311 312 313 313 314 316 317 317 320 322 323 329 333 334 336 334 343 349 338 345 345 353 364 362 363 361 362 363 356 358 357 357
297 299 289 291 282 281 288 291 292 298 301 303 302 304 306 308 309 310 312 313 314 315 315 319 322 321 320 325 327 326 330 333 336 341 344 345 349 349 348 354 358 358 360 361 361 358 359 355 352
294 292 293 293 290 285 285 288 300 299 301 301 303 305 306 307 308 310 311 313 314 315 316 319 317 319 320 321 325 327 327 327 333 336 341 343 350 352 352 349 352 355 357 358 360 357 353 353 355
297 295 294 288 286 290 290 290 301 302 304 304 303 306 308 309 309 311 311 312 312 313 315 315 318 316 318 319 322 324 327 329 333 335 339 343 347 349 349 349 349 350 355 358 356 351 348 351 349

GFSSGP_sfc_thetae_060.txt.gz
Theta_e
331 327 325 317 306 306 303 307 314 312 311 316 320 319 317 320 318 317 338 344 350 349 358 362 364 366 366 364 363 363 361 361 362 362 362 362 362 363 362 361 360 359 356 351 348 345 343 341 340
325 326 323 313 303 300 303 311 310 313 313 316 317 318 317 318 330 335 338 344 352 351 358 359 364 365 365 364 363 362 361 362 362 362 362 362 362 362 361 360 359 357 353 349 345 342 340 340 338
325 327 314 309 303 299 303 311 311 312 313 313 313 318 318 322 328 330 341 345 354 353 356 361 364 364 365 365 364 362 361 361 362 362 362 362 362 361 360 360 359 356 351 348 344 344 344 342 341
322 321 317 305 302 305 306 310 311 311 313 314 315 313 319 329 328 333 342 344 352 353 352 361 363 364 364 365 364 363 362 362 361 362 362 362 362 361 359 359 358 356 352 348 347 346 345 344 342
321 316 307 305 304 307 310 311 311 309 311 312 314 312 317 328 331 335 343 343 342 352 352 359 362 363 364 364 364 364 363 362 361 362 362 362 361 360 359 359 357 355 352 350 348 347 347 346 344
311 315 304 302 305 311 312 312 310 309 311 313 312 312 318 329 327 332 343 343 342 349 353 359 361 362 362 363 363 362 362 362 362 362 362 362 360 359 358 357 356 354 352 351 349 348 348 348 346
308 308 305 306 306 308 312 314 310 309 311 313 317 310 319 323 326 327 341 343 344 346 353 357 356 362 363 361 361 361 360 360 360 360 360 360 359 357 357 355 355 354 353 351 350 349 348 348 347
311 309 304 307 306 306 314 313 314 312 312 319 320 313 316 323 327 326 328 342 343 343 350 356 353 356 359 360 361 360 360 359 358 359 359 358 357 356 355 352 352 353 353 352 351 350 349 349 348
313 304 301 303 305 309 315 313 316 318 315 316 319 318 321 324 325 324 325 333 341 342 347 353 349 353 354 355 359 359 359 359 358 357 358 354 354 352 351 350 350 353 353 352 351 350 349 349 348
307 302 302 307 309 309 313 314 315 314 313 314 317 320 322 323 323 320 321 325 340 342 342 347 349 350 350 348 356 356 357 356 356 356 356 354 352 350 345 347 351 351 353 352 351 351 350 348 337
307 303 307 308 310 311 310 312 316 313 312 315 315 318 321 321 323 321 321 326 330 335 341 347 350 352 349 346 355 351 352 352 353 354 354 353 350 351 346 346 343 346 350 343 346 344 343 337 336
303 307 309 309 311 310 309 312 312 314 315 319 319 320 319 318 319 318 320 324 328 340 338 348 350 353 355 348 353 349 348 349 350 351 353 353 350 349 351 345 343 344 343 340 339 339 339 337 338
303 305 308 310 310 311 311 309 310 312 318 319 319 319 317 317 318 321 322 329 335 341 343 346 352 354 352 361 350 349 346 348 349 351 352 353 348 352 352 355 350 348 346 343 341 339 343 341 341
306 306 307 308 309 310 307 308 310 311 315 315 315 315 315 314 316 320 323 326 332 337 344 349 350 357 357 358 362 364 347 349 349 350 351 352 354 349 354 354 354 351 351 348 344 345 345 345 342
305 301 304 305 306 306 308 304 305 311 312 310 312 314 314 315 316 318 325 328 335 336 348 343 354 355 356 358 362 360 360 352 348 349 353 352 354 357 352 351 350 350 351 354 354 351 350 346 343
301 301 295 302 304 305 305 298 306 310 310 309 310 312 313 314 316 319 324 329 331 335 340 343 344 352 355 355 355 359 358 353 355 353 358 355 354 357 358 351 349 349 352 351 348 347 344 342 339
299 293 295 298 304 303 302 298 304 308 307 308 310 311 311 313 316 320 323 329 333 335 339 344 353 354 352 356 353 356 358 356 356 358 352 356 357 353 353 351 349 353 351 348 348 348 346 341 340
294 295 297 297 302 302 300 299 303 306 307 306 308 309 310 311 314 320 324 326 329 335 337 342 348 353 354 352 354 352 353 352 352 351 349 352 352 353 352 351 352 355 348 345 346 346 345 342 341
299 297 296 300 304 301 300 300 302 305 307 306 307 309 310 312 315 319 323 324 325 332 338 337 345 351 350 348 345 344 345 345 344 345 345 347 348 350 351 350 349 350 345 343 345 345 342 340 345
298 296 295 299 302 301 300 299 302 304 305 307 309 309 310 312 313 316 320 323 325 334 336 338 340 347 348 344 348 345 345 346 347 344 346 349 348 349 348 348 346 345 342 342 341 344 340 341 344
296 295 295 295 299 301 299 296 298 302 305 307 308 310 311 312 312 315 317 320 323 327 334 332 338 341 344 351 350 349 349 350 349 342 342 342 343 342 347 348 345 343 342 339 342 345 344 338 345
293 299 298 296 295 290 298 289 297 301 302 305 306 308 309 310 313 315 317 320 322 326 328 331 334 334 339 343 346 348 345 338 343 346 347 344 346 345 348 345 345 342 344 341 342 347 346 344 339
295 300 297 296 293 293 293 290 294 300 299 302 304 305 307 309 312 312 314 316 321 323 325 329 333 334 332 339 341 340 341 342 337 338 343 339 336 349 346 346 345 343 344 343 345 345 348 349 346
301 297 296 296 293 286 291 291 292 296 300 302 304 305 306 307 310 312 315 317 318 323 324 327 331 328 332 334 339 342 340 339 340 339 333 335 335 334 337 348 344 343 342 340 346 349 351 352 351
297 294 286 285 286 285 294 292 295 301 303 304 303 305 307 309 310 311 313 313 316 318 321 323 325 330 329 331 333 332 337 337 337 339 339 333 333 336 336 344 336 334 333 334 336 332 348 356 351
295 293 286 280 283 286 295 288 295 303 305 305 305 306 306 308 310 311 314 315 314 316 319 321 325 326 328 330 330 331 332 335 332 333 333 335 340 337 336 341 338 333 334 336 337 341 353 356 355
295 290 295 289 290 287 290 295 301 303 303 304 304 305 306 308 311 312 314 316 316 320 322 322 320 324 324 326 329 333 333 333 330 333 336 336 342 340 342 342 339 337 341 348 347 353 354 355 354
297 299 289 290 282 280 286 289 290 298 300 302 303 304 306 308 309 311 312 315 318 321 320 325 325 322 323 324 326 325 329 331 332 334 334 335 336 338 343 342 349 350 352 353 356 355 355 354 353
295 292 293 293 290 283 282 287 299 300 301 301 302 305 306 307 308 309 311 314 317 317 317 322 324 324 321 322 324 327 326 329 331 331 332 332 338 340 341 341 345 350 354 355 355 355 354 352 350
297 294 295 287 286 289 288 288 301 303 302 303 304 305 306 308 309 310 310 312 312 313 314 316 320 321 320 321 323 325 327 330 330 328 331 336 335 340 340 343 343 342 343 350 353 353 353 350 347

GFSSGP_sfc_thetae_063.txt.gz
Theta_e
327 322 321 313 298 297 293 299 307 307 306 308 311 317 321 320 320 314 335 345 352 354 360 364 364 364 364 364 363 362 361 361 361 361 361 362 362 361 361 360 359 358 354 351 348 346 343 341 340
322 322 318 308 295 290 294 303 303 303 306 309 310 312 320 318 331 331 338 347 351 354 357 361 364 364 364 363 362 361 361 361 361 361 361 362 361 360 360 359 358 356 352 348 346 343 340 339 337
321 322 309 302 295 292 295 303 303 307 308 308 308 313 319 319 326 330 343 348 352 353 355 361 364 363 364 363 362 360 361 361 361 361 361 362 361 360 359 359 357 356 350 347 343 342 343 340 337
314 313 311 298 295 300 302 304 304 306 308 309 309 311 321 327 327 330 345 348 350 350 355 362 364 363 363 363 362 361 361 361 361 361 362 361 361 359 358 358 357 355 350 346 345 346 345 343 340
309 307 299 296 298 303 307 309 306 304 306 307 310 310 317 325 330 333 339 350 347 346 356 361 363 363 363 363 362 361 361 360 360 361 362 361 360 359 358 357 356 355 352 349 347 347 345 344 344
301 304 295 295 299 306 309 308 307 306 307 308 308 309 315 320 320 325 338 338 348 346 355 358 363 363 362 362 361 361 360 360 360 360 361 360 359 358 358 357 356 354 352 351 349 348 346 346 345
298 297 295 298 302 305 308 309 305 306 306 307 312 310 314 316 319 319 329 337 347 351 353 355 359 362 363 361 360 360 360 360 359 359 359 359 358 357 356 355 355 352 352 350 349 348 347 347 346
302 298 296 299 300 302 310 309 308 307 307 315 319 310 310 316 319 320 319 333 345 351 352 352 356 358 358 359 360 360 360 360 359 359 359 358 358 356 355 352 352 352 351 350 349 348 348 348 347
305 296 294 297 300 303 309 307 309 312 310 313 316 316 319 320 318 317 317 320 339 350 348 350 353 355 356 356 359 359 360 359 358 358 358 355 349 350 351 350 351 352 352 351 350 349 349 348 348
298 295 296 302 303 303 306 306 308 310 309 310 313 318 320 320 315 315 315 316 330 340 345 347 349 351 351 356 356 354 356 355 354 353 352 349 346 345 347 348 351 350 351 351 351 350 349 349 339
299 295 301 303 305 306 305 306 309 308 306 310 311 315 318 317 313 314 315 320 328 334 338 343 347 348 346 351 352 352 352 351 351 351 349 346 345 343 343 338 341 341 348 342 346 344 343 340 336
295 301 303 304 307 307 305 307 306 308 312 316 318 317 317 313 312 312 314 319 322 334 336 341 345 345 343 350 349 348 348 348 348 348 349 345 340 337 339 337 336 338 338 337 333 336 337 336 334
296 299 303 305 306 306 307 306 305 305 316 318 316 317 314 312 314 312 315 318 322 328 336 342 344 343 342 348 346 344 345 344 345 345 347 345 341 340 339 337 336 337 337 337 334 333 334 334 334
298 299 300 302 301 302 303 304 303 306 311 313 314 312 312 311 311 310 313 315 320 327 334 343 345 344 343 346 345 341 341 344 343 345 345 346 341 339 341 341 342 341 340 339 336 334 333 336 336
300 295 297 299 299 299 302 299 301 306 308 307 308 308 311 311 311 310 313 314 322 326 332 341 346 349 345 348 351 349 342 343 343 344 344 345 345 338 339 343 341 342 342 341 338 336 338 337 337
295 295 288 295 299 300 298 293 301 305 305 305 307 307 308 309 310 310 312 316 325 327 328 332 344 348 345 348 349 348 349 347 342 343 345 347 345 347 343 344 343 341 341 341 339 337 335 335 333
290 286 289 293 299 299 297 295 301 305 304 302 303 305 307 306 309 310 316 318 326 327 328 332 340 346 348 348 351 349 348 348 347 346 348 347 346 348 348 345 342 343 341 341 338 338 336 334 333
287 287 291 292 297 298 296 296 300 302 302 300 301 303 305 306 307 310 319 319 324 322 323 327 339 342 346 347 347 349 347 347 346 343 343 349 350 348 346 345 343 342 342 337 335 336 338 334 333
294 292 292 295 299 297 294 294 297 300 299 298 300 301 302 304 307 310 317 317 322 322 322 323 333 339 343 343 342 341 342 342 342 343 342 342 347 350 347 344 344 344 340 336 336 334 335 332 335
295 293 291 295 298 296 294 295 297 299 299 299 300 301 302 303 305 309 312 314 316 316 323 323 324 334 339 341 341 339 340 342 341 340 340 340 340 344 347 347 344 343 337 335 336 335 332 334 336
292 291 291 291 295 296 293 291 294 298 299 301 302 302 304 303 304 307 310 311 314 319 321 323 326 328 334 341 339 338 341 342 340 338 338 340 341 341 344 345 343 341 337 335 333 334 336 334 335
289 296 295 294 290 284 293 282 290 295 297 299 301 302 301 303 306 306 308 310 311 313 318 319 320 322 325 329 339 336 332 336 339 338 337 337 339 339 341 344 344 339 338 336 334 339 339 338 337
292 298 294 294 289 286 288 283 287 294 294 297 299 301 302 302 303 305 308 311 314 316 314 314 316 319 321 323 327 335 336 337 337 337 340 338 337 343 342 342 342 339 337 337 338 337 338 342 341
299 296 293 291 286 280 286 285 287 290 294 297 299 300 301 301 304 305 307 308 308 313 315 313 315 317 318 322 325 326 327 329 333 333 331 333 336 334 336 345 342 341 340 338 341 341 341 337 334
295 287 281 279 279 279 289 288 288 294 298 299 299 299 300 301 301 305 305 305 306 307 310 314 316 314 315 317 319 320 322 326 325 328 331 333 331 332 333 334 341 341 341 341 336 338 332 327 326
293 291 282 275 278 282 291 286 290 301 303 302 300 299 301 300 301 304 305 305 306 308 307 308 309 311 314 317 318 321 320 325 324 326 327 325 332 332 332 333 337 337 335 329 331 332 329 329 327
293 287 294 286 286 281 285 290 296 299 301 300 300 300 299 300 302 303 306 306 305 307 307 308 307 309 309 309 314 316 318 321 322 322 325 328 331 336 337 336 338 336 335 332 331 331 330 328 331
295 297 287 287 279 276 283 286 287 296 298 300 299 299 299 300 302 304 305 306 306 307 309 308 308 308 309 309 310 314 317 318 320 322 324 324 323 326 330 336 336 336 338 338 335 333 334 333 332
290 290 291 289 287 278 277 283 295 296 298 297 299 301 297 299 299 302 302 304 307 307 306 308 312 312 311 311 310 312 314 316 319 322 323 326 327 328 331 334 334 337 338 338 336 334 335 338 339
294 291 289 284 283 285 282 283 298 298 300 301 300 302 303 302 301 301 302 303 304 304 305 306 307 309 311 313 313 313 316 317 319 319 321 324 325 327 330 334 335 337 339 342 337 338 343 345 346

GFSSGP_sfc_thetae_066.txt.gz
Theta_e
327 319 317 312 298 295 292 298 302 303 302 304 318 320 318 319 317 311 335 344 353 357 361 362 363 364 363 362 361 360 360 360 360 360 360 360 360 361 360 360 359 358 354 351 347 345 343 341 341
325 320 316 306 293 289 293 302 300 302 304 305 314 321 322 321 331 335 337 349 353 358 360 360 363 363 363 362 360 360 360 360 360 360 361 360 360 360 359 358 358 355 351 348 345 342 340 338 337
315 320 309 300 292 290 294 301 301 304 306 306 306 318 319 319 328 335 342 347 353 356 359 360 363 363 363 361 360 360 359 359 360 360 360 360 359 359 358 358 356 354 349 346 343 341 341 339 336
310 309 308 297 294 298 300 304 304 305 306 307 308 314 321 326 328 341 347 349 350 353 358 362 363 362 362 361 360 360 359 359 360 360 360 360 359 358 357 357 356 354 349 345 343 343 343 341 338
306 302 297 294 297 300 305 306 307 304 303 305 308 314 316 324 333 343 346 348 346 350 356 361 362 362 362 361 360 360 360 359 359 360 360 360 358 357 357 357 355 354 351 346 344 345 344 343 343
298 300 293 291 297 304 306 308 306 306 306 306 310 312 312 318 322 340 346 343 345 350 355 359 362 362 360 360 359 359 359 359 359 359 360 359 358 357 357 356 355 353 351 349 347 346 344 344 345
296 294 292 295 298 302 306 309 304 305 306 308 312 309 311 315 315 319 344 345 343 352 353 358 359 361 362 360 358 358 358 358 358 358 358 358 357 357 356 355 354 352 350 350 348 347 346 345 345
299 295 293 294 295 297 306 307 307 305 306 314 317 310 308 314 317 316 320 344 342 350 351 354 357 357 357 358 359 358 358 357 357 358 357 357 357 356 355 351 352 351 350 349 348 347 346 346 345
302 292 291 294 296 299 306 303 308 310 308 312 316 315 318 318 317 315 329 341 346 348 347 351 355 354 354 356 359 359 360 358 357 358 357 354 350 350 351 350 351 351 350 350 349 348 347 347 346
295 289 293 298 300 300 303 303 304 305 306 308 312 316 318 317 313 313 324 338 343 344 345 348 353 352 352 354 356 356 356 355 355 354 353 350 346 345 349 349 350 351 350 350 350 349 349 347 338
294 293 297 299 302 304 303 304 305 303 302 306 309 313 314 312 311 312 321 341 341 344 345 347 350 351 351 352 352 353 354 354 353 352 350 347 346 346 345 341 343 341 347 340 344 342 342 338 337
291 297 298 300 303 303 302 305 304 305 306 312 314 315 312 311 309 310 314 326 330 337 344 345 348 348 349 351 351 350 350 350 349 349 347 345 343 340 339 337 336 336 336 337 335 336 336 337 336
291 295 298 301 302 302 304 303 304 305 309 313 314 315 313 310 311 311 311 316 328 331 340 344 346 346 343 349 349 349 348 348 347 346 346 344 340 337 338 334 334 335 333 334 332 331 333 333 333
296 296 297 298 298 298 299 301 301 304 309 314 314 312 313 311 310 309 309 310 319 330 335 342 343 344 343 347 345 347 347 347 346 345 346 343 340 337 334 335 334 333 333 333 333 331 331 331 331
297 292 295 295 295 297 299 296 299 304 307 306 307 306 310 311 311 309 309 309 317 326 335 338 342 342 342 344 342 342 344 344 344 344 344 345 339 336 338 336 337 336 336 336 335 334 332 330 333
292 291 285 292 296 298 296 291 299 302 303 304 305 306 308 310 310 310 309 310 315 324 333 337 344 341 343 344 344 341 340 342 342 343 344 345 345 338 336 340 339 339 340 339 337 337 335 334 333
287 283 286 290 295 295 294 293 299 301 301 301 301 303 305 304 307 308 311 312 320 324 326 328 343 344 342 346 347 347 342 342 342 343 343 344 345 345 338 336 340 341 338 337 337 336 334 332 330
284 285 288 288 295 294 292 293 297 300 300 301 299 299 302 304 305 308 313 320 323 323 327 334 339 344 345 343 342 342 344 345 343 342 343 345 344 345 346 344 340 340 339 338 336 333 335 334 332
291 289 288 292 295 293 292 292 295 298 298 297 296 298 300 302 306 312 316 320 319 319 320 327 332 335 343 342 339 338 339 340 340 342 344 346 345 345 345 346 343 340 338 337 336 332 332 332 332
292 290 289 293 296 293 292 291 294 297 296 297 298 299 299 299 302 310 314 316 315 317 317 320 328 335 336 341 340 337 337 338 339 340 341 344 348 347 345 343 342 342 340 337 335 333 330 332 334
292 289 289 289 294 293 291 289 291 296 298 298 298 299 300 301 301 306 312 312 312 316 318 320 322 329 335 336 337 336 338 337 336 336 336 338 342 345 348 346 345 341 341 339 334 333 332 329 333
287 293 293 292 288 283 292 280 287 292 294 296 297 297 298 300 302 304 309 309 312 315 318 320 322 324 324 326 333 331 330 331 333 333 334 336 340 340 340 342 345 344 341 339 335 334 335 335 332
291 295 293 293 287 283 286 281 285 291 291 293 296 297 298 300 303 302 307 310 310 316 314 315 316 317 318 320 324 330 332 331 331 334 336 334 336 338 339 340 342 342 340 340 336 335 335 337 335
298 294 291 288 284 279 284 284 285 287 290 292 297 299 300 299 299 303 306 309 311 310 310 311 312 313 315 318 321 324 325 326 328 331 330 333 334 334 337 341 340 341 339 337 338 338 336 336 340
295 287 279 278 276 279 288 286 287 292 297 298 299 301 300 300 301 304 307 308 310 309 308 310 311 312 313 315 316 318 323 325 324 326 329 328 329 330 334 335 340 340 340 339 338 338 338 339 336
293 292 283 275 275 280 289 282 288 298 300 301 298 298 297 298 303 305 305 307 309 308 309 312 310 310 311 313 314 315 315 317 320 321 322 327 328 330 331 332 333 337 339 339 338 337 338 330 328
293 287 294 286 287 280 282 287 294 297 299 299 300 298 295 297 301 303 303 304 304 304 307 309 309 310 312 313 312 312 314 313 315 318 320 321 322 328 332 331 331 332 335 332 331 331 331 331 329
295 295 284 285 278 276 280 283 285 293 295 299 299 300 300 300 299 301 302 302 303 304 304 305 308 308 306 306 307 309 310 313 314 314 315 318 320 321 323 330 332 334 336 334 331 329 329 329 329
290 289 287 286 285 279 277 280 291 293 296 297 299 301 298 300 302 301 301 302 303 304 304 305 304 305 305 305 305 305 308 311 313 314 315 317 319 321 323 327 328 332 333 335 334 334 333 331 331
294 291 288 281 279 285 281 281 294 294 298 300 299 301 302 303 303 301 302 305 303 302 305 306 308 309 308 308 308 308 309 310 309 311 314 317 319 320 322 323 326 330 332 333 335 335 337 334 333

GFSSGP_sfc_thetae_069.txt.gz
Theta_e
326 319 316 309 297 295 293 296 300 300 301 303 319 317 317 320 316 309 335 345 354 355 358 361 363 363 362 361 361 360 359 360 360 360 360 360 361 361 360 360 360 358 354 351 348 346 344 343 344
321 317 314 303 293 290 293 299 297 300 303 303 309 318 318 319 331 334 336 350 354 356 358 359 363 362 362 361 360 359 359 359 359 359 360 360 360 360 359 358 357 354 351 348 345 343 341 340 339
310 317 307 299 291 290 293 299 300 303 305 304 308 317 317 319 331 336 343 352 356 355 357 358 363 362 362 361 360 358 358 358 359 359 359 359 359 358 357 357 356 352 349 347 344 342 342 340 339
307 307 305 296 294 297 299 302 305 307 304 305 310 313 319 325 326 340 348 353 354 355 357 361 362 361 361 360 360 358 358 359 359 359 359 358 358 357 357 356 355 353 348 345 343 343 343 341 339
304 302 295 293 296 300 304 307 308 306 304 306 310 311 314 322 339 344 347 350 350 353 356 359 361 361 361 360 360 358 358 358 358 359 359 358 357 357 356 356 354 352 349 345 343 343 344 342 340
298 298 291 291 296 303 305 308 308 307 308 311 310 310 311 317 338 341 345 345 349 352 356 358 361 361 360 360 359 358 357 358 358 358 358 357 356 356 356 356 354 353 350 347 345 345 344 342 342
296 293 290 294 295 300 304 307 305 305 306 306 312 307 310 313 327 342 341 341 347 352 355 356 358 359 360 359 358 358 357 357 357 357 357 357 356 356 356 355 354 352 350 349 348 346 345 344 344
297 294 289 292 294 296 304 305 305 305 306 312 315 308 306 312 315 341 342 338 343 350 354 354 355 356 355 356 358 358 357 357 356 357 357 356 356 355 355 352 352 351 350 349 348 346 345 345 344
301 291 287 292 294 298 303 300 306 308 306 308 310 313 316 316 316 331 338 337 345 346 349 352 353 354 354 354 356 357 358 357 356 356 356 353 350 350 351 350 352 351 350 349 348 348 346 345 345
295 289 291 297 299 298 300 300 302 303 304 304 307 314 314 313 313 331 336 337 341 342 346 350 351 350 352 354 354 352 353 353 352 352 352 349 347 345 348 348 351 351 350 350 349 348 347 346 336
294 292 295 297 300 301 301 301 303 301 299 302 303 310 312 310 316 329 336 339 340 344 346 349 350 350 349 351 353 352 352 351 352 350 349 346 346 346 346 341 343 340 347 339 343 341 340 337 335
290 295 296 298 300 299 299 303 302 302 303 306 309 311 311 309 312 321 330 337 340 342 344 348 349 348 349 350 351 351 351 351 350 350 347 344 342 341 340 338 336 335 335 334 333 334 335 334 336
290 293 296 298 298 298 300 299 300 302 306 308 309 311 311 309 308 317 329 329 336 340 342 347 349 348 349 349 349 349 348 349 349 349 347 345 341 338 337 335 333 332 331 332 331 331 331 331 332
294 294 295 296 295 296 296 298 298 302 306 306 308 311 311 310 310 308 313 326 328 335 340 344 347 348 349 348 348 348 349 349 348 347 347 344 341 336 335 334 332 332 332 331 331 331 329 329 330
295 291 293 293 293 294 296 294 296 300 304 305 307 310 308 311 311 310 309 314 326 330 338 341 343 346 346 347 347 347 348 348 347 347 347 346 341 337 333 334 333 332 332 332 332 332 331 330 330
290 289 285 290 294 296 294 290 297 301 301 302 304 304 305 307 310 310 309 309 315 325 332 338 344 342 342 346 345 345 346 346 346 346 346 346 343 339 336 334 334 336 335 335 334 334 333 332 332
285 282 284 288 292 293 293 290 296 299 298 299 301 302 304 304 306 308 309 308 310 324 332 336 340 339 339 342 342 341 341 342 341 342 343 344 344 341 337 336 337 337 335 337 336 336 333 332 331
282 283 286 286 290 291 291 291 294 297 297 297 297 301 302 302 304 306 308 308 312 322 330 336 339 339 340 341 341 340 338 339 341 339 340 341 344 344 338 335 334 339 337 335 335 334 333 333 332
288 286 286 290 294 290 291 291 292 295 295 295 296 296 298 299 303 304 307 314 319 322 327 335 337 339 340 339 339 337 338 337 338 341 341 341 342 343 342 340 339 337 336 336 336 333 332 331 333
289 287 287 291 294 291 290 290 292 294 295 295 295 295 297 298 299 307 313 316 318 320 325 328 332 338 340 340 337 337 337 337 336 337 341 344 343 342 341 342 342 342 339 337 336 333 330 331 332
289 287 288 288 292 292 289 287 289 294 295 297 297 296 297 298 299 302 310 314 313 314 318 323 329 333 336 338 336 335 336 334 335 334 336 339 344 344 343 342 341 342 342 339 337 335 331 330 331
285 292 291 290 287 282 289 281 286 290 292 294 295 295 295 297 299 300 309 310 310 314 315 318 321 328 331 335 333 330 329 332 333 333 333 336 338 337 343 344 342 341 341 339 337 337 333 331 329
290 295 292 291 286 282 284 280 284 288 289 291 294 296 297 296 297 299 305 312 311 312 316 318 320 319 320 322 327 329 328 328 329 331 333 332 334 336 338 339 340 343 342 341 340 336 333 333 332
298 292 289 285 283 278 283 282 284 287 289 291 293 295 298 299 298 298 302 310 308 311 313 314 315 314 315 319 321 322 324 325 326 328 329 330 332 333 334 337 337 339 339 338 339 338 334 336 335
296 287 278 277 277 279 285 282 287 291 293 295 296 298 299 301 302 298 301 305 309 310 311 310 310 310 312 315 317 319 320 320 320 322 327 327 327 329 333 334 334 335 336 337 336 336 336 334 334
291 292 284 278 275 279 286 281 287 294 298 299 299 298 296 296 298 298 303 307 312 310 307 308 308 309 310 313 313 313 315 318 319 319 320 321 324 327 330 330 331 332 337 337 335 335 335 336 336
290 287 293 287 287 282 282 286 292 295 296 296 298 299 298 297 297 299 302 308 311 308 307 308 307 308 309 311 310 311 312 313 315 316 316 317 318 321 324 328 328 329 330 335 335 335 336 335 334
292 293 282 286 278 277 280 281 283 289 291 296 296 296 297 299 300 300 301 301 301 305 307 307 308 308 309 310 310 311 311 312 311 311 312 313 315 318 320 321 325 327 329 330 329 330 332 330 331
288 288 289 287 285 279 276 279 288 291 293 294 296 299 298 298 299 299 301 302 302 301 300 305 308 308 307 306 306 306 306 308 310 310 310 312 313 315 317 319 321 325 327 328 329 328 330 329 329
290 288 288 279 281 284 283 280 295 294 295 296 296 300 301 301 300 300 300 301 302 301 302 302 304 306 307 306 304 303 304 305 306 307 309 310 311 314 318 320 322 325 326 327 330 331 333 332 331

GFSSGP_sfc_thetae_072.txt.gz
Theta_e
324 315 315 307 297 294 290 293 299 299 300 302 307 316 315 317 314 308 336 346 352 353 359 360 362 362 362 362 361 361 361 361 361 361 361 361 360 361 361 360 360 359 355 351 349 347 347 347 349
314 315 312 302 292 289 291 297 296 298 303 304 303 316 317 316 332 333 335 351 352 355 358 358 362 362 362 361 360 360 360 361 360 360 360 360 360 361 360 360 358 355 352 349 346 345 344 344 345
308 315 305 298 290 289 293 298 300 303 306 302 304 316 317 319 332 335 342 352 354 354 357 358 362 361 361 360 360 359 359 359 359 360 360 360 360 359 358 358 356 353 350 347 345 343 345 344 343
305 307 304 296 293 297 297 301 305 307 307 303 308 312 317 323 325 339 351 354 352 353 356 360 361 361 360 360 359 359 359 359 359 359 359 359 359 357 356 356 355 353 349 346 345 345 344 343 342
304 301 295 292 296 300 302 306 306 306 305 304 309 311 314 320 342 347 351 352 350 351 355 360 361 360 360 360 359 358 358 358 358 358 358 358 357 356 356 355 354 353 351 347 344 345 344 343 342
297 298 290 290 295 302 304 307 306 306 305 305 308 311 311 324 339 343 349 348 351 351 355 357 360 360 359 359 358 357 357 357 357 357 357 357 356 355 355 355 354 353 350 348 346 345 343 341 341
296 293 289 292 295 299 303 306 304 304 304 304 307 308 309 311 335 341 343 346 351 353 354 354 356 358 359 358 357 357 356 356 356 356 356 356 355 355 355 354 354 353 351 349 348 345 344 342 341
297 294 288 293 294 296 303 304 304 305 305 309 310 306 305 311 336 339 339 342 346 351 351 353 353 355 354 355 358 357 356 356 355 356 356 355 355 355 355 352 353 352 350 349 347 345 344 343 343
297 289 286 291 294 298 301 300 304 307 304 305 307 306 312 314 334 336 334 341 344 350 350 351 352 352 353 352 355 357 357 356 356 356 355 352 351 351 351 350 351 352 350 349 348 346 345 344 344
293 287 290 295 297 297 299 299 300 300 302 301 303 307 312 315 331 334 331 335 340 343 347 349 350 351 351 353 352 351 352 353 352 352 352 349 347 347 348 349 351 352 350 349 348 347 346 345 338
292 289 294 295 298 299 298 297 301 298 299 300 301 304 309 311 324 331 334 335 337 342 346 348 349 349 350 350 351 351 351 351 350 349 350 346 345 346 347 344 347 345 348 342 345 343 342 339 337
290 294 296 297 298 299 298 300 299 300 301 304 305 306 308 309 319 328 332 335 337 341 345 348 348 349 350 350 350 349 349 349 349 350 350 345 343 342 342 341 339 339 339 338 336 336 337 337 337
289 293 295 296 295 295 298 297 298 299 303 305 305 306 307 309 314 325 333 337 339 340 343 347 348 348 348 347 349 349 348 349 348 348 348 347 343 341 341 339 336 336 335 335 334 334 334 334 335
293 292 294 294 294 294 295 296 297 299 303 303 304 305 305 308 308 317 327 331 338 340 341 347 347 347 348 348 348 347 348 348 347 348 347 346 344 341 339 338 336 334 334 334 334 333 333 333 334
293 289 292 292 293 294 295 293 294 299 301 299 301 303 308 309 308 310 323 330 334 340 342 344 346 346 347 348 347 346 347 348 347 348 348 347 344 340 339 337 335 334 334 334 334 334 334 333 334
288 287 283 289 292 295 294 289 295 298 299 300 302 303 304 306 309 310 311 324 329 334 339 343 346 346 346 347 347 347 347 348 348 348 347 347 345 342 337 335 335 336 335 335 334 335 335 336 336
284 280 281 286 291 292 291 288 295 297 297 297 298 300 302 302 305 309 310 310 313 328 337 339 342 343 344 346 346 345 345 346 345 344 345 346 346 344 340 338 335 336 337 337 337 337 338 336 336
280 280 283 284 290 290 289 289 293 296 295 295 295 297 299 301 303 306 308 309 308 317 329 338 340 341 342 343 342 339 339 343 344 343 343 343 345 344 340 338 336 337 335 336 337 337 336 336 337
287 285 284 288 292 289 288 289 291 294 294 293 293 294 296 299 304 304 305 307 307 312 325 332 336 338 339 338 338 337 335 337 338 340 341 341 343 344 342 339 335 336 337 337 338 338 336 334 336
288 285 285 289 292 289 288 288 291 292 293 294 294 295 294 295 298 301 307 311 312 314 321 330 335 335 338 339 340 339 339 337 339 340 340 341 342 342 342 341 339 337 335 337 338 337 334 334 334
287 285 286 286 290 290 288 287 288 292 293 296 296 296 296 297 297 299 304 312 313 316 322 329 335 337 337 338 337 336 336 335 335 337 338 340 342 342 342 342 341 341 340 338 338 338 335 333 333
284 290 290 289 286 281 287 281 286 288 291 293 295 294 294 296 297 298 300 308 312 315 320 326 330 335 337 337 337 335 333 333 334 337 339 339 342 343 344 343 343 343 343 342 340 340 338 336 331
290 294 292 291 286 281 283 280 283 287 287 290 293 294 295 295 296 297 299 301 312 313 315 320 326 329 334 337 337 333 330 330 331 333 335 336 338 339 341 341 341 340 340 340 339 338 336 335 334
297 292 289 284 282 278 284 281 285 288 287 290 292 294 297 298 299 297 299 302 308 310 313 315 319 322 325 330 331 333 330 330 330 330 330 333 334 336 337 339 336 340 340 341 340 340 335 334 337
292 286 279 277 275 279 284 281 286 291 292 292 293 295 297 297 296 298 298 298 305 308 312 314 315 314 316 320 321 322 323 325 325 327 330 330 331 332 335 336 337 337 339 340 338 337 336 336 335
288 287 279 272 276 280 287 280 286 293 296 296 297 297 298 298 296 298 298 298 303 309 312 316 313 311 313 317 319 320 320 320 321 322 325 328 330 331 333 334 335 336 339 339 339 337 337 338 337
288 284 288 284 286 281 282 286 292 293 295 296 296 297 297 298 298 298 299 302 304 308 312 315 310 310 311 313 313 314 315 316 317 319 319 319 321 325 327 329 330 332 333 336 338 337 337 337 337
290 292 284 286 277 273 280 281 284 289 292 295 294 296 296 298 299 299 300 300 302 302 305 307 308 310 310 311 311 311 312 314 314 314 316 317 318 320 324 327 328 329 331 332 333 334 335 335 336
286 285 286 288 285 278 277 280 290 292 294 293 295 296 296 298 299 300 300 301 301 301 303 304 306 307 309 309 310 310 311 313 312 312 313 313 314 317 319 320 321 324 327 330 330 330 330 331 331
288 286 284 276 273 279 275 279 295 296 296 295 296 296 296 297 299 300 302 302 303 302 302 304 306 305 306 307 308 309 309 309 310 311 312 313 314 315 317 320 323 324 326 327 328 329 332 332 331

GFSSGP_sfc_thetae_075.txt.gz
Theta_e
326 317 323 317 305 305 300 301 307 306 307 311 312 319 322 324 320 315 344 349 350 356 362 361 363 363 364 364 364 363 362 362 362 362 361 361 361 361 361 361 361 360 357 353 350 349 349 350 351
318 320 320 312 301 296 299 304 304 308 313 313 309 318 324 323 334 338 342 350 353 359 361 360 362 363 363 363 362 362 362 362 362 361 361 361 361 361 361 361 360 357 353 350 348 348 348 349 351
313 319 313 309 302 297 298 304 307 312 315 311 312 321 322 324 335 340 346 352 355 359 361 361 362 362 362 362 361 361 361 361 361 361 361 360 361 360 360 360 359 355 350 348 346 346 348 348 347
312 315 313 304 301 302 301 305 310 311 314 313 313 317 323 327 329 343 351 353 353 358 359 361 361 361 361 362 361 360 360 360 360 361 360 360 360 359 358 358 357 354 351 348 347 346 346 346 344
313 311 304 302 302 304 306 309 311 310 311 312 314 313 322 331 350 351 352 352 351 356 358 360 361 361 361 361 361 360 360 359 359 360 360 360 359 358 357 356 356 354 352 349 346 345 345 343 343
306 309 300 298 301 305 308 310 310 310 311 313 311 311 320 340 346 351 353 352 352 354 357 359 360 360 360 359 359 358 358 358 358 358 358 358 357 356 356 355 355 353 352 350 347 347 344 343 343
305 303 299 300 299 302 305 310 308 308 310 311 313 309 316 319 345 351 353 353 352 355 357 358 358 359 360 358 357 357 357 357 357 357 356 356 356 355 355 354 354 353 352 350 348 346 345 343 343
305 304 299 299 298 299 306 307 308 309 308 314 313 310 310 317 343 349 351 351 351 353 355 356 356 355 355 357 358 357 357 356 356 356 356 355 355 355 355 352 353 353 351 350 348 346 345 344 343
304 299 296 298 298 301 305 304 308 311 308 310 311 312 314 320 343 343 345 347 348 350 354 355 355 355 353 352 355 357 357 357 356 356 356 352 348 350 351 349 353 353 351 350 348 346 345 344 343
302 297 298 301 303 301 304 303 305 305 306 307 309 314 315 323 338 338 339 339 343 346 351 354 355 354 354 351 353 353 352 352 353 353 355 351 351 350 347 349 352 352 350 350 348 347 346 343 340
299 297 299 300 303 304 302 302 305 303 302 306 306 310 313 314 321 335 338 338 340 345 349 352 355 356 353 351 353 352 352 353 353 354 354 353 351 351 348 346 346 348 348 342 343 343 341 341 341
296 298 301 302 303 303 301 304 302 304 305 309 309 311 312 312 314 321 337 339 341 344 347 351 353 355 355 353 352 351 351 352 351 351 354 351 349 349 349 345 346 348 344 343 343 340 343 343 343
297 297 300 301 301 300 301 300 300 302 306 308 309 310 310 312 314 318 330 341 343 343 347 350 353 353 352 354 352 352 351 352 351 351 353 350 347 347 348 348 346 345 344 343 342 340 340 342 343
299 298 299 300 300 300 298 300 301 303 307 307 308 309 310 312 314 316 324 336 344 345 347 349 351 354 352 354 354 352 353 353 352 352 352 351 350 348 347 348 346 344 344 342 341 341 342 342 343
298 296 298 299 300 299 301 298 297 304 306 305 308 309 310 311 314 316 321 335 344 347 349 349 351 353 353 356 355 353 352 352 352 351 353 351 351 350 349 346 345 344 345 346 344 344 344 343 345
296 295 292 297 298 300 299 294 301 303 303 303 306 308 309 312 315 320 321 334 343 348 349 351 350 352 355 356 355 354 352 352 352 352 352 351 351 352 349 346 345 346 345 343 343 343 343 344 347
293 290 290 293 298 297 297 295 300 304 303 302 304 306 307 309 312 316 319 321 335 345 350 350 352 351 354 354 354 354 357 353 351 349 348 351 352 351 349 347 347 349 344 342 342 343 344 346 347
288 289 290 291 297 297 296 296 300 303 303 302 304 305 306 307 310 314 317 322 325 334 344 349 350 353 353 351 353 352 352 352 350 345 347 350 353 352 350 348 347 347 343 342 342 345 347 346 345
292 291 290 294 298 294 295 296 298 302 302 302 304 304 305 307 311 313 314 317 321 324 332 344 347 350 350 347 346 345 344 349 350 350 352 351 350 352 353 349 349 347 345 344 343 343 344 343 343
293 291 292 295 297 295 296 296 300 301 302 303 304 305 306 307 309 312 313 314 318 323 326 334 345 349 349 348 349 346 346 346 348 350 351 352 351 350 350 351 349 347 343 345 345 345 342 345 344
293 291 292 292 296 298 296 294 297 300 301 303 305 306 307 307 309 311 312 314 320 321 325 329 340 348 349 350 349 348 348 346 344 345 346 348 349 350 351 349 349 348 345 341 344 345 346 340 341
290 295 295 294 294 289 296 286 295 298 299 301 303 305 307 307 308 309 310 313 316 323 326 327 334 345 346 349 346 347 342 340 343 344 345 346 348 348 348 349 348 350 346 347 345 346 347 344 343
293 298 297 296 294 293 292 289 293 297 295 298 302 304 306 308 307 309 311 313 315 318 325 329 334 341 346 347 349 345 346 346 346 346 348 349 348 349 347 349 349 349 350 351 349 346 345 343 339
300 297 297 293 292 286 291 290 291 294 297 299 302 303 305 306 309 310 311 312 312 315 320 328 334 340 345 346 348 348 347 346 344 346 345 346 347 347 350 350 351 350 350 349 345 340 333 334 332
298 293 286 284 285 284 292 289 291 297 299 300 301 303 305 308 308 309 310 311 313 313 316 323 330 337 345 346 347 347 349 347 346 346 346 346 345 346 349 350 348 348 350 348 342 340 334 333 331
294 292 286 279 280 283 290 284 290 299 302 303 304 304 306 308 309 310 311 312 313 312 313 320 326 333 339 344 347 347 348 345 345 346 344 344 344 345 349 348 348 348 348 348 346 340 338 333 331
293 289 295 287 288 284 287 291 296 300 300 301 302 304 305 307 308 309 311 312 314 315 312 317 322 328 332 337 339 337 336 336 335 339 342 341 344 343 344 345 346 346 347 348 349 347 343 340 335
296 298 287 288 279 278 284 286 288 294 296 299 300 301 303 305 307 309 310 311 313 315 317 318 322 326 327 331 331 331 332 333 334 335 335 336 335 334 335 336 338 339 340 342 344 343 344 341 343
292 291 292 290 286 280 279 284 297 296 297 298 299 302 302 302 304 306 309 311 312 313 315 318 319 322 324 326 327 327 326 327 329 329 330 330 331 330 330 331 334 333 334 338 339 339 338 337 338
294 291 292 285 282 284 283 283 296 297 300 299 299 300 301 303 303 304 305 307 310 313 313 316 318 319 320 321 322 323 325 325 326 326 326 327 326 327 327 328 328 329 330 335 334 332 332 332 332

GFSSGP_sfc_thetae_078.txt.gz
Theta_e
331 325 327 324 310 307 306 307 315 312 312 317 318 316 324 327 320 320 349 351 349 352 362 362 364 365 367 366 365 363 362 362 361 361 361 361 361 362 362 362 362 361 357 354 352 351 350 351 352
323 323 324 320 307 303 305 309 310 314 315 318 316 318 325 325 335 340 345 351 351 355 362 361 363 365 366 365 364 363 362 362 361 361 361 361 361 362 362 362 361 358 354 351 350 350 350 351 353
321 322 317 313 309 304 305 308 312 314 317 316 316 325 326 328 336 343 350 352 353 357 361 363 363 364 364 363 364 362 362 362 361 361 361 361 361 361 361 361 360 356 352 350 349 349 350 351 353
319 320 317 307 306 309 306 311 313 313 316 318 318 319 329 337 337 347 351 351 354 357 359 362 361 363 363 364 363 362 362 362 361 362 361 361 361 360 360 360 358 356 352 349 349 349 348 349 349
318 316 308 307 307 310 310 312 314 312 314 316 317 317 326 344 353 351 349 350 352 355 358 363 361 362 363 363 363 362 362 361 361 361 361 361 360 359 359 358 357 355 354 350 347 347 348 347 346
310 313 305 303 306 309 310 315 314 313 314 315 315 316 322 335 347 351 351 351 351 353 358 360 361 361 361 361 361 361 360 360 360 360 360 360 359 358 358 357 356 355 353 351 347 346 345 344 344
307 307 304 305 305 306 308 314 313 313 313 314 317 313 320 323 335 352 353 353 351 353 356 358 357 359 360 360 359 359 359 359 358 358 358 358 358 357 356 356 355 354 353 351 349 346 345 344 343
310 307 303 304 302 302 309 311 314 312 312 318 317 314 315 320 329 348 354 352 350 352 353 356 356 355 355 356 359 358 358 358 357 358 357 357 356 356 355 353 354 354 352 350 348 346 344 342 342
312 303 300 301 302 303 308 307 313 315 312 314 316 316 319 322 331 342 349 349 348 348 352 354 355 355 353 351 354 357 358 358 357 357 357 354 353 354 353 348 353 353 352 350 348 347 345 342 342
306 301 301 305 306 304 307 308 309 309 310 311 313 317 320 320 325 333 342 344 345 345 348 352 356 355 353 350 354 353 353 353 354 354 357 354 352 349 345 348 353 352 350 348 347 346 343 341 337
305 302 305 305 306 307 307 307 309 307 306 310 310 313 317 318 319 321 332 342 344 346 347 350 357 359 354 351 352 351 351 351 352 353 356 355 350 349 345 345 346 346 348 341 342 342 339 339 339
300 304 305 306 306 306 304 307 306 307 308 311 312 314 315 315 318 319 321 333 343 344 347 351 355 358 359 353 352 352 350 351 349 349 355 353 350 349 347 342 342 345 342 341 341 339 341 343 347
302 303 304 306 305 305 306 303 304 305 309 311 312 312 313 314 317 320 321 325 338 345 348 350 355 357 359 359 353 354 352 351 351 350 352 352 349 349 346 346 344 345 342 343 341 339 341 345 349
304 303 303 304 305 305 303 304 305 307 310 310 311 311 313 314 316 319 321 323 328 343 349 352 353 360 359 358 360 356 357 354 352 349 350 353 349 352 346 348 347 345 344 341 341 340 341 346 348
303 300 303 303 305 303 306 301 302 307 309 308 310 311 313 314 316 318 321 324 328 338 347 353 354 356 360 360 358 356 354 353 352 350 354 353 352 355 351 346 346 344 347 348 346 345 345 345 348
300 300 297 303 302 303 302 296 304 308 307 306 308 310 311 313 316 319 322 326 330 339 347 353 353 355 359 359 359 356 354 353 352 352 354 356 354 352 352 345 345 347 347 345 343 342 342 346 347
299 295 296 297 302 301 301 298 303 306 307 306 308 309 310 312 315 319 320 322 325 337 349 353 356 355 358 359 357 358 361 355 352 353 352 355 354 353 351 346 345 351 345 343 342 341 345 343 345
294 294 295 295 300 301 300 300 304 306 306 306 308 309 310 311 314 317 319 321 324 329 343 355 357 358 359 358 359 354 353 353 353 353 353 355 352 353 354 349 351 351 346 342 343 348 343 343 343
297 295 295 298 301 300 299 300 303 306 307 306 307 308 310 311 314 317 319 322 323 327 333 345 355 359 358 354 352 351 348 351 351 353 355 354 355 354 356 349 353 353 349 350 353 346 346 342 346
297 295 296 299 301 300 300 300 304 305 306 307 308 308 309 311 313 314 317 321 323 325 329 335 348 355 358 355 356 354 352 351 351 351 354 353 352 353 355 352 352 353 349 353 351 349 340 340 344
297 296 296 296 300 302 300 298 301 305 306 307 308 310 310 311 312 314 315 318 321 324 328 331 340 353 357 358 355 353 352 350 347 350 350 354 353 353 355 356 355 354 352 347 354 351 347 335 345
294 299 298 297 297 293 301 291 299 303 303 306 307 309 310 311 313 314 315 317 319 322 325 330 334 341 350 358 354 355 346 344 347 348 350 352 353 353 353 357 354 356 351 349 350 349 349 347 339
297 300 299 299 297 297 296 294 298 302 300 303 307 308 310 311 312 313 314 316 318 321 323 328 334 337 343 355 355 352 352 347 348 348 354 355 354 353 351 353 353 353 349 350 353 351 349 345 343
302 300 300 300 298 290 295 294 296 298 300 302 305 306 308 310 312 314 316 318 319 321 321 324 330 336 338 346 352 357 355 353 347 350 349 349 349 350 353 351 353 351 353 354 353 354 351 347 343
301 298 291 289 290 289 296 292 294 300 302 303 304 307 309 311 313 314 314 316 318 319 321 322 324 330 338 340 347 351 354 355 358 354 350 351 347 348 354 356 355 352 356 356 357 354 350 346 341
298 297 290 283 285 288 293 288 294 301 305 306 307 308 310 311 313 314 315 317 317 319 321 323 322 324 333 341 343 348 351 349 351 355 350 348 347 351 360 355 355 356 356 356 356 353 349 350 345
297 293 299 291 291 287 290 294 299 302 303 304 304 306 307 308 309 311 314 316 317 318 320 322 324 322 329 338 346 350 352 353 351 357 359 352 355 346 353 356 355 354 354 354 354 350 350 349 346
297 300 290 293 282 281 287 289 290 297 300 301 302 304 306 308 309 310 311 314 316 318 320 322 325 325 325 333 343 347 349 352 353 353 353 352 350 348 350 352 352 352 352 352 352 352 351 347 340
296 293 294 293 291 283 282 287 298 297 299 300 302 303 304 306 307 309 310 312 314 316 318 321 323 325 325 329 338 345 347 347 345 343 340 340 343 341 340 341 343 345 346 348 349 348 346 346 346
296 294 295 289 286 290 288 287 300 300 302 303 303 303 305 306 306 308 310 311 312 313 315 318 320 323 325 328 333 338 338 337 335 333 334 336 336 335 333 333 334 335 336 339 340 340 339 340 340

GFSSGP_sfc_thetae_084.txt.gz
Theta_e
327 325 327 322 309 309 305 309 317 316 319 322 321 319 319 320 324 324 348 352 356 358 364 365 364 364 364 364 363 361 361 362 362 361 361 361 363 364 363 362 362 361 361 358 355 353 353 353 354
323 323 322 316 305 301 305 314 314 319 319 321 320 319 318 319 338 340 344 352 357 360 363 363 364 364 364 363 362 361 361 362 361 361 361 361 363 363 363 362 362 360 357 354 352 352 353 355 355
321 321 314 309 306 302 305 313 316 320 321 319 318 322 322 331 339 346 350 356 357 360 362 365 365 364 364 364 362 361 361 361 361 361 361 361 362 362 362 362 361 359 355 352 351 354 356 355 354
318 317 315 305 304 309 311 315 316 318 319 320 320 317 336 344 342 348 353 352 357 357 358 364 365 364 364 364 362 361 361 361 361 361 361 362 362 362 361 361 359 357 355 354 354 355 356 356 354
315 313 305 304 305 311 315 317 316 314 316 318 319 318 330 342 348 348 349 349 353 354 362 363 364 365 365 364 363 362 361 361 361 361 361 362 361 361 361 360 358 356 354 353 353 353 354 354 353
308 311 302 301 305 311 315 319 318 314 316 317 316 317 322 335 347 344 346 349 351 351 361 361 364 364 364 364 363 362 361 361 361 361 361 361 360 360 360 359 357 356 354 353 351 350 350 350 348
307 306 302 303 305 309 313 319 315 314 315 315 319 314 320 324 337 348 347 348 348 351 359 359 359 363 363 363 362 362 361 360 360 360 360 360 360 359 359 358 357 355 354 352 350 349 347 345 343
309 308 303 305 304 305 314 317 318 316 314 320 320 312 315 322 330 344 347 346 346 347 357 356 357 358 361 361 362 361 361 360 359 359 360 359 359 359 358 355 356 355 353 352 349 347 345 343 343
311 302 300 303 305 308 314 314 319 320 315 318 319 318 320 323 327 335 345 345 343 346 353 354 355 357 357 359 361 361 362 361 359 359 359 356 354 355 354 352 354 354 353 351 348 346 345 344 344
306 301 300 306 308 309 312 313 314 312 312 314 317 321 321 322 322 324 336 342 342 343 347 352 354 354 354 353 361 360 360 359 359 358 358 356 355 353 352 351 354 353 352 350 348 347 346 344 334
305 302 305 306 309 310 309 309 312 309 308 313 315 318 320 322 322 322 322 335 340 343 345 349 353 354 351 350 359 358 359 359 359 358 359 357 354 355 350 350 348 348 350 343 343 342 338 335 333
302 306 307 308 310 309 307 310 308 309 309 314 315 315 316 316 317 317 318 320 334 336 347 350 353 354 353 350 354 352 352 355 356 358 360 356 354 355 347 346 344 345 341 338 337 336 336 336 338
303 305 308 309 309 309 309 307 307 306 310 312 313 313 313 314 316 317 319 321 326 335 342 350 355 355 354 361 353 351 348 351 351 352 355 355 351 352 348 347 345 342 340 337 339 337 337 340 342
307 306 307 308 308 308 306 306 306 307 310 310 311 311 312 312 314 316 318 320 329 330 342 346 358 357 358 355 364 354 349 352 349 350 350 353 350 353 349 349 350 341 340 338 338 343 346 342 342
307 303 305 306 306 305 307 303 303 308 309 309 310 311 312 314 315 316 321 324 329 331 336 353 355 360 359 356 360 362 356 353 348 348 354 349 354 355 347 346 347 346 343 350 342 347 345 345 341
303 303 298 304 305 306 305 298 306 310 309 307 309 310 311 314 315 319 323 326 337 338 342 348 350 361 360 359 357 359 354 352 351 349 350 351 354 354 348 344 345 345 350 350 348 346 342 340 340
301 295 297 300 307 305 303 299 306 310 309 307 309 309 311 312 316 320 325 325 338 335 336 341 351 355 361 360 357 356 360 358 355 351 350 351 351 351 348 344 344 349 349 347 345 345 342 339 339
295 296 298 299 303 304 301 301 305 307 307 308 309 309 309 310 313 321 323 324 331 336 340 340 347 362 362 361 359 358 356 355 355 353 349 352 349 350 351 345 346 350 346 345 344 342 342 341 342
300 299 298 301 304 301 301 301 304 307 307 307 309 310 311 312 313 317 323 325 328 334 336 341 342 363 362 359 355 354 352 354 354 351 356 352 350 350 347 347 349 347 344 343 344 343 343 338 343
300 298 297 301 303 302 301 301 304 306 307 309 310 311 312 314 315 316 319 326 328 332 340 341 343 349 360 355 357 355 353 353 354 355 353 355 352 351 347 347 343 344 342 343 345 341 338 341 343
299 298 298 297 302 304 301 298 301 306 308 310 311 313 312 314 316 319 322 323 324 330 336 337 339 345 347 358 357 356 355 353 350 351 352 353 353 353 349 348 344 343 343 342 343 346 342 336 338
296 302 300 299 297 292 301 291 300 304 305 308 310 312 312 314 315 317 319 322 324 326 328 331 339 342 343 343 352 352 348 345 346 349 351 349 354 354 350 349 348 345 345 343 345 346 344 342 336
298 303 301 300 298 297 297 294 299 305 303 306 308 309 311 312 313 313 316 318 322 325 330 334 338 337 339 343 339 345 344 349 350 351 351 352 353 353 352 351 350 346 346 348 346 345 347 344 339
304 301 300 300 298 290 296 296 296 300 302 304 307 308 309 311 313 315 318 320 321 323 324 328 334 337 338 340 345 339 342 344 345 346 345 346 348 351 352 352 352 353 349 351 349 351 349 347 343
302 298 290 289 290 289 299 295 299 303 304 305 306 307 308 310 311 312 313 315 318 319 321 322 325 327 332 332 334 337 340 342 343 345 344 345 345 348 349 349 350 351 351 351 352 349 350 349 346
299 299 292 285 287 290 298 292 297 304 307 308 308 309 309 310 312 312 313 315 314 317 320 321 322 324 328 330 329 331 332 338 340 345 346 345 344 345 349 351 350 351 352 352 351 349 348 350 346
298 295 300 294 295 290 293 297 302 304 305 306 306 307 307 309 311 311 311 313 314 316 319 320 321 323 324 325 330 332 332 331 337 344 346 346 348 348 347 351 350 351 351 352 350 348 347 348 347
300 302 293 294 285 284 290 292 293 298 300 302 303 304 306 308 309 311 312 314 316 317 317 322 323 321 322 324 327 326 330 331 333 342 344 346 346 347 348 348 350 350 351 352 350 348 349 350 349
297 296 297 296 294 286 284 289 301 300 301 301 302 304 306 308 308 309 311 313 314 315 315 317 318 317 314 319 323 326 325 330 330 336 341 344 344 346 346 349 350 348 350 349 348 347 348 345 345
301 297 297 291 289 293 292 290 303 304 303 304 304 306 307 309 309 309 310 311 311 312 313 314 317 317 316 317 320 323 323 329 331 334 339 342 342 344 346 333 337 346 342 337 341 342 345 344 345

GFSSGP_sfc_thetae_087.txt.gz
Theta_e
325 318 320 314 301 299 297 302 310 310 312 314 315 314 316 328 326 320 347 354 358 359 361 362 363 364 364 362 362 361 361 361 361 361 362 363 362 362 362 362 363 363 361 359 354 353 353 354 353
316 319 315 308 296 291 297 307 307 311 315 315 315 315 319 329 339 340 345 356 358 360 359 360 363 364 364 362 361 361 361 361 361 361 362 363 362 362 362 361 361 361 358 355 353 352 354 354 353
320 317 305 300 296 294 298 307 309 315 317 316 314 320 330 332 343 342 352 357 359 358 360 361 363 363 363 363 361 360 361 361 361 361 361 362 362 361 361 360 359 359 355 353 352 353 356 356 354
311 307 305 296 295 301 304 309 312 314 315 316 318 327 337 342 343 348 354 357 355 357 361 363 363 362 363 362 361 361 361 361 360 361 361 362 362 361 360 360 358 357 356 355 354 356 356 356 356
306 302 295 294 297 303 308 312 313 310 314 313 316 324 331 340 345 349 353 355 352 357 360 362 363 362 363 362 362 361 361 360 360 361 361 361 360 360 360 359 358 356 355 355 354 355 355 355 355
298 300 291 293 298 304 308 312 314 313 311 312 313 316 316 337 339 341 352 351 353 357 359 361 364 362 362 361 360 360 360 359 360 360 360 360 359 359 359 358 357 356 355 354 354 353 352 352 351
295 295 294 295 298 302 307 314 312 313 311 311 315 312 313 319 333 342 342 350 356 358 357 358 361 363 362 361 359 359 359 359 359 358 358 359 359 359 358 357 356 355 353 352 350 350 349 347 345
299 296 294 298 298 299 308 313 316 315 314 319 317 310 307 316 323 345 341 343 354 355 355 356 358 360 360 359 361 359 359 359 358 358 358 358 358 358 357 354 354 354 352 351 348 346 344 342 341
303 293 291 295 298 302 307 308 316 319 316 316 318 315 317 319 320 330 340 340 351 355 353 353 355 356 357 358 360 360 361 359 358 358 358 355 354 353 354 353 355 353 352 350 347 345 343 341 342
295 291 294 299 302 302 305 308 312 313 314 313 315 318 322 319 315 316 334 337 338 349 350 350 352 353 354 358 357 357 357 358 356 355 355 352 350 349 351 351 354 353 351 350 348 345 344 343 330
297 293 299 302 304 305 304 306 313 312 308 313 312 315 316 317 314 313 312 322 332 342 342 347 351 352 351 354 354 354 354 356 353 354 353 349 349 350 349 345 348 344 349 341 342 339 336 332 329
293 300 301 302 305 304 302 307 304 307 309 312 312 313 311 311 312 314 310 312 316 337 344 342 348 349 349 352 354 354 354 353 352 352 352 350 347 347 342 343 341 339 339 335 333 331 330 328 328
295 299 302 304 304 302 306 302 301 303 309 309 310 310 309 309 310 312 312 312 313 329 341 334 345 348 347 350 352 352 353 353 353 353 354 351 347 342 341 340 340 339 335 334 330 329 329 328 328
300 300 301 302 302 303 300 302 301 304 309 308 308 307 308 309 310 310 311 310 312 320 341 343 347 346 344 340 347 348 348 352 352 353 354 352 348 345 342 339 338 338 335 332 330 329 329 329 332
303 298 301 301 300 299 302 298 299 303 306 305 306 307 308 309 310 310 311 311 313 316 336 337 340 340 333 334 345 348 346 348 347 348 350 352 347 344 344 337 340 338 335 332 329 332 332 332 332
298 296 289 297 301 302 300 292 301 305 303 303 305 307 308 308 310 312 314 315 319 320 337 344 340 333 329 339 349 352 347 347 346 345 346 349 349 345 345 339 339 338 334 335 332 330 333 334 332
294 288 290 294 301 300 297 293 301 304 303 302 302 304 306 307 309 311 313 315 316 317 320 336 339 333 332 348 350 351 350 348 346 345 345 346 347 346 345 342 338 340 336 333 337 334 333 330 329
288 290 292 293 299 300 296 295 300 303 303 302 302 303 304 306 307 310 314 315 318 322 325 323 327 347 351 353 350 349 351 349 349 346 345 346 345 348 346 342 339 341 340 336 339 337 335 333 332
297 295 293 297 302 298 295 295 298 300 300 300 301 302 303 304 308 309 312 313 313 318 319 319 321 329 349 346 349 347 347 348 349 348 346 346 346 346 346 343 339 341 338 337 336 336 333 332 333
298 294 292 297 300 296 295 295 298 300 301 301 302 303 303 305 306 308 309 312 312 312 319 320 318 321 336 347 347 350 349 348 350 350 347 347 347 346 345 345 342 342 341 337 337 336 333 333 334
294 293 293 294 298 298 296 293 296 301 302 304 304 305 305 305 306 308 312 313 316 315 318 323 323 323 324 338 346 344 346 345 344 346 349 348 348 347 345 344 343 341 341 339 338 336 333 331 334
291 298 298 297 293 286 296 284 293 298 300 302 303 302 304 306 307 308 309 311 313 315 319 318 327 331 330 329 333 340 339 339 343 345 347 348 348 347 345 344 343 341 340 338 337 338 335 332 331
295 300 298 297 292 290 292 287 291 297 298 301 302 304 304 306 307 308 310 312 312 314 314 319 319 322 323 324 329 328 331 337 340 342 341 344 348 348 347 345 343 341 339 337 338 338 340 337 332
303 298 295 293 290 283 291 290 290 296 297 300 302 303 305 305 307 307 308 309 309 310 312 313 316 317 320 320 321 324 327 329 333 336 338 340 343 346 347 348 345 343 340 340 340 340 341 340 336
300 291 283 281 282 284 296 292 294 300 302 303 301 302 303 304 304 305 304 306 307 307 308 312 312 312 316 319 320 320 319 323 326 329 334 336 338 341 343 345 345 341 341 342 343 340 339 341 339
298 295 287 283 281 286 295 290 295 302 303 303 304 303 304 303 304 304 305 305 306 307 309 310 311 311 313 315 316 319 321 322 322 323 325 335 337 339 343 342 343 341 340 341 342 341 343 341 341
297 292 297 289 290 284 289 294 299 302 302 302 302 303 299 301 303 304 303 306 305 305 307 309 309 310 312 312 312 314 319 322 323 323 325 326 336 341 340 342 341 341 336 338 346 343 343 344 344
298 300 288 289 281 279 287 289 289 293 295 298 296 296 297 299 300 304 305 305 306 305 306 307 309 311 309 310 311 314 314 318 319 320 323 325 328 338 340 341 342 341 341 343 346 345 344 343 345
295 292 294 292 288 281 280 285 296 295 295 294 296 297 299 300 301 303 303 304 304 305 305 306 308 309 308 308 308 310 312 317 317 320 324 325 327 333 338 341 341 340 339 341 342 343 342 342 341
300 296 294 288 286 288 284 286 298 297 296 297 297 299 300 300 300 301 302 303 303 303 304 304 304 305 307 308 308 308 312 314 313 319 321 322 324 328 333 339 339 338 336 325 324 333 340 330 338

GFSSGP_sfc_thetae_090.txt.gz
Theta_e
324 314 315 311 300 296 294 300 307 307 307 312 314 324 326 327 323 314 343 352 357 357 360 362 363 363 362 361 361 361 360 360 361 361 361 361 362 362 362 362 362 362 359 356 352 353 354 353 352
317 317 311 305 295 289 293 303 304 308 311 315 313 330 330 328 341 343 347 356 358 358 359 359 363 363 362 361 361 360 360 360 360 361 361 361 361 361 362 362 362 361 358 354 353 353 354 353 352
318 315 303 298 293 291 295 304 307 310 312 313 313 334 332 334 342 344 352 356 358 356 358 360 363 362 362 361 360 360 359 359 360 361 361 361 360 360 360 360 360 359 355 353 352 354 355 354 353
310 306 302 294 292 297 302 306 309 311 313 314 328 328 335 342 343 350 356 357 356 356 357 361 363 362 361 361 360 360 359 359 359 361 361 361 361 360 359 359 358 357 355 353 353 356 356 355 353
304 299 293 290 294 298 304 308 310 309 312 312 321 328 330 342 352 355 355 355 354 356 357 360 362 362 361 361 361 360 359 359 359 360 361 361 360 359 359 358 358 356 355 354 353 355 356 355 354
296 297 288 289 294 300 303 306 310 310 312 311 316 316 319 343 348 352 353 352 357 356 358 359 362 362 360 360 360 359 359 359 359 359 360 360 359 359 358 357 357 355 355 354 354 355 354 353 352
293 290 287 290 293 296 302 306 307 309 312 312 315 311 315 325 347 352 351 352 357 358 357 358 359 361 361 359 359 359 358 358 358 357 358 358 358 358 357 356 355 354 354 353 352 352 352 350 348
295 291 287 290 292 294 303 305 307 308 313 318 318 309 307 315 341 348 350 351 354 355 355 356 357 357 356 356 359 359 358 358 357 357 357 357 358 357 357 353 353 353 352 351 349 349 348 346 344
297 288 285 288 292 294 303 301 308 314 316 317 316 314 315 319 329 338 343 349 351 352 352 353 356 357 356 355 357 358 359 359 357 357 357 354 352 353 354 352 354 353 351 350 348 347 345 343 342
292 285 289 295 296 295 300 300 304 304 310 315 315 319 318 317 312 316 336 341 348 348 349 350 354 352 355 357 356 354 356 356 354 354 353 351 350 349 352 351 354 352 351 350 348 346 344 343 327
291 290 294 297 299 300 300 301 305 302 307 315 314 314 313 312 310 311 323 337 342 346 349 350 349 350 350 353 355 355 355 355 353 353 352 348 349 349 349 344 348 343 349 340 342 338 334 330 328
289 295 297 299 301 300 299 304 303 305 307 318 319 313 309 308 308 307 309 333 340 344 346 346 346 348 349 354 352 350 351 352 353 353 350 347 346 346 345 343 344 340 339 335 334 331 330 328 326
292 295 298 300 300 300 301 301 303 301 308 316 316 315 314 307 308 308 308 311 337 341 343 338 337 338 346 351 341 344 349 351 352 351 351 348 345 345 343 342 341 339 336 334 330 328 328 326 325
296 297 298 299 299 299 300 301 300 304 306 309 307 307 307 308 308 305 307 309 332 340 338 333 339 345 346 341 335 336 337 352 352 351 351 349 347 345 343 341 339 338 335 334 330 328 326 324 324
299 294 297 298 297 297 302 297 298 302 303 304 305 306 307 307 307 306 307 310 311 335 337 332 340 347 346 342 336 333 336 351 352 351 351 351 348 346 345 342 339 337 336 333 327 326 325 324 325
295 293 288 294 298 299 298 293 299 302 300 300 303 304 306 306 307 307 310 314 319 325 334 330 339 346 344 340 336 336 337 345 351 351 352 352 351 347 345 341 339 338 335 333 329 326 326 326 327
290 286 288 292 297 297 296 292 300 302 300 300 300 302 304 305 306 308 309 310 315 331 338 338 338 335 335 334 334 332 339 345 347 348 349 350 352 349 345 344 340 339 335 332 331 327 325 327 328
287 287 290 291 298 298 295 295 298 299 301 300 299 301 302 304 305 307 308 310 318 319 339 340 335 333 328 327 335 343 347 345 346 345 344 346 349 349 344 343 342 336 337 333 331 328 328 328 330
293 292 291 294 298 296 294 296 297 297 298 298 298 299 300 302 306 306 307 309 313 318 325 332 336 335 331 330 341 344 344 342 344 343 344 343 345 347 346 344 342 337 336 336 330 332 331 329 330
294 292 292 294 299 295 295 294 297 297 298 299 300 299 300 300 302 305 308 312 311 313 315 316 315 326 341 344 346 346 345 345 346 348 345 343 344 344 345 345 343 340 339 336 336 333 331 331 331
293 291 291 292 296 295 293 291 293 298 300 301 300 301 302 302 303 307 310 310 313 315 318 321 324 322 324 331 342 343 343 340 340 341 344 347 346 345 344 343 345 343 341 339 337 336 334 331 329
290 297 296 296 291 286 294 283 290 295 297 299 300 300 302 304 305 308 308 308 310 311 316 317 317 318 320 324 324 326 333 333 336 339 341 342 344 346 345 342 341 343 341 340 338 338 336 334 329
294 298 296 295 289 287 289 285 289 294 295 297 299 302 302 304 305 306 307 309 309 310 312 314 313 315 317 318 319 321 321 326 332 334 336 337 340 342 346 344 342 340 340 339 340 338 336 335 332
303 298 294 291 288 282 287 287 286 292 295 297 299 301 303 303 304 304 305 306 307 307 308 310 310 311 313 316 318 318 317 316 318 321 326 331 334 336 340 343 343 343 341 338 338 338 336 336 334
298 290 282 281 281 281 294 291 291 298 300 299 299 300 303 303 303 304 304 304 303 304 305 308 308 308 310 313 314 314 314 315 316 319 321 326 329 330 332 339 340 341 342 341 339 338 336 337 336
296 292 286 281 281 286 295 289 293 301 302 301 302 301 302 301 302 302 303 303 303 304 306 307 307 307 308 310 311 311 312 314 316 318 319 318 322 327 329 333 339 340 339 339 335 327 326 326 328
296 290 296 289 290 285 289 294 297 300 300 301 300 301 299 299 300 301 302 302 303 302 303 302 304 305 306 309 307 308 310 312 314 316 319 319 320 324 325 327 334 338 339 337 334 330 326 326 326
298 300 289 287 280 279 287 289 289 292 294 297 296 295 297 298 299 299 300 300 301 301 301 302 302 303 305 306 306 308 307 310 312 315 315 316 320 322 323 323 325 331 338 335 332 329 327 326 329
293 292 293 291 288 280 280 285 296 295 294 292 294 295 295 295 296 297 298 299 299 299 300 301 301 301 302 304 304 304 305 307 310 312 314 319 320 318 319 320 322 326 332 334 329 325 327 329 334
297 296 294 287 284 285 282 285 297 295 295 294 293 294 295 295 296 297 298 298 299 299 301 301 302 302 304 304 304 303 304 304 305 309 312 317 316 317 318 322 321 325 329 332 333 333 335 334 333

GFSSGP_sfc_thetae_093.txt.gz
Theta_e
326 313 312 310 298 296 294 298 304 305 307 309 310 310 322 325 321 312 343 350 355 356 357 359 363 363 362 362 361 361 361 360 360 360 360 361 361 362 361 361 361 361 356 353 353 354 353 352 352
320 314 309 303 294 288 293 301 303 305 308 310 311 318 328 326 342 342 344 354 355 357 358 358 363 362 362 361 360 360 360 360 360 360 361 361 361 361 361 361 361 359 355 352 353 354 353 353 352
315 311 302 297 291 290 293 303 305 308 311 309 310 332 330 331 343 343 352 355 356 356 358 359 363 362 362 361 360 360 360 359 360 360 361 361 361 361 360 361 361 358 355 352 353 354 355 354 352
308 304 300 293 291 294 299 304 307 307 310 311 322 327 334 341 342 349 355 356 354 355 357 361 362 361 361 361 360 360 359 360 360 360 360 360 360 360 360 360 360 358 354 353 354 355 355 355 352
302 299 292 289 291 295 302 305 306 305 308 309 316 326 328 346 353 354 355 355 353 353 356 360 361 361 361 360 360 359 359 359 359 360 360 360 359 358 358 358 358 357 356 354 354 356 356 355 353
295 295 287 287 293 297 300 304 305 305 308 310 315 316 318 347 350 352 353 352 355 353 357 358 361 360 360 360 360 359 358 358 359 359 359 359 359 358 358 357 357 356 355 354 354 355 354 353 352
292 289 285 287 291 294 300 304 302 304 306 307 314 311 314 331 348 352 351 354 355 356 356 357 358 358 360 359 359 358 357 357 357 358 358 358 358 358 358 356 355 355 354 354 354 354 354 353 352
294 290 286 288 289 290 300 302 304 304 306 314 317 308 308 315 348 348 349 353 353 355 355 355 356 355 355 355 359 358 358 357 357 357 357 357 358 357 357 353 353 354 353 353 352 352 352 351 349
295 287 282 286 290 291 298 298 303 308 305 307 317 313 314 336 341 344 348 350 350 351 352 354 354 353 352 353 356 358 358 358 357 357 357 353 350 352 352 352 353 353 352 351 350 349 349 348 347
290 283 286 292 293 292 296 297 299 301 303 303 314 318 319 321 336 340 344 344 346 347 350 352 352 353 352 355 352 352 354 353 352 352 352 349 347 347 351 351 353 353 352 350 349 348 347 345 328
289 287 291 294 296 296 297 298 300 299 298 302 308 315 316 312 315 336 343 345 346 348 350 350 351 352 351 354 353 352 353 352 351 351 350 347 347 347 348 344 347 344 349 340 343 339 335 329 326
286 293 293 296 297 297 295 299 298 300 301 306 311 318 313 313 307 310 332 343 344 346 349 351 352 352 351 353 352 352 352 352 351 352 352 345 343 343 344 343 343 342 340 337 334 332 329 327 325
289 292 294 296 296 295 298 296 298 299 304 307 313 317 315 315 316 307 319 339 343 343 345 348 350 350 351 352 352 350 350 350 351 351 351 349 345 344 344 343 340 341 337 336 332 331 328 325 324
295 296 297 297 295 295 295 297 298 300 306 307 312 313 317 318 318 313 308 325 340 343 344 345 347 341 349 350 350 350 350 351 351 350 351 350 346 344 344 342 340 339 337 335 331 328 326 324 322
298 292 294 295 295 294 297 294 296 303 304 303 306 304 313 313 313 307 307 315 338 340 343 341 338 338 347 346 346 346 348 350 350 350 350 350 348 344 344 342 340 339 336 332 329 325 324 322 322
293 291 287 293 295 296 296 289 297 301 301 300 301 302 303 305 308 307 308 311 313 331 337 338 339 340 344 343 342 339 331 337 346 349 350 350 348 346 343 343 341 340 335 332 329 326 324 323 321
288 285 286 291 295 295 293 291 298 301 299 299 300 300 301 302 306 307 310 310 320 320 331 329 332 339 343 344 337 335 329 334 340 345 347 349 349 348 344 343 343 339 336 333 331 329 323 320 321
285 285 288 289 294 294 292 292 297 299 298 298 298 299 299 301 304 307 309 309 314 328 332 328 333 339 338 333 331 333 341 341 342 343 344 348 350 350 347 345 344 341 338 335 333 330 325 322 325
292 290 289 293 297 293 292 292 294 296 297 297 297 298 297 299 302 305 308 310 313 318 328 332 331 330 329 327 328 330 334 342 341 343 345 343 345 350 348 346 344 340 337 336 333 330 329 327 327
292 290 290 293 296 293 293 293 294 295 296 296 298 298 298 297 301 309 310 312 313 312 316 320 322 332 330 329 328 332 336 342 344 341 342 343 342 344 345 345 344 341 338 336 335 331 330 330 329
292 289 290 290 294 294 291 290 292 296 299 300 300 299 299 300 301 307 310 311 313 315 318 319 318 322 327 338 339 340 339 338 337 338 341 343 342 343 344 344 342 341 338 338 336 335 332 330 330
290 296 295 294 290 285 292 282 289 293 296 298 298 298 300 303 304 306 306 306 310 313 314 315 317 317 319 320 321 324 328 328 333 333 337 337 342 343 343 342 341 342 342 339 339 338 335 335 331
292 297 295 294 288 286 287 284 287 291 293 296 298 301 301 303 304 304 305 307 307 310 310 310 311 312 314 316 318 319 317 321 324 325 325 327 331 337 342 342 341 341 341 342 340 339 337 336 334
301 295 292 289 287 281 286 285 285 291 293 295 298 300 302 302 303 304 304 305 305 305 308 307 307 309 311 312 314 313 312 313 314 316 320 322 325 329 334 337 338 340 340 339 340 339 339 336 335
296 289 282 280 281 280 291 288 289 296 297 298 297 299 300 301 301 301 300 301 301 301 303 307 305 305 307 308 310 311 312 310 311 312 313 317 320 324 326 329 332 335 339 339 339 338 337 337 334
294 291 284 279 280 283 292 286 291 298 299 300 299 297 298 298 298 298 299 299 300 301 301 301 302 302 303 305 307 307 307 308 309 311 313 315 316 319 323 325 328 331 334 336 338 339 337 337 332
295 288 292 287 288 281 287 291 294 298 299 297 297 297 296 296 296 297 298 299 299 299 299 299 300 300 301 302 303 304 305 305 307 309 312 315 316 319 319 322 323 325 330 333 335 335 336 335 334
296 298 288 286 280 278 285 287 287 291 291 293 293 293 294 295 295 296 297 297 298 297 298 299 299 299 300 301 301 303 303 304 305 306 308 311 315 316 319 321 320 319 321 325 330 333 334 331 331
293 290 289 289 286 280 279 284 292 289 291 291 292 293 293 294 294 295 296 297 297 297 298 299 299 299 300 300 301 301 302 302 303 305 308 309 311 316 319 318 318 318 320 322 325 328 331 331 330
294 294 291 283 285 283 280 285 293 292 293 292 292 294 294 294 294 295 295 296 297 298 298 299 299 299 300 300 300 300 301 301 302 303 305 307 309 311 314 317 318 320 320 321 323 324 328 328 327

GFSSGP_sfc_thetae_096.txt.gz
Theta_e
324 314 310 309 297 296 293 297 302 303 304 308 309 307 307 322 319 312 343 351 355 355 359 361 362 363 363 363 362 362 361 361 362 362 361 361 361 361 361 361 361 360 357 354 353 353 353 353 354
318 311 308 302 293 288 292 300 299 302 305 308 309 322 324 324 340 341 342 354 355 355 357 359 362 362 363 362 361 361 361 361 360 361 361 361 361 361 361 361 360 358 355 353 353 353 353 353 354
313 308 302 297 291 291 293 301 302 304 308 308 309 323 329 328 342 343 351 354 355 354 355 358 362 362 361 361 360 360 360 360 360 360 360 361 360 360 360 360 360 357 353 353 354 354 356 356 355
305 302 299 293 292 295 298 302 302 304 307 308 308 316 332 346 343 348 354 355 354 354 356 361 361 360 361 361 360 359 359 360 360 360 360 360 360 360 360 360 360 358 354 354 356 356 356 355 355
301 297 289 287 291 296 301 304 303 302 304 306 309 322 323 346 353 354 353 354 351 352 356 358 361 360 360 360 359 359 359 359 359 359 360 360 360 359 359 360 359 358 356 356 356 356 356 355 354
294 295 287 285 290 296 300 302 302 302 304 306 307 313 319 348 350 352 353 351 353 352 355 356 358 360 360 360 359 358 358 358 358 358 359 359 358 358 358 358 357 357 355 355 356 356 355 354 353
291 288 285 286 290 293 299 302 300 301 302 304 306 309 315 338 349 350 352 352 354 355 354 354 355 357 360 359 358 358 358 358 357 357 358 357 358 358 357 357 356 355 355 354 355 355 354 353 352
292 289 285 288 287 289 298 300 302 301 303 309 312 305 305 322 347 351 352 351 351 352 352 353 353 354 355 356 358 358 357 357 357 357 357 357 357 357 357 353 354 354 354 353 353 354 353 352 351
293 285 282 285 288 290 296 294 300 305 303 304 306 311 314 344 346 348 347 349 348 349 351 352 354 354 353 353 356 357 357 357 357 357 357 354 352 354 354 353 352 353 353 352 351 351 351 351 351
289 283 285 290 291 291 293 295 295 298 299 299 304 312 325 340 342 343 343 343 344 346 347 350 351 350 351 354 353 352 353 353 352 353 353 350 348 349 351 352 353 353 352 351 350 349 349 349 339
287 286 289 291 294 295 294 294 297 296 295 299 300 307 313 325 333 339 342 343 345 348 349 350 350 350 351 351 352 351 353 352 351 350 350 348 347 348 350 347 349 348 351 344 347 344 342 337 334
285 291 292 291 295 295 293 295 296 297 298 303 304 306 310 309 319 333 338 342 343 346 348 349 350 351 351 351 350 349 350 350 349 351 350 347 346 345 347 345 344 344 343 342 339 338 336 334 330
287 291 293 295 294 294 295 294 295 295 301 303 303 306 311 311 311 312 326 339 343 344 347 348 350 350 351 349 348 348 349 349 349 350 351 349 346 344 345 345 343 343 341 339 336 334 333 331 329
294 294 294 294 294 293 293 294 295 298 301 301 303 307 313 314 315 312 313 329 341 345 346 349 349 350 351 350 349 348 349 350 350 349 349 349 346 344 344 344 343 342 341 339 336 332 331 329 327
295 292 294 294 292 293 294 292 293 300 300 301 302 306 309 314 316 318 315 315 336 342 345 346 348 350 349 350 350 349 350 350 350 350 350 350 348 345 344 343 342 342 340 338 335 331 329 326 326
291 290 286 292 293 294 294 288 296 299 298 299 301 301 303 306 312 308 309 310 314 339 341 344 347 344 345 349 348 348 346 342 347 349 351 351 350 347 344 342 341 342 339 337 335 332 329 326 325
288 283 285 290 293 292 291 290 296 299 297 297 298 299 301 302 304 308 310 317 315 320 334 338 341 339 340 346 342 339 335 334 341 346 349 350 350 349 344 343 343 342 340 337 336 332 331 329 325
283 284 286 287 293 293 291 291 295 296 297 297 298 298 299 300 301 307 312 317 313 324 328 331 332 335 340 337 334 336 336 338 339 341 345 348 349 349 346 345 344 342 340 337 335 335 330 331 330
290 288 287 291 295 292 291 290 294 295 294 295 296 297 299 299 304 305 307 312 317 325 332 330 330 334 336 333 331 331 333 337 342 343 345 346 349 350 348 346 345 342 339 339 336 335 333 330 329
290 288 288 292 294 292 291 291 293 294 294 294 296 296 298 298 305 308 307 309 314 319 329 330 330 330 331 330 330 333 334 336 341 345 344 345 345 346 347 346 344 340 338 338 337 334 333 333 331
290 288 289 289 293 292 290 289 290 295 297 300 299 298 299 300 302 307 310 311 314 316 317 319 321 329 333 331 333 336 339 339 338 340 341 343 343 343 344 345 341 338 339 337 338 336 333 331 333
287 294 294 292 288 283 290 281 288 291 293 297 298 299 301 302 304 306 307 309 311 313 316 316 317 318 321 327 330 333 334 333 333 333 338 336 341 342 344 343 343 342 338 336 336 339 337 334 331
292 296 293 291 287 285 286 283 286 291 292 295 298 300 301 302 303 304 305 306 307 308 308 308 311 312 314 318 319 319 319 321 322 323 323 324 329 339 342 343 343 341 341 339 339 339 339 337 335
299 294 290 288 285 280 284 284 284 290 292 295 298 299 299 299 300 300 300 302 301 302 304 304 305 305 307 308 310 310 311 313 314 315 316 318 321 325 330 338 341 341 340 340 340 340 340 338 337
295 288 281 279 279 280 289 286 287 295 297 297 297 295 296 297 297 298 298 298 299 299 300 303 301 302 303 304 305 306 306 308 309 309 310 312 315 319 323 328 331 334 338 339 340 339 338 338 337
292 289 283 277 278 281 290 284 290 296 296 297 296 296 296 296 296 296 297 297 297 299 299 300 300 300 302 303 303 304 304 305 305 307 308 310 312 315 319 323 326 329 333 336 338 338 338 338 337
293 289 293 287 286 281 285 289 293 294 295 295 295 295 294 294 295 296 297 297 297 298 298 299 299 300 301 301 301 302 303 304 304 305 307 308 311 314 317 320 322 325 329 332 333 334 336 337 336
294 296 287 286 280 278 282 285 285 289 291 292 292 292 294 294 295 295 296 297 298 298 298 298 299 299 300 300 300 302 301 303 304 304 304 306 309 312 314 316 319 322 323 324 327 329 332 333 334
291 289 289 288 283 280 278 282 290 290 291 291 291 293 293 294 294 295 295 296 297 297 297 297 298 298 298 299 299 299 300 301 302 302 303 305 306 308 309 313 316 319 320 320 320 322 326 328 330
292 290 289 284 283 280 278 281 292 290 291 292 292 293 293 294 294 294 295 295 296 296 297 298 299 299 300 300 300 299 300 300 299 300 301 303 304 306 307 309 312 314 318 320 321 320 323 325 325

GFSSGP_sfc_thetae_099.txt.gz
Theta_e
328 319 319 319 306 307 302 304 309 308 309 314 315 313 317 321 321 321 352 356 356 358 363 362 363 364 364 364 364 363 363 362 362 362 361 361 361 362 362 361 362 363 359 357 354 355 356 355 355
322 316 318 313 302 298 301 306 306 308 311 314 315 315 320 328 342 345 348 356 357 360 363 361 363 363 364 363 362 362 362 362 362 362 361 361 361 362 361 361 361 360 356 354 353 354 354 355 355
317 314 311 307 303 297 299 305 307 309 313 312 312 316 332 334 343 346 355 358 359 360 362 362 362 362 363 362 361 361 361 361 361 361 362 361 361 361 360 360 360 358 354 353 353 355 356 357 356
314 314 309 302 298 302 302 306 307 309 311 313 312 316 330 351 350 353 358 358 357 359 360 361 361 361 362 361 361 360 360 361 361 361 361 361 360 360 360 360 359 357 355 356 357 357 357 357 356
312 308 300 297 298 301 304 307 309 308 309 310 311 311 314 347 356 357 357 357 355 357 360 360 361 361 361 361 360 360 360 360 360 360 361 360 360 360 360 360 359 358 356 357 357 356 356 356 355
305 306 295 293 296 300 304 307 308 307 309 309 309 311 316 352 353 355 357 356 356 356 359 359 360 360 360 360 360 359 359 359 359 359 360 360 360 360 360 359 359 358 356 357 357 356 356 355 354
301 300 294 294 295 297 301 307 305 305 306 306 311 308 319 338 353 356 356 356 355 357 358 358 357 359 360 359 359 359 358 358 358 358 358 358 358 358 358 357 357 356 356 355 356 356 355 354 353
302 301 294 295 293 294 301 303 306 304 302 312 313 310 313 331 353 356 355 354 354 356 356 356 357 355 355 357 359 358 358 357 356 357 357 357 357 357 357 354 355 355 355 354 355 355 354 353 352
301 295 292 293 294 296 302 301 305 308 305 307 310 310 317 346 354 352 351 351 351 352 353 355 354 355 354 353 355 357 358 358 357 357 357 354 352 355 355 353 354 354 354 353 353 353 353 352 352
299 294 294 297 299 298 300 300 301 301 302 303 306 311 329 347 350 349 347 346 347 349 350 353 353 355 353 351 355 354 353 354 354 354 355 353 355 356 353 354 354 354 353 352 352 351 351 350 345
297 294 296 298 299 301 300 299 302 300 299 303 305 309 311 331 345 347 348 348 348 350 350 353 353 355 353 350 354 353 353 354 355 355 356 355 354 354 353 351 352 352 352 346 346 344 342 341 342
293 297 297 298 299 300 299 301 300 302 303 308 309 310 310 311 322 342 347 348 350 351 352 353 353 355 355 351 351 351 352 353 351 352 355 353 351 352 351 349 349 352 349 348 347 342 342 343 340
294 298 299 300 300 301 301 300 301 301 306 309 308 309 309 311 318 336 346 351 353 352 353 355 355 356 355 355 351 350 352 352 351 352 354 353 350 350 350 350 349 349 348 347 346 344 342 340 339
301 300 301 302 301 300 299 300 300 304 308 307 307 308 311 312 317 320 330 336 348 351 353 356 355 357 356 355 353 351 353 353 352 351 353 354 352 351 350 351 350 349 349 348 347 345 343 340 338
301 298 301 302 302 301 301 298 299 307 307 306 307 309 313 317 318 320 322 325 334 344 350 356 357 357 356 356 354 351 351 350 350 351 354 355 355 353 352 349 348 349 351 352 350 348 345 342 340
298 298 295 301 300 299 300 296 304 307 304 305 307 309 310 314 319 322 325 327 329 333 342 350 354 356 356 356 356 354 352 351 351 352 353 353 354 353 352 349 348 349 350 349 348 347 345 344 342
296 293 294 297 301 299 299 298 305 307 304 306 308 309 309 312 312 320 324 328 327 334 334 341 350 354 356 356 355 353 349 349 351 353 353 354 355 355 353 350 349 351 349 348 347 346 345 344 345
292 292 293 294 299 300 299 299 304 305 303 306 308 309 309 309 312 314 319 325 329 332 333 336 341 350 352 352 352 353 350 343 344 348 352 353 354 353 354 352 351 351 349 349 347 346 347 343 341
295 294 293 297 300 298 299 299 303 305 304 304 305 307 308 309 311 313 316 321 325 329 333 333 337 342 345 346 346 347 347 346 346 349 347 349 354 354 356 352 353 353 350 349 345 345 336 339 341
295 293 294 297 300 299 299 299 302 303 303 305 305 306 307 308 310 314 315 320 324 328 334 337 335 339 344 344 345 345 345 345 347 349 351 351 352 355 355 356 354 352 347 343 344 335 333 336 340
295 294 294 294 298 300 298 297 299 302 304 308 308 308 309 308 311 317 320 323 325 327 329 329 334 338 341 344 342 343 346 346 345 346 348 351 352 353 355 356 353 352 342 338 334 336 335 331 333
292 299 297 297 295 292 297 289 297 300 302 306 308 309 310 312 317 318 318 316 317 317 320 322 322 322 324 333 343 343 342 342 345 344 344 342 348 350 351 351 351 350 347 345 341 340 341 338 332
296 300 298 298 296 294 294 292 296 300 300 304 306 307 308 310 310 309 310 311 312 313 314 316 316 316 317 318 321 321 323 323 326 328 330 334 336 338 343 349 351 351 349 347 345 344 341 339 334
301 298 296 295 294 289 294 293 293 298 301 303 304 304 305 306 307 307 308 310 310 311 312 313 315 314 315 315 316 316 316 316 316 318 318 320 322 324 331 334 342 347 347 348 347 347 345 343 342
300 297 289 287 287 287 295 292 295 301 303 306 303 303 304 305 306 306 306 307 308 308 309 310 311 312 313 313 313 313 314 314 314 315 314 316 316 318 322 326 328 331 340 344 345 345 345 346 346
298 297 290 283 285 288 295 291 297 301 303 304 303 303 304 304 305 305 305 306 306 307 308 309 309 310 311 311 311 312 312 311 311 313 312 312 313 315 320 321 324 327 329 334 343 340 340 344 341
297 294 298 292 292 290 293 296 298 300 300 301 300 302 302 302 303 303 304 306 306 307 308 308 308 309 310 309 310 310 311 310 310 311 312 311 313 313 315 317 319 321 324 328 335 334 339 341 340
300 301 293 294 284 283 290 292 294 296 298 299 300 300 301 302 302 303 304 305 306 307 307 308 308 308 308 309 309 309 309 309 309 310 310 310 311 312 312 313 314 316 319 323 328 331 336 337 335
297 296 295 296 293 287 285 290 298 301 300 299 299 299 300 300 300 302 304 305 305 306 306 306 307 306 307 307 307 307 307 307 308 307 307 307 308 309 309 310 311 313 314 317 321 325 328 329 332
300 298 298 292 290 292 291 290 298 299 300 300 299 299 300 300 301 302 302 303 304 305 304 305 305 305 306 306 305 305 306 306 305 305 306 306 306 307 307 309 309 310 311 314 315 317 322 325 326

GFSSGP_sfc_thetae_102.txt.gz
Theta_e
332 322 323 322 310 311 309 311 315 314 314 318 320 318 318 324 326 324 357 359 358 360 366 363 364 366 366 366 365 364 362 361 361 362 361 361 361 362 362 363 364 363 360 358 358 356 355 354 353
322 319 321 318 305 304 308 314 312 314 315 318 319 320 322 327 343 346 352 359 360 362 367 364 364 365 366 365 364 363 363 362 362 361 361 361 361 362 362 363 364 361 358 355 355 356 356 355 354
321 319 312 308 306 302 307 312 315 315 316 316 316 322 331 335 347 350 360 360 361 364 366 366 364 364 365 364 363 363 363 363 363 362 361 362 362 362 361 362 362 358 355 354 354 355 356 356 355
315 315 313 304 302 307 307 311 314 313 315 316 316 317 325 337 349 358 358 359 361 361 363 363 363 363 363 364 363 363 363 362 362 362 362 362 362 361 361 361 360 358 355 354 355 356 356 357 356
316 312 303 302 302 306 309 312 314 312 313 315 315 314 318 347 358 359 357 358 358 359 362 363 362 362 363 363 362 362 362 362 362 362 362 361 361 360 360 360 359 357 356 355 355 355 356 357 356
307 309 300 299 302 305 308 311 312 311 312 312 311 313 319 345 355 358 358 357 357 357 361 362 362 362 361 361 361 361 360 361 361 360 361 361 360 360 360 360 359 357 357 357 356 355 355 356 355
306 304 300 301 301 302 305 309 308 307 307 308 312 309 320 330 355 359 359 358 357 358 359 359 357 361 361 360 360 359 359 359 359 359 359 360 360 360 360 359 359 358 357 357 357 355 354 354 354
307 305 300 301 300 300 305 307 307 306 305 311 313 309 318 330 350 359 358 357 356 356 357 357 357 355 356 358 360 359 359 359 358 358 358 358 359 359 358 356 357 357 356 355 355 355 354 354 354
308 300 298 300 299 301 305 303 307 309 307 308 312 314 318 331 346 355 354 354 352 352 356 357 357 354 352 351 356 358 358 358 358 358 358 355 353 357 357 353 356 355 355 355 354 354 355 354 353
303 299 300 304 304 302 304 303 304 303 305 305 307 312 316 328 338 344 350 349 349 350 354 357 360 356 352 349 355 353 353 354 354 354 357 353 352 354 350 353 356 355 354 354 353 353 352 350 344
303 300 303 303 304 304 303 303 306 304 302 306 306 310 315 316 328 337 346 350 349 352 355 356 359 361 355 350 352 351 351 352 353 354 355 354 350 353 351 351 353 353 352 347 346 343 341 340 341
299 303 303 303 303 304 303 306 304 305 306 309 310 312 315 315 316 328 339 346 352 352 354 358 359 360 359 352 351 351 350 352 352 354 357 353 351 352 351 347 348 351 347 347 345 341 341 341 342
300 302 304 304 306 306 307 305 305 306 309 311 311 313 314 315 317 320 337 341 346 350 355 355 359 359 360 357 352 352 351 351 353 353 356 355 353 352 351 348 347 346 346 345 346 344 343 343 342
304 303 305 306 307 307 304 305 305 308 311 310 312 313 315 316 318 327 339 340 341 343 351 357 360 361 362 360 358 355 355 355 354 353 354 355 354 354 353 353 353 351 349 347 346 345 344 344 341
305 302 304 305 307 306 308 303 304 310 310 310 311 313 315 318 320 327 335 332 334 333 341 355 358 361 363 362 360 358 354 353 352 354 358 357 357 358 356 353 353 354 356 358 356 354 351 348 345
302 303 299 305 306 306 305 300 306 310 310 309 311 313 315 318 321 324 326 328 335 332 334 342 342 351 361 362 361 359 356 354 352 353 354 357 358 358 356 353 352 354 355 354 353 352 351 350 349
301 297 298 301 306 305 304 301 306 311 310 309 311 313 313 316 321 326 326 328 332 335 336 343 345 346 351 358 359 360 362 358 355 355 354 356 356 354 354 353 353 357 353 352 351 350 351 348 349
294 296 298 298 303 304 303 303 307 309 309 309 311 312 313 315 317 321 326 327 331 336 341 342 346 353 351 352 355 357 356 357 357 356 354 356 356 352 354 355 356 354 352 350 351 352 351 350 348
299 298 297 300 304 302 302 303 306 308 309 309 311 311 313 314 317 319 320 327 328 333 337 337 339 347 347 342 345 349 349 353 354 355 359 358 358 357 353 353 354 350 354 353 349 350 351 348 349
300 298 297 300 303 303 303 302 306 307 309 311 310 311 313 314 315 318 320 323 326 331 338 340 343 344 344 344 346 347 349 350 355 355 357 356 354 355 354 355 356 358 351 352 351 350 345 343 345
298 297 297 296 301 303 302 301 303 307 309 312 313 313 315 314 318 320 322 327 331 334 338 342 346 348 346 347 347 348 349 349 346 348 354 355 356 356 349 353 356 358 358 351 352 350 348 339 339
295 300 299 298 298 294 303 293 302 305 306 310 313 314 315 318 321 322 323 324 325 327 329 330 330 332 332 337 343 345 344 343 343 347 347 347 350 353 354 355 355 356 356 352 350 347 345 343 336
298 301 300 300 299 299 299 295 300 305 303 308 311 314 317 319 318 318 318 319 321 322 323 325 326 325 326 327 327 326 329 327 330 332 333 336 339 340 342 347 348 353 354 353 352 352 348 343 340
303 301 301 300 298 292 297 296 297 301 304 308 310 312 313 314 315 316 317 318 318 319 320 321 323 323 324 323 323 322 322 323 322 325 324 325 326 328 331 333 337 343 346 346 347 351 351 350 347
302 300 292 290 290 289 299 296 298 305 308 310 310 311 312 314 314 314 314 315 316 316 318 318 320 320 321 321 322 321 322 323 322 321 320 322 321 322 328 330 331 330 334 336 342 348 349 348 345
300 300 292 286 287 290 299 292 299 308 309 312 312 312 312 312 313 312 312 313 314 315 317 317 318 319 320 320 320 321 322 319 319 321 319 319 319 320 325 324 325 326 329 330 333 334 337 343 342
299 297 302 295 296 293 295 299 304 306 307 308 308 309 310 310 310 310 311 313 314 315 315 316 317 318 318 318 319 320 320 319 318 319 320 318 320 319 320 321 321 322 323 324 329 326 335 341 343
302 303 295 296 287 286 291 294 295 302 304 307 307 308 309 309 309 310 311 311 313 314 315 316 317 316 316 317 318 317 317 318 318 317 317 318 318 318 318 318 319 319 320 321 323 324 329 334 335
299 298 299 299 296 289 288 293 303 305 307 307 307 308 308 308 308 308 310 310 311 312 313 314 314 314 315 315 315 315 315 315 315 315 315 315 315 315 314 314 315 315 316 318 320 321 321 324 332
304 300 300 294 292 295 294 293 304 307 309 309 308 307 308 308 307 308 309 309 310 311 312 312 313 313 313 313 313 313 314 314 313 313 313 314 313 313 312 312 312 311 312 314 314 313 316 319 322

GFSSGP_sfc_thetae_105.txt.gz
Theta_e
333 326 323 319 310 313 310 314 321 317 318 321 322 320 320 323 325 329 357 361 358 363 364 362 366 367 368 366 365 364 362 361 361 362 362 362 362 363 364 364 364 363 360 361 360 357 354 354 354
326 320 319 315 307 306 309 317 316 318 320 321 321 321 322 331 343 345 354 360 360 365 366 363 365 367 367 366 364 363 362 361 362 362 362 362 362 363 363 364 363 361 358 357 356 355 355 353 354
321 320 312 309 307 306 309 316 319 320 320 319 318 322 328 333 345 351 360 359 361 365 366 367 366 366 366 366 364 362 362 362 362 362 362 362 362 363 363 364 363 360 357 355 355 355 355 355 354
317 315 313 306 305 310 312 316 317 318 319 319 319 317 329 340 347 356 356 358 362 364 364 364 364 364 365 365 364 363 363 363 362 362 362 362 362 362 362 362 361 358 355 354 354 355 355 355 355
317 312 304 303 304 310 314 314 316 316 317 317 318 315 319 343 355 358 357 358 359 360 365 365 364 364 364 365 364 363 363 362 362 362 362 362 362 361 361 361 359 356 355 354 354 354 354 355 355
309 310 302 300 304 308 311 314 314 314 315 315 314 314 318 340 351 357 358 358 357 356 362 363 363 363 363 363 363 362 362 362 362 362 362 362 361 361 360 360 358 357 356 356 355 354 353 354 354
307 306 302 303 304 306 309 313 311 311 311 311 315 310 318 331 352 357 359 359 357 357 358 360 359 362 362 362 361 361 361 360 360 360 360 360 360 360 360 360 358 357 357 357 356 355 354 353 352
310 307 303 304 302 304 309 309 311 310 309 314 314 309 313 334 348 356 358 358 356 356 356 357 355 355 357 360 361 360 360 360 359 359 359 359 360 359 360 358 358 357 355 357 356 355 354 353 352
311 303 300 303 304 305 309 306 311 312 309 310 313 314 321 328 343 351 353 354 352 353 356 355 354 353 351 351 358 359 359 359 359 359 359 356 353 356 357 353 357 357 355 354 355 356 355 354 353
306 301 302 307 308 306 308 307 308 307 307 308 310 313 317 320 336 345 347 347 349 349 352 354 357 354 352 350 356 353 353 354 355 353 356 353 352 354 350 354 357 357 355 354 355 354 353 351 343
306 301 306 307 307 308 307 306 308 306 305 309 309 312 314 317 329 336 343 347 345 350 353 353 359 359 354 350 355 349 350 350 351 353 355 356 351 353 349 350 350 352 352 347 347 345 341 338 340
302 306 306 308 307 305 304 308 306 307 308 311 312 313 314 316 321 330 338 345 346 350 354 357 360 360 360 352 351 351 349 351 351 352 356 356 349 353 353 345 349 352 347 348 345 341 344 340 339
303 305 307 308 307 307 308 306 307 307 311 312 313 312 313 316 320 323 336 345 347 351 354 357 360 361 361 360 354 355 351 351 353 353 356 356 351 356 352 353 346 348 346 345 346 343 346 342 342
306 305 305 307 307 308 306 307 308 309 312 311 312 312 313 315 319 322 326 341 344 349 353 357 359 360 361 361 361 358 359 356 353 354 355 358 357 362 355 354 349 349 344 344 345 346 345 343 343
306 303 305 305 308 307 309 304 305 311 313 311 311 312 314 315 319 322 328 341 339 345 349 353 359 360 362 364 362 359 356 354 354 354 361 358 362 363 362 354 355 356 357 362 357 354 350 346 344
303 304 299 306 307 308 307 300 308 312 312 310 312 313 313 316 318 324 333 340 338 335 343 352 348 358 362 361 358 356 359 357 354 354 355 358 359 360 363 360 354 355 358 355 352 352 350 349 347
302 296 299 302 309 307 305 302 310 312 311 311 313 313 314 317 321 326 330 333 333 341 342 344 347 349 360 363 357 355 357 359 358 356 355 356 354 357 358 354 352 358 362 356 354 353 353 350 348
296 297 300 300 305 306 304 303 308 311 311 311 312 313 314 315 319 324 326 328 329 337 338 341 344 348 360 355 358 349 353 359 366 356 354 356 352 354 357 354 355 357 355 357 355 353 351 352 349
302 300 298 303 306 304 304 304 307 311 311 310 311 312 314 315 319 322 324 326 327 334 342 344 343 354 351 341 337 339 341 344 348 354 359 359 358 356 359 348 345 351 350 354 358 353 349 344 348
301 299 300 302 304 304 303 303 307 310 310 312 312 313 314 315 318 320 322 324 328 335 340 345 344 348 346 339 345 339 337 336 343 356 356 358 356 355 358 355 348 353 347 355 349 352 344 348 347
301 298 299 299 303 304 302 299 303 308 310 312 314 315 315 315 317 322 324 328 333 337 340 344 348 350 349 349 347 348 348 347 344 349 350 358 358 357 357 355 356 351 322 326 330 339 342 339 342
298 302 300 299 299 295 303 292 301 306 306 310 313 314 315 317 321 324 327 330 333 334 335 337 338 341 342 347 349 350 343 347 348 355 354 350 351 351 353 350 352 347 329 333 326 343 346 346 340
299 304 301 299 296 298 299 296 300 306 304 308 312 315 317 321 322 322 323 325 327 329 330 331 332 332 333 334 336 339 337 333 337 340 341 344 342 340 337 342 347 351 352 349 347 347 349 347 343
304 301 301 301 299 291 297 297 298 301 305 309 313 316 318 319 320 320 322 323 323 325 326 328 328 328 329 329 329 330 328 328 326 328 326 327 328 329 334 333 336 339 341 345 347 348 349 348 347
303 299 292 290 291 290 298 295 299 305 308 311 312 314 316 318 318 319 319 319 320 321 322 324 325 325 326 326 327 327 327 328 327 326 323 325 324 324 333 336 334 331 335 334 339 340 345 346 344
300 300 294 287 289 292 299 293 297 307 311 313 315 315 316 317 317 317 318 318 318 320 321 322 322 323 324 324 324 325 326 323 323 325 323 322 322 322 331 328 327 327 327 328 333 330 331 338 338
300 297 303 295 298 293 296 300 306 309 308 311 312 314 314 316 316 316 317 317 318 319 320 321 320 321 322 322 324 324 324 324 323 324 324 321 324 322 324 323 323 324 324 325 328 324 328 332 334
303 306 295 297 289 288 295 295 297 304 306 309 310 312 313 314 314 315 316 316 317 318 319 320 320 320 320 321 321 320 321 322 322 322 321 321 321 321 320 319 319 320 320 321 325 322 325 327 327
300 300 301 302 298 291 289 294 305 304 307 308 310 313 313 313 313 314 314 314 315 316 317 318 318 318 318 319 319 319 319 320 320 319 319 319 319 318 317 317 316 316 316 318 320 320 320 319 322
304 301 303 295 293 297 294 294 306 308 310 309 311 312 313 313 312 313 313 313 314 314 315 315 317 316 317 317 317 318 318 318 318 317 317 317 316 315 315 314 313 312 311 313 313 313 313 313 314

GFSSGP_sfc_thetae_108.txt.gz
Theta_e
327 321 321 316 306 309 307 310 318 317 318 323 322 320 319 321 330 329 355 357 359 357 361 364 367 366 365 364 365 363 361 361 361 361 362 362 362 363 364 363 363 363 363 360 359 356 356 354 355
320 323 319 311 303 302 306 314 313 318 320 322 321 320 320 333 342 350 354 357 361 359 360 361 367 367 365 365 364 362 361 361 361 362 362 362 362 363 364 363 363 362 361 360 358 355 354 354 355
321 321 310 306 303 301 305 314 316 320 321 320 318 322 322 333 344 351 357 359 363 362 361 364 366 366 366 365 363 361 361 361 362 362 362 362 362 363 363 363 362 361 358 357 356 356 357 355 354
314 314 311 302 302 308 309 314 318 319 320 320 320 316 329 341 345 354 355 358 363 361 360 364 365 365 366 364 363 361 361 362 361 361 362 362 362 363 363 363 362 360 357 356 357 358 358 357 356
316 310 301 300 302 308 313 316 317 315 318 318 319 315 322 342 352 356 356 358 359 359 364 362 365 365 365 365 363 362 362 361 361 361 362 362 362 361 362 361 360 359 357 357 357 357 357 357 357
307 308 299 297 301 307 311 314 314 314 317 318 316 315 317 342 348 355 355 357 359 361 364 361 364 364 364 364 363 362 361 361 361 361 362 362 361 361 361 360 359 358 357 357 357 357 357 357 357
305 303 299 300 301 304 308 313 311 312 313 314 317 311 316 325 350 353 355 356 355 359 361 359 359 362 363 363 362 361 361 360 360 360 360 360 360 360 360 359 358 357 358 358 357 356 356 356 356
308 305 301 302 300 302 309 311 312 311 310 317 316 308 311 337 347 352 355 354 354 354 357 356 358 358 360 361 362 361 361 361 360 360 360 359 360 360 359 357 358 357 357 358 358 357 356 355 354
311 300 298 300 302 304 310 308 311 313 309 311 313 312 320 333 340 345 348 350 351 353 355 354 354 356 355 356 360 361 361 361 360 360 360 356 354 356 355 354 356 358 357 357 357 357 356 355 354
305 300 300 306 307 306 308 308 308 307 307 308 310 314 317 322 329 336 341 343 347 349 351 352 353 351 350 351 357 358 358 358 358 358 358 355 353 353 351 352 357 358 357 356 355 356 356 354 343
305 301 305 306 308 309 307 307 309 307 305 308 308 310 313 314 319 331 337 339 348 352 352 350 352 353 349 350 354 352 353 353 354 355 356 354 350 353 349 351 350 353 354 348 350 349 346 341 340
301 305 306 306 308 307 305 307 305 307 307 311 312 313 313 313 314 318 330 336 348 348 349 350 348 352 358 353 350 348 349 350 350 351 355 353 351 353 350 348 349 349 348 345 344 341 339 337 338
302 304 306 307 307 307 307 304 305 306 310 312 312 312 312 313 315 323 329 334 349 342 350 350 346 355 355 357 353 348 351 350 350 351 354 354 351 353 353 351 350 349 346 346 344 342 341 340 338
305 305 305 306 306 307 304 304 306 308 311 310 311 311 312 312 314 321 324 335 343 350 337 336 347 355 359 358 358 357 362 360 359 356 353 356 356 357 355 356 355 352 352 348 346 344 346 342 341
306 302 304 304 305 304 307 303 304 309 311 310 311 312 312 313 315 319 323 331 344 341 335 336 348 352 354 356 358 357 360 358 361 359 364 357 359 360 356 355 353 353 354 359 357 355 354 348 346
302 302 297 303 306 304 306 299 307 311 310 309 310 311 312 314 315 318 323 337 346 350 348 351 345 352 355 360 360 359 360 362 358 355 357 359 361 360 361 358 353 355 359 354 352 351 349 348 346
300 295 297 299 306 305 304 300 307 311 310 310 311 312 313 314 318 322 327 342 342 340 347 351 355 357 355 359 360 361 363 356 353 345 350 353 350 353 348 349 350 353 352 354 355 352 347 346 347
296 296 298 298 303 305 303 302 306 311 310 310 311 312 313 314 318 325 331 339 338 341 347 353 354 360 361 359 361 360 358 362 362 357 357 352 354 348 337 330 340 346 350 351 351 350 350 348 346
300 300 298 301 304 303 302 303 305 309 310 310 311 312 314 315 320 325 329 334 337 347 349 349 353 358 357 356 348 348 348 351 354 356 358 356 350 346 335 329 339 346 345 346 343 332 326 335 339
299 298 298 302 304 304 303 302 306 308 309 310 311 312 314 316 318 323 328 332 339 344 348 349 351 356 359 355 354 353 350 347 349 353 360 359 357 353 345 347 349 345 343 333 330 327 323 331 331
298 297 298 299 302 304 302 300 302 307 310 311 312 314 314 316 319 321 324 330 338 342 347 349 351 352 352 358 353 354 352 351 345 348 349 354 356 357 356 355 352 349 335 330 329 325 322 322 327
295 301 301 300 298 293 302 291 300 303 306 308 311 314 314 316 321 323 326 333 338 337 339 339 341 344 343 350 349 352 347 344 341 341 342 343 345 347 346 350 348 346 331 324 326 329 323 329 325
299 304 301 300 298 296 296 294 298 303 302 306 311 313 314 321 323 324 327 330 330 333 332 334 335 335 337 337 338 340 339 337 339 339 336 338 340 345 341 339 339 343 336 333 334 328 324 334 333
305 302 301 300 297 290 295 294 295 300 303 306 311 313 316 320 322 322 325 327 326 328 328 331 331 332 333 333 333 332 332 332 329 330 329 331 330 332 338 331 334 335 336 337 337 341 339 338 338
302 298 290 288 289 288 297 294 297 304 308 309 310 315 318 319 319 319 319 320 323 324 326 327 328 328 331 331 331 331 331 333 333 330 329 327 325 326 327 330 330 328 329 329 330 331 332 333 334
299 298 291 285 287 290 298 293 297 308 311 312 314 315 317 318 318 318 319 320 319 321 324 324 326 326 328 328 329 330 331 326 327 327 325 324 323 324 329 327 324 323 323 324 326 325 324 326 327
298 295 301 295 296 293 296 299 305 307 309 311 311 314 315 316 317 317 318 319 319 320 323 323 323 325 325 326 328 329 327 327 326 327 328 324 324 321 323 322 322 322 321 321 321 319 321 323 323
301 303 294 296 286 286 294 294 296 302 306 309 311 311 314 316 315 316 316 318 320 321 321 324 324 323 324 325 325 322 325 325 325 325 323 323 322 321 320 319 319 319 318 318 318 316 317 318 318
299 297 300 299 297 291 289 290 305 304 306 309 310 313 314 314 313 314 315 316 317 319 318 321 320 320 321 322 323 323 323 322 322 321 321 320 320 319 316 316 315 313 312 313 312 312 312 312 312
302 300 300 295 293 296 295 294 307 308 308 311 309 313 313 313 313 313 313 314 314 314 315 317 318 317 318 319 320 321 322 321 321 320 319 319 317 316 313 313 311 310 310 310 309 308 308 308 308

GFSSGP_sfc_thetae_111.txt.gz
Theta_e
319 312 314 308 297 297 296 302 310 310 312 315 317 315 316 336 331 325 350 355 356 358 363 363 364 364 365 364 363 361 361 361 361 361 361 361 362 362 361 362 363 363 363 359 358 357 354 356 355
315 316 313 304 293 290 295 306 307 312 314 315 317 315 325 337 348 349 348 355 357 359 360 362 364 364 364 364 362 360 361 361 361 361 361 361 362 362 361 362 363 363 362 359 356 354 354 355 355
319 315 303 295 291 291 295 306 310 312 316 315 314 318 324 335 349 350 353 356 356 355 359 363 365 363 364 364 362 360 360 361 361 361 361 361 362 362 362 361 361 362 360 358 355 354 356 355 355
309 303 303 292 291 297 301 306 310 311 314 315 315 314 332 342 347 349 357 357 353 354 359 364 365 364 363 363 362 360 361 360 360 361 361 361 362 361 361 361 361 360 359 357 357 358 357 356 355
305 300 292 289 292 299 304 308 311 310 312 313 314 313 330 344 351 351 359 358 353 355 359 362 364 364 364 363 362 361 361 360 360 361 361 361 361 361 361 361 361 359 358 359 358 358 357 357 357
298 298 288 287 293 299 303 308 310 309 308 313 312 312 327 346 349 349 356 357 357 357 358 360 364 364 363 362 361 360 360 359 359 360 360 360 360 360 360 360 360 358 357 358 358 357 357 356 356
297 292 288 291 294 297 301 307 307 308 308 310 309 306 315 337 349 351 350 356 359 359 356 358 361 363 363 361 360 360 359 359 358 358 359 359 359 359 359 358 358 357 357 357 357 356 356 356 356
300 294 291 294 294 294 302 302 302 305 307 312 313 303 306 338 346 349 349 353 358 358 356 354 357 359 357 359 361 360 359 358 358 358 358 358 358 358 358 356 355 356 357 357 356 356 355 355 355
302 292 290 293 295 297 303 298 304 307 305 306 308 309 329 335 337 340 343 347 355 356 353 353 354 355 356 357 359 360 361 359 358 359 358 355 352 354 355 355 356 356 356 356 356 356 354 354 354
297 291 294 298 300 298 301 299 301 303 303 303 306 310 318 324 327 327 334 337 348 349 350 351 353 353 353 357 356 355 357 356 354 354 354 351 347 349 352 353 355 356 355 355 356 356 355 354 345
297 294 297 300 303 303 301 300 303 300 298 303 303 306 309 309 312 315 325 329 344 347 348 347 347 347 348 353 353 353 354 353 353 353 352 349 348 346 349 345 347 348 354 348 350 349 348 346 343
295 299 300 301 304 303 299 302 300 300 300 305 307 307 307 306 305 309 310 336 346 341 334 340 344 345 348 351 349 349 350 350 350 351 351 347 344 342 343 344 343 346 345 343 339 340 340 338 337
297 298 301 303 303 300 301 300 299 300 304 307 308 308 306 306 305 306 308 344 342 331 332 336 336 334 343 350 348 344 346 347 347 346 349 347 343 341 345 341 343 344 343 342 337 336 336 334 332
300 299 300 300 300 300 299 299 299 302 306 307 307 306 306 306 306 304 314 338 336 334 330 335 336 334 339 348 349 346 348 345 345 345 348 349 347 342 346 343 345 344 344 341 340 339 336 334 333
301 297 299 300 299 299 301 296 298 302 306 305 306 306 307 307 308 306 314 339 335 334 330 331 334 336 342 349 350 349 350 350 349 349 349 350 350 348 349 348 343 342 344 342 346 341 343 340 338
296 296 291 296 299 301 298 292 301 304 304 304 306 307 308 307 308 309 317 341 332 330 333 335 343 344 346 343 348 352 349 351 349 346 348 352 352 347 344 343 342 346 345 344 344 342 340 336 330
292 288 289 293 299 299 297 294 301 306 304 303 304 306 307 306 309 310 317 342 336 332 332 339 340 344 344 340 342 351 351 348 348 342 340 346 348 346 344 342 340 343 340 336 335 339 336 338 334
287 289 292 293 297 299 297 295 299 304 305 304 305 306 307 308 309 312 327 341 343 335 337 340 340 340 341 343 350 351 353 350 345 336 338 348 345 345 342 338 335 337 334 332 335 326 325 329 335
294 293 292 296 301 298 297 297 300 302 303 303 303 305 306 307 311 319 333 334 340 345 344 340 343 345 348 348 342 340 340 343 346 348 348 345 345 343 333 328 328 327 331 329 327 326 323 324 324
294 292 292 297 300 298 296 297 301 303 303 303 304 304 305 307 311 316 326 337 337 337 339 344 344 345 345 345 339 339 338 342 342 343 345 346 344 342 333 327 327 335 332 328 326 325 321 321 324
293 291 292 293 299 299 297 295 298 305 306 305 306 306 307 307 311 325 331 334 337 336 337 338 336 337 337 341 338 337 336 333 335 337 335 336 345 346 336 335 336 340 333 327 325 323 319 316 320
291 297 296 296 295 288 298 284 293 299 301 303 306 305 306 309 316 329 329 327 328 328 329 328 329 329 330 333 338 337 333 329 329 328 328 330 334 337 335 334 339 335 323 321 322 325 321 318 316
295 299 297 296 292 291 293 287 290 299 298 300 303 305 309 313 320 323 322 324 325 325 325 325 324 324 324 325 327 323 321 322 325 322 320 321 321 325 325 328 330 332 326 323 322 327 322 321 319
302 298 296 295 291 284 290 288 288 294 298 300 304 307 316 317 318 319 321 322 321 322 321 321 321 321 322 322 322 321 319 319 318 316 318 318 318 320 323 324 322 321 322 321 325 331 327 324 326
298 291 284 284 283 282 291 289 290 298 305 303 304 313 314 315 315 315 316 316 318 318 319 320 318 318 319 320 319 319 317 317 317 316 315 314 314 315 318 318 316 316 316 317 318 319 321 323 326
295 292 284 278 280 284 293 287 291 300 307 308 313 312 313 312 313 313 314 314 314 316 316 317 316 316 317 317 316 317 316 315 315 316 315 314 315 314 316 315 316 316 316 315 315 316 316 318 318
294 291 295 288 292 286 291 294 298 305 306 309 309 311 311 312 312 311 312 312 313 313 313 314 314 313 314 315 315 314 314 314 314 314 314 313 314 316 314 314 313 314 315 314 313 312 312 314 315
296 298 289 290 283 280 289 291 294 299 302 306 307 308 311 311 311 311 311 311 312 312 312 313 312 312 313 312 312 313 313 314 313 313 312 311 312 312 312 311 310 309 309 308 307 306 307 307 308
293 294 293 292 290 282 282 288 303 300 303 303 305 308 308 308 308 309 310 310 311 312 311 310 309 310 310 310 311 311 311 312 312 311 311 311 310 309 308 308 307 307 306 306 304 304 305 305 304
297 294 296 288 286 291 289 289 307 306 306 306 308 309 307 308 308 308 308 308 307 307 309 308 308 307 308 309 310 310 311 311 310 310 310 310 307 307 307 307 306 307 307 305 305 304 305 305 304

GFSSGP_sfc_thetae_114.txt.gz
Theta_e
318 309 312 307 296 295 293 298 305 306 308 312 314 325 333 334 327 318 347 353 357 359 360 363 364 365 364 363 361 361 361 360 360 360 361 361 360 360 360 361 363 363 360 357 357 354 355 355 354
314 314 309 301 292 288 292 300 303 306 311 314 314 329 336 335 345 345 347 355 357 359 360 360 364 364 364 362 361 360 360 360 360 360 360 361 360 360 361 362 362 362 358 357 356 353 354 354 353
315 313 303 297 289 289 292 301 304 310 312 312 312 321 336 340 348 347 351 355 358 359 359 360 363 363 364 362 360 360 360 359 360 360 360 361 361 360 361 362 362 361 359 356 354 354 355 354 354
308 302 299 291 289 294 298 302 305 307 310 313 313 323 335 349 349 349 354 356 355 357 360 362 363 363 363 362 361 360 360 359 360 360 360 361 361 360 360 360 361 361 359 356 354 355 356 355 354
303 296 290 287 290 294 299 303 305 304 306 309 312 317 332 346 351 353 353 352 352 355 360 361 362 363 363 362 360 360 360 359 359 360 360 361 360 360 360 360 360 360 359 356 355 356 356 355 354
296 295 285 285 290 295 297 302 303 303 306 307 309 327 331 347 350 352 353 349 355 355 359 361 363 363 362 361 360 360 359 359 359 359 359 360 360 360 360 360 359 358 358 357 357 357 356 355 355
294 289 286 286 290 292 298 301 301 303 304 305 310 313 327 342 353 355 354 351 356 356 356 359 360 362 362 360 359 359 358 358 358 358 358 359 359 359 359 359 358 357 356 357 357 356 355 355 355
298 292 287 288 290 290 299 299 300 301 306 311 311 303 323 339 352 356 354 353 354 353 354 357 359 360 357 357 360 359 358 358 357 357 358 358 358 358 358 355 355 356 356 356 355 355 355 355 354
298 288 285 288 291 294 298 296 301 305 302 307 307 324 336 344 346 347 351 352 352 352 353 355 356 355 355 357 358 359 359 358 357 357 357 354 351 352 355 354 355 355 355 355 355 354 353 353 353
294 289 290 294 295 295 295 296 300 301 301 301 304 310 329 332 330 338 348 348 350 348 350 351 353 353 354 357 356 354 355 354 353 353 353 350 348 349 352 354 355 355 354 355 355 355 354 353 345
293 292 294 295 299 299 299 296 300 299 296 300 301 304 307 315 315 318 323 349 346 348 348 348 350 350 351 353 354 354 353 352 352 352 351 348 348 346 349 346 347 348 353 347 349 348 348 345 343
291 296 297 297 300 298 295 299 299 299 299 303 304 305 306 303 305 309 332 341 341 342 343 345 346 346 348 352 353 353 353 352 351 351 351 348 344 341 344 343 343 344 345 343 342 341 340 340 341
293 296 299 299 299 299 299 298 298 299 303 303 306 306 304 303 303 312 341 337 338 341 343 342 343 347 348 348 348 350 350 350 351 351 351 349 344 341 341 341 341 343 342 342 339 336 336 335 335
297 299 299 299 296 299 297 299 297 299 303 303 304 305 305 304 304 327 336 335 338 341 342 340 340 343 345 346 346 344 346 346 345 346 348 349 344 339 340 340 342 340 341 341 340 336 335 334 333
300 295 297 297 296 295 297 295 297 300 302 302 303 304 305 305 305 311 337 334 334 337 338 337 340 345 344 344 346 348 343 344 344 344 345 348 345 344 347 344 342 342 343 344 344 341 340 338 336
293 294 290 296 296 297 296 292 297 301 299 300 302 303 304 305 306 308 336 336 335 335 335 337 342 343 334 344 346 348 348 344 345 346 345 347 347 346 343 342 343 344 343 339 337 336 334 336 333
289 287 286 290 295 296 294 293 298 301 301 300 300 302 304 304 305 311 336 336 334 333 332 332 333 332 334 343 344 343 349 347 344 342 344 347 349 347 345 343 341 341 336 333 336 329 330 329 328
287 285 287 288 294 294 294 293 296 299 300 300 301 302 303 303 305 314 336 335 334 332 330 331 334 334 340 339 339 346 348 345 342 334 337 345 346 344 341 337 334 334 330 330 327 324 325 326 326
292 289 288 291 296 294 292 294 297 300 297 299 300 302 302 303 306 314 338 335 332 329 332 334 337 338 339 340 338 339 343 343 342 345 346 344 342 342 336 332 330 329 328 325 324 321 321 323 326
292 289 288 292 296 294 295 294 297 299 299 300 301 302 302 303 305 325 335 337 333 333 336 336 337 339 339 342 338 339 340 338 340 342 343 344 343 340 334 330 326 327 327 324 324 322 319 319 320
291 289 289 289 295 295 293 291 294 299 302 303 303 303 303 303 322 329 332 335 337 338 338 335 335 336 336 341 337 334 333 335 334 330 331 333 341 342 336 331 328 332 329 325 323 322 319 316 315
288 294 294 293 290 285 293 284 290 296 298 301 302 302 313 324 327 327 326 327 327 327 329 328 327 328 332 336 334 330 327 326 325 324 323 324 325 327 331 334 335 336 329 326 325 322 317 314 312
292 297 295 294 289 287 290 285 289 293 294 297 301 306 321 324 323 321 321 322 323 323 322 323 323 323 324 324 322 324 323 321 318 318 318 318 321 322 324 322 325 326 323 321 320 320 320 318 315
299 297 295 292 288 283 288 287 286 290 294 298 304 314 320 319 319 319 320 320 319 320 320 320 320 319 320 321 318 317 316 315 315 314 313 313 315 317 319 319 317 316 315 315 317 319 321 321 319
297 292 283 280 281 282 289 286 288 294 297 302 310 314 316 317 317 317 317 317 317 316 317 318 317 316 316 317 316 316 314 314 313 312 311 312 312 312 312 313 313 313 313 313 313 313 314 315 315
295 293 282 278 279 282 290 284 288 297 305 303 313 313 314 313 315 316 316 316 315 315 315 315 315 314 314 315 313 313 313 313 312 311 311 311 310 311 311 311 312 313 314 313 312 311 311 312 311
296 292 294 287 289 284 287 293 297 302 304 307 308 310 309 310 311 311 313 313 314 314 313 312 312 313 313 313 311 311 312 311 311 310 311 310 311 313 311 310 309 309 308 308 306 305 305 306 305
298 297 288 286 281 279 285 290 291 297 300 305 306 306 308 310 310 311 312 311 312 311 310 310 310 310 310 310 310 310 310 311 310 310 309 309 309 308 307 306 306 306 306 306 304 303 304 303 303
295 293 291 289 287 280 280 284 299 299 302 300 304 307 307 308 309 310 311 311 309 309 308 307 308 307 307 308 309 309 309 310 309 309 308 308 307 306 306 306 305 305 305 305 303 302 303 304 303
300 295 293 287 285 286 285 285 304 304 306 306 305 305 306 308 309 311 310 308 307 306 306 305 305 306 306 307 308 308 308 308 308 307 307 307 305 305 305 306 305 306 306 305 303 303 305 304 304

GFSSGP_sfc_thetae_117.txt.gz
Theta_e
319 309 308 305 296 294 292 297 302 303 305 309 312 317 323 332 326 314 344 350 355 356 360 362 364 363 362 361 361 360 360 359 359 360 359 359 359 360 361 361 362 361 359 358 354 354 354 354 353
313 310 307 298 291 287 292 298 301 304 308 310 311 334 334 333 344 343 345 353 355 357 359 360 364 364 362 360 361 360 360 359 359 359 359 359 359 359 360 362 361 359 357 356 354 354 354 353 353
313 310 302 296 288 289 291 298 302 307 308 307 307 325 338 337 346 345 350 354 356 356 358 360 364 363 361 360 360 359 359 358 359 359 359 359 359 360 361 361 361 358 356 355 353 353 354 353 353
305 302 299 291 288 293 297 302 301 302 305 306 310 321 334 349 348 349 353 356 354 355 357 362 363 362 362 359 359 360 359 359 359 359 359 359 358 359 360 361 361 359 357 353 352 353 354 354 353
302 296 290 289 291 294 298 301 303 300 301 304 306 311 331 345 350 352 352 354 353 355 357 360 362 362 361 359 359 359 359 359 359 359 359 358 359 359 359 360 360 359 357 354 352 353 354 354 353
295 293 285 285 289 295 298 300 300 299 301 302 302 313 332 347 348 350 351 350 355 355 357 358 362 361 360 360 360 359 358 358 359 359 359 359 359 359 359 359 359 358 357 355 354 353 353 353 354
292 288 285 284 288 291 297 300 299 299 299 300 305 322 328 344 348 349 347 352 354 357 356 357 358 360 361 360 359 359 358 358 358 358 358 358 359 359 359 358 358 356 356 356 356 355 354 354 354
295 292 286 287 288 289 297 298 299 297 301 306 313 317 328 339 350 348 347 350 351 354 356 355 357 357 356 356 359 358 358 357 357 357 357 357 358 358 358 355 355 355 354 355 354 354 354 353 353
296 288 284 287 290 292 294 294 299 301 300 303 305 315 337 348 352 348 348 349 348 351 353 354 355 355 355 354 357 358 358 357 357 357 357 354 350 352 353 354 355 355 354 354 354 354 353 353 353
293 286 287 292 293 292 292 293 296 298 298 300 304 317 341 349 349 346 346 345 345 346 349 352 352 351 353 356 354 352 353 353 352 352 352 349 347 347 351 353 355 355 354 354 354 354 353 352 344
292 289 293 294 296 296 293 296 298 296 295 298 299 307 315 331 343 346 347 347 347 348 349 350 351 351 351 351 353 353 352 351 350 351 350 347 346 347 347 346 348 347 352 346 350 349 347 344 342
289 293 296 295 297 295 293 297 296 297 298 301 301 303 304 314 324 335 346 347 346 346 347 349 348 349 350 351 351 351 351 350 349 350 349 346 343 341 342 343 342 343 345 343 342 341 340 340 340
290 293 296 297 296 296 297 295 296 297 300 302 301 303 302 300 315 323 341 344 346 344 344 346 347 348 347 350 351 351 351 350 349 349 350 348 345 342 342 343 342 342 342 342 339 337 336 335 334
295 296 297 296 296 294 294 297 295 297 301 300 300 302 302 302 322 335 337 341 342 343 342 343 346 344 341 342 347 349 349 349 349 349 350 349 344 342 341 341 341 341 342 339 339 337 335 333 332
298 293 296 295 296 295 296 293 294 299 300 299 299 301 302 302 328 330 336 338 341 342 343 341 344 344 343 344 345 343 344 347 347 346 348 349 345 340 339 340 340 341 341 339 340 339 337 333 335
291 292 289 292 295 295 295 290 296 299 298 298 300 300 301 302 307 329 335 338 341 341 340 341 344 341 339 343 345 345 343 342 343 343 343 346 346 344 342 342 340 342 340 338 337 335 334 333 331
288 283 285 290 294 294 293 289 297 299 297 297 297 299 301 301 302 324 335 336 337 339 339 338 338 337 335 341 342 343 345 343 344 344 342 343 345 345 342 340 340 340 336 335 334 327 329 327 325
285 283 288 287 292 293 292 289 295 297 296 296 297 298 299 301 303 316 333 335 336 337 338 335 331 329 333 339 339 342 345 342 340 340 342 345 346 344 342 335 336 334 331 330 327 324 326 326 324
291 289 287 289 294 292 290 290 293 296 295 295 296 297 299 300 303 325 332 335 335 333 329 328 329 330 335 334 336 337 334 337 338 336 338 343 343 342 337 332 330 329 327 326 325 323 322 322 323
292 288 286 290 294 291 291 291 295 297 296 296 297 297 299 300 305 329 330 333 331 330 329 329 332 335 335 336 337 338 337 335 338 338 339 341 342 339 334 330 327 326 324 323 322 320 318 318 320
291 289 287 287 293 292 291 288 292 297 298 298 298 299 299 300 315 329 329 328 327 327 329 332 332 334 335 338 334 332 334 332 327 326 327 331 335 340 335 331 327 327 325 322 322 321 319 316 314
288 293 291 290 288 282 291 280 288 293 296 297 299 298 304 321 323 330 330 327 327 328 328 329 334 333 337 336 330 330 327 323 320 319 320 322 324 325 330 335 332 334 329 329 329 327 318 313 310
291 295 292 291 287 285 287 283 287 291 292 294 298 314 319 322 325 328 329 322 323 324 322 322 323 324 325 326 327 326 320 319 317 316 317 317 318 320 320 319 321 320 321 320 319 319 317 318 318
297 293 290 288 285 280 285 285 285 288 293 294 306 317 318 318 319 319 320 321 319 320 319 319 320 319 319 320 320 318 316 316 314 312 313 313 313 314 315 316 314 312 312 312 312 313 313 313 315
294 289 280 278 278 279 286 284 287 293 297 300 312 314 316 317 316 317 316 317 317 316 317 318 317 315 316 317 316 317 314 313 311 311 311 311 310 310 310 311 311 311 312 312 310 309 309 309 308
290 288 281 276 277 280 288 283 287 295 301 304 315 314 315 315 314 314 315 316 315 316 316 315 315 314 314 314 314 314 313 312 310 310 310 309 308 308 309 310 310 309 309 308 305 305 305 306 304
291 289 291 285 287 281 284 289 298 303 304 310 311 313 311 312 312 313 314 314 314 314 314 313 313 312 311 311 311 310 310 310 309 308 308 308 308 310 308 307 306 306 306 305 303 302 302 302 301
297 295 287 286 279 277 284 288 288 296 299 305 307 307 307 309 311 311 312 313 313 312 310 310 310 309 309 309 310 310 309 309 308 308 307 307 307 306 305 304 304 304 304 304 302 301 302 302 302
295 293 292 289 286 280 281 285 298 297 299 301 303 305 307 308 309 311 312 311 309 308 308 308 307 306 306 308 307 308 308 308 308 308 307 307 305 304 304 305 304 304 304 304 302 302 302 302 302
298 293 293 284 283 285 285 285 301 300 300 303 304 305 307 308 309 309 309 307 306 306 306 306 305 305 305 307 307 307 307 307 306 305 306 306 304 303 304 304 304 304 304 304 303 302 303 303 302

GFSSGP_sfc_thetae_120.txt.gz
Theta_e
326 309 306 304 295 294 291 296 300 301 303 306 308 312 320 326 325 314 343 346 353 355 359 360 363 363 362 361 361 361 361 361 360 360 360 360 360 360 360 361 362 361 359 355 354 354 353 353 353
314 308 306 297 290 288 291 296 299 303 306 308 307 323 328 329 343 343 342 352 355 356 359 360 363 363 361 361 360 360 360 360 359 359 359 359 360 360 361 361 361 359 358 355 354 355 354 353 353
311 308 300 294 287 289 292 297 301 304 305 303 304 318 333 333 345 345 349 354 355 356 358 360 363 362 361 360 360 359 359 359 359 358 358 359 360 360 360 361 360 357 356 355 353 354 353 353 352
303 300 299 291 288 292 297 300 298 300 301 303 305 304 327 347 346 348 353 354 354 355 358 360 361 361 361 360 359 359 358 359 358 358 358 358 359 360 360 361 359 358 355 354 353 354 354 354 352
299 295 288 285 290 294 296 301 299 298 298 300 302 302 322 345 351 352 353 353 352 353 358 358 361 361 361 360 359 359 359 358 359 358 358 358 358 359 360 360 360 358 356 353 353 353 354 354 353
294 291 284 284 288 294 296 299 300 298 298 299 299 301 311 344 348 350 352 351 354 354 358 358 362 361 360 360 359 359 358 358 358 358 358 358 358 359 359 359 359 358 356 354 353 353 353 351 352
291 287 284 283 287 292 296 299 296 299 298 299 300 309 328 342 347 349 349 352 354 356 356 357 358 359 360 359 359 358 358 357 357 357 357 358 358 358 358 358 357 357 356 356 355 354 353 352 353
293 290 284 285 287 289 296 298 299 296 299 303 308 310 322 339 346 347 349 351 353 354 354 355 356 356 355 356 359 358 358 357 356 357 357 357 358 358 358 355 355 355 354 354 354 353 353 352 352
294 286 283 286 288 290 292 295 296 299 298 299 303 309 336 346 344 346 346 347 349 350 351 353 354 353 354 354 356 357 357 357 357 357 357 354 353 355 356 354 355 355 354 354 353 353 352 352 352
291 284 286 292 291 291 291 291 293 297 296 298 304 323 346 345 343 342 342 341 344 346 349 352 351 351 352 354 353 352 353 353 352 353 353 350 349 350 353 354 355 355 354 354 354 353 352 352 347
292 287 290 293 294 294 292 293 296 294 294 297 297 310 329 344 343 342 343 342 343 346 348 351 350 350 351 352 351 352 352 350 350 350 349 347 347 349 350 349 352 351 353 348 351 351 350 348 345
288 292 293 294 295 295 293 295 294 295 298 299 299 300 312 336 342 343 345 345 345 345 347 349 350 350 350 351 350 350 350 349 348 349 348 346 345 345 346 346 346 347 347 346 345 344 343 343 342
289 292 294 296 296 295 295 294 294 294 300 300 300 300 301 319 328 332 347 347 346 345 346 348 349 350 350 350 350 349 350 349 349 350 350 348 345 343 344 345 345 344 345 345 343 342 341 340 338
294 294 295 294 293 293 293 295 294 295 299 299 299 299 300 306 315 329 342 346 346 346 345 347 348 349 350 349 349 349 349 349 349 349 350 348 346 343 342 343 343 343 344 344 344 342 340 339 337
296 291 293 293 293 292 294 293 292 297 298 297 298 298 300 300 326 327 339 343 346 346 345 345 347 347 344 340 344 347 348 349 348 348 350 349 346 344 343 342 342 343 344 343 342 341 339 337 337
290 290 288 291 294 295 294 287 294 297 296 296 298 298 299 300 323 327 333 339 344 344 342 344 347 346 339 342 343 342 345 345 345 346 348 350 347 344 341 341 342 343 343 342 341 339 337 336 335
288 282 284 288 293 294 292 288 296 298 296 295 296 297 299 298 302 324 332 336 340 342 342 341 343 340 339 342 344 343 343 342 344 344 344 345 347 346 342 343 343 343 340 340 338 334 335 334 331
283 282 285 286 291 293 290 288 294 295 295 295 295 296 297 298 299 305 330 336 339 341 339 338 334 333 339 341 341 344 344 343 342 340 341 342 345 345 343 341 340 340 337 336 334 332 330 330 329
290 287 287 288 292 290 291 291 291 294 293 293 294 295 296 298 302 309 329 334 335 334 335 331 329 330 334 335 337 338 339 337 337 338 340 342 344 343 338 337 336 334 333 332 330 328 327 328 327
291 286 286 288 291 290 289 289 292 294 294 295 295 295 296 297 302 324 329 332 333 333 331 328 330 330 333 335 337 338 337 338 341 341 340 342 342 338 337 333 333 332 330 328 327 326 323 323 324
290 288 286 286 291 290 288 287 290 294 296 297 296 297 297 298 300 323 327 329 331 329 328 329 331 332 333 335 335 335 334 332 329 330 330 332 338 337 334 332 330 329 327 326 325 325 324 322 320
287 293 291 289 286 281 289 279 286 290 293 295 297 295 297 298 306 323 325 326 327 325 329 331 332 333 334 335 334 333 331 324 323 322 324 324 327 329 334 334 333 332 331 329 329 327 325 320 317
290 294 292 290 285 283 284 281 284 289 291 293 295 302 307 315 316 322 323 324 325 327 327 327 328 329 334 334 332 325 319 318 317 319 318 318 319 320 319 319 318 317 317 318 318 319 321 322 321
296 292 290 287 284 279 284 283 281 287 292 293 310 315 319 322 320 321 323 322 320 321 320 321 321 319 321 323 323 320 318 316 315 315 314 315 314 314 316 316 315 315 314 314 314 314 315 314 315
292 286 277 277 277 278 285 282 284 291 294 295 310 315 316 318 319 319 320 319 318 317 318 319 317 316 318 319 318 318 316 315 314 314 313 313 312 311 312 313 313 313 314 313 311 311 311 311 310
291 287 278 275 276 278 285 280 286 295 301 306 314 315 314 316 318 318 317 316 316 316 318 317 316 315 317 317 317 316 315 314 313 313 312 311 310 310 312 311 311 310 310 310 308 307 307 308 306
289 286 289 283 284 280 282 287 295 303 307 310 311 313 313 314 313 313 315 315 315 314 315 316 314 314 315 315 314 313 315 314 313 312 311 310 310 311 310 309 308 308 308 308 308 306 306 306 306
293 294 285 283 278 277 281 285 285 295 301 307 309 310 311 311 311 311 311 311 311 312 312 313 313 311 311 312 313 311 311 311 310 310 309 309 310 309 308 308 307 307 307 307 307 306 306 305 305
293 290 289 288 283 278 279 283 295 295 301 306 309 309 309 309 309 309 309 309 311 311 310 309 309 310 309 310 310 310 310 310 310 309 309 309 309 308 307 307 307 307 307 308 307 306 306 306 306
296 292 288 284 281 282 281 282 299 298 301 303 306 307 309 309 308 307 307 308 307 306 306 306 307 307 308 309 309 308 309 309 308 308 308 309 307 307 306 307 307 307 307 307 306 305 306 305 305